[[{"header":{"parameterUnit":"m.s-1","parameterCategory":1,"la1":30.6,"la2":29.2853,"lo1":-89.7004,"lo2":-87.6739,"dy":0.0162,"dx":0.0183,"nx":112,"ny":82,"refTime":"2023-05-16T12:00:00:Z","depth":0,"parameterNumber":2,"parameterNumberName":"U-component_of_WINDS"},"data":[0.0,0.0,0.0,0.0,0.0,0.0,0.0,0.0,0.0,0.0,0.0,0.0,0.0,0.0,0.0,0.0,0.0,0.0,0.0,0.0,0.0,0.0,0.0,0.0,0.0,0.0,0.0,0.0,0.0,0.0,0.0,0.0,0.0,0.0,0.0,0.0,0.0,0.0,0.0,0.0,0.0,0.0,0.0,0.0,0.0,0.0,0.0,0.0,0.0,0.0,0.0,0.0,0.0,0.0,0.0,0.0,0.0,0.0,0.0,0.0,0.0,0.0,0.0,0.0,0.0,0.0,0.0,0.0,0.0,0.0,0.0,0.0,0.0,0.0,0.0,0.0,0.0,0.0,0.0,0.0,0.0,0.0,0.0,0.0,0.0,0.0,0.0,0.0,0.0,0.0,0.0,-0.9514,-1.0138,-1.0263,-0.966,-0.9792,-0.9401,-0.8265,0.0,0.0,0.0,0.0,0.0,0.0,0.0,0.0,0.0,0.0,0.0,0.0,0.0,0.0,0.0,0.0,0.0,0.0,0.0,0.0,0.0,0.0,0.0,0.0,0.0,0.0,0.0,0.0,0.0,0.0,0.0,0.0,0.0,0.0,0.0,0.0,0.0,0.0,0.0,0.0,0.0,0.0,0.0,0.0,0.0,0.0,0.0,0.0,0.0,0.0,0.0,0.0,0.0,0.0,0.0,0.0,0.0,0.0,0.0,0.0,0.0,0.0,0.0,0.0,0.0,0.0,0.0,0.0,0.0,0.0,0.0,0.0,0.0,0.0,0.0,0.0,0.0,0.0,0.0,0.0,0.0,0.0,0.0,0.0,0.0,0.0,0.0,0.0,0.0,0.0,0.0,0.0,0.0,0.0,0.0,0.0,0.0,0.0,0.0,0.0,0.0,0.0,0.0,0.0,-0.9056,-1.0512,-1.0566,-1.0399,-1.0125,-0.998,-0.955,-0.8667,0.0,0.0,0.0,0.0,0.0,0.0,0.0,0.0,0.0,0.0,0.0,0.0,0.0,0.0,0.0,0.0,0.0,0.0,0.0,0.0,0.0,0.0,0.0,0.0,0.0,0.0,0.0,0.0,0.0,0.0,0.0,0.0,0.0,0.0,0.0,0.0,0.0,0.0,0.0,0.0,0.0,0.0,0.0,0.0,0.0,0.0,0.0,0.0,0.0,0.0,0.0,0.0,0.0,0.0,0.0,0.0,0.0,0.0,0.0,0.0,0.0,0.0,0.0,0.0,0.0,0.0,0.0,0.0,0.0,0.0,0.0,0.0,0.0,0.0,0.0,0.0,0.0,0.0,0.0,0.0,0.0,0.0,0.0,0.0,0.0,0.0,0.0,0.0,0.0,0.0,0.0,0.0,0.0,0.0,0.0,0.0,0.0,0.0,0.0,0.0,0.0,0.0,0.0,-0.9577,-1.0348,-1.1348,-1.1202,-1.0985,-1.0807,-1.0557,-0.9896,-0.876,-0.7807,0.0,0.0,0.0,0.0,0.0,0.0,0.0,0.0,0.0,0.0,0.0,0.0,0.0,0.0,0.0,0.0,0.0,0.0,0.0,0.0,0.0,0.0,0.0,0.0,0.0,0.0,0.0,0.0,0.0,0.0,0.0,0.0,0.0,0.0,0.0,0.0,0.0,0.0,0.0,0.0,0.0,0.0,0.0,0.0,0.0,0.0,0.0,0.0,0.0,0.0,0.0,0.0,0.0,0.0,0.0,0.0,0.0,0.0,0.0,0.0,0.0,0.0,0.0,0.0,0.0,0.0,0.0,0.0,0.0,0.0,0.0,0.0,0.0,0.0,0.0,0.0,0.0,0.0,0.0,0.0,0.0,0.0,0.0,0.0,0.0,0.0,0.0,0.0,0.0,0.0,0.0,0.0,0.0,0.0,0.0,0.0,0.0,0.0,0.0,0.0,0.0,0.0,-1.0597,-1.1465,-1.184,-1.1674,-1.1458,-1.1291,-1.0992,-1.0276,-0.8971,-0.821,0.0,0.0,0.0,0.0,0.0,0.0,0.0,0.0,0.0,0.0,0.0,0.0,0.0,0.0,0.0,0.0,0.0,0.0,0.0,0.0,0.0,0.0,0.0,0.0,0.0,0.0,0.0,0.0,0.0,0.0,0.0,0.0,0.0,0.0,0.0,0.0,0.0,0.0,0.0,0.0,0.0,0.0,0.0,0.0,0.0,0.0,0.0,0.0,0.0,0.0,0.0,0.0,0.0,0.0,0.0,0.0,0.0,0.0,0.0,0.0,0.0,0.0,0.0,0.0,0.0,0.0,0.0,0.0,0.0,0.0,0.0,0.0,0.0,0.0,0.0,0.0,0.0,0.0,0.0,0.0,0.0,0.0,0.0,0.0,0.0,0.0,0.0,0.0,0.0,0.0,0.0,0.0,0.0,0.0,0.0,0.0,0.0,0.0,0.0,0.0,0.0,0.0,-1.115,-1.1903,-1.182,-1.1682,-1.1481,-1.123,-1.1009,-1.0488,-0.9508,-0.8757,0.0,0.0,0.0,0.0,0.0,0.0,0.0,0.0,0.0,0.0,0.0,0.0,0.0,0.0,0.0,0.0,0.0,0.0,0.0,0.0,0.0,0.0,0.0,0.0,0.0,0.0,0.0,0.0,0.0,0.0,0.0,0.0,0.0,0.0,0.0,0.0,0.0,0.0,0.0,0.0,0.0,0.0,0.0,0.0,0.0,0.0,0.0,0.0,0.0,0.0,0.0,0.0,0.0,0.0,0.0,0.0,0.0,0.0,0.0,0.0,0.0,0.0,0.0,0.0,0.0,0.0,0.0,0.0,0.0,0.0,0.0,0.0,0.0,0.0,0.0,0.0,0.0,0.0,0.0,0.0,0.0,0.0,0.0,0.0,0.0,0.0,0.0,0.0,0.0,0.0,0.0,0.0,0.0,0.0,0.0,0.0,0.0,0.0,0.0,0.0,0.0,0.0,-1.1747,-1.2533,0.0,-1.2265,-1.2082,-1.1894,-1.1615,-1.093,-0.963,0.0,0.0,0.0,0.0,0.0,0.0,0.0,0.0,0.0,0.0,0.0,0.0,0.0,0.0,0.0,0.0,0.0,0.0,0.0,0.0,0.0,0.0,0.0,0.0,0.0,0.0,0.0,0.0,0.0,0.0,0.0,0.0,0.0,0.0,0.0,0.0,0.0,0.0,0.0,0.0,0.0,0.0,0.0,0.0,0.0,0.0,0.0,0.0,0.0,0.0,0.0,0.0,0.0,0.0,0.0,0.0,0.0,0.0,0.0,0.0,0.0,0.0,0.0,0.0,0.0,0.0,0.0,0.0,0.0,0.0,0.0,0.0,0.0,0.0,0.0,0.0,0.0,0.0,0.0,0.0,0.0,0.0,0.0,0.0,0.0,0.0,0.0,0.0,0.0,0.0,0.0,0.0,0.0,0.0,0.0,0.0,0.0,0.0,0.0,0.0,0.0,0.0,-1.1087,-1.2302,-1.3108,0.0,-1.2858,-1.2692,-1.254,-1.2042,-1.1204,-0.9893,0.0,0.0,0.0,0.0,0.0,0.0,0.0,0.0,0.0,0.0,0.0,0.0,0.0,0.0,0.0,0.0,0.0,0.0,0.0,0.0,0.0,0.0,0.0,0.0,0.0,0.0,0.0,0.0,0.0,0.0,0.0,0.0,0.0,0.0,0.0,0.0,0.0,0.0,0.0,0.0,0.0,0.0,0.0,0.0,0.0,0.0,0.0,0.0,0.0,0.0,0.0,0.0,0.0,0.0,0.0,0.0,0.0,0.0,0.0,0.0,0.0,0.0,0.0,0.0,0.0,0.0,0.0,0.0,0.0,0.0,0.0,0.0,0.0,0.0,0.0,0.0,0.0,0.0,0.0,0.0,0.0,0.0,0.0,0.0,0.0,0.0,0.0,0.0,0.0,0.0,0.0,0.0,0.0,0.0,0.0,0.0,0.0,0.0,0.0,0.0,0.0,0.0,-1.1523,-1.2797,-1.3656,-1.3518,-1.3377,-1.3227,-1.3021,-1.2152,-1.1249,0.0,0.0,0.0,0.0,0.0,0.0,0.0,0.0,0.0,0.0,0.0,0.0,0.0,0.0,0.0,0.0,0.0,0.0,0.0,0.0,0.0,0.0,0.0,0.0,0.0,0.0,0.0,0.0,0.0,0.0,0.0,0.0,0.0,0.0,0.0,0.0,0.0,0.0,0.0,0.0,0.0,0.0,0.0,0.0,0.0,0.0,0.0,0.0,0.0,0.0,0.0,0.0,0.0,0.0,0.0,0.0,0.0,0.0,0.0,0.0,0.0,0.0,0.0,0.0,0.0,0.0,0.0,0.0,0.0,0.0,0.0,0.0,0.0,0.0,0.0,0.0,0.0,0.0,0.0,0.0,0.0,0.0,0.0,0.0,0.0,0.0,0.0,0.0,0.0,0.0,0.0,0.0,0.0,0.0,0.0,0.0,0.0,0.0,0.0,0.0,0.0,0.0,0.0,-1.1936,-1.3243,-1.4134,-1.4011,-1.3874,-1.3733,-1.3582,-1.2694,-1.1766,-1.0852,0.0,0.0,0.0,0.0,0.0,0.0,0.0,0.0,0.0,0.0,0.0,0.0,0.0,0.0,0.0,0.0,0.0,0.0,0.0,0.0,0.0,0.0,0.0,0.0,0.0,0.0,0.0,0.0,0.0,0.0,0.0,0.0,0.0,0.0,0.0,0.0,0.0,0.0,0.0,0.0,0.0,0.0,0.0,0.0,0.0,0.0,0.0,0.0,0.0,0.0,0.0,0.0,0.0,0.0,0.0,0.0,0.0,0.0,0.0,0.0,0.0,0.0,0.0,0.0,0.0,0.0,0.0,0.0,0.0,0.0,0.0,0.0,0.0,0.0,0.0,0.0,0.0,0.0,0.0,0.0,0.0,0.0,0.0,0.0,0.0,0.0,0.0,0.0,0.0,0.0,0.0,0.0,0.0,0.0,0.0,0.0,0.0,0.0,0.0,0.0,0.0,0.0,-1.2707,-1.3831,-1.455,-1.4408,-1.4301,-1.4197,-1.4056,-1.29,-1.1921,-1.1282,0.0,0.0,0.0,0.0,0.0,0.0,0.0,0.0,0.0,0.0,0.0,0.0,0.0,0.0,0.0,0.0,0.0,0.0,0.0,0.0,0.0,0.0,0.0,0.0,0.0,0.0,0.0,0.0,0.0,0.0,0.0,0.0,0.0,0.0,0.0,0.0,0.0,0.0,0.0,0.0,0.0,0.0,0.0,0.0,0.0,0.0,0.0,0.0,0.0,0.0,0.0,0.0,0.0,0.0,0.0,0.0,0.0,0.0,0.0,0.0,0.0,0.0,0.0,0.0,0.0,0.0,0.0,0.0,0.0,0.0,0.0,0.0,0.0,0.0,0.0,0.0,0.0,0.0,0.0,0.0,0.0,0.0,0.0,0.0,0.0,0.0,0.0,0.0,0.0,0.0,0.0,0.0,0.0,0.0,0.0,0.0,0.0,0.0,0.0,0.0,0.0,0.0,-1.3639,-1.4428,-1.4885,-1.4754,-1.4682,-1.4592,-1.4456,-1.29,-1.1854,-1.1663,0.0,0.0,0.0,0.0,0.0,0.0,0.0,0.0,0.0,0.0,0.0,0.0,0.0,0.0,0.0,0.0,0.0,0.0,0.0,0.0,0.0,0.0,0.0,0.0,0.0,0.0,0.0,0.0,0.0,0.0,0.0,0.0,0.0,0.0,0.0,0.0,0.0,0.0,0.0,0.0,0.0,0.0,0.0,0.0,0.0,0.0,0.0,0.0,0.0,0.0,0.0,0.0,0.0,0.0,0.0,0.0,0.0,0.0,0.0,0.0,-1.2485,0.0,0.0,0.0,0.0,0.0,0.0,0.0,0.0,0.0,0.0,0.0,0.0,0.0,0.0,0.0,0.0,0.0,0.0,0.0,0.0,0.0,0.0,0.0,0.0,0.0,0.0,0.0,0.0,0.0,0.0,0.0,0.0,0.0,0.0,0.0,0.0,0.0,0.0,0.0,0.0,0.0,-1.3903,-1.4647,-1.5091,-1.5018,-1.4949,-1.4893,-1.4801,-1.3209,-1.2155,-1.2004,-1.0376,0.0,0.0,0.0,0.0,0.0,0.0,0.0,0.0,0.0,0.0,0.0,0.0,0.0,0.0,0.0,0.0,0.0,0.0,0.0,0.0,0.0,0.0,0.0,0.0,0.0,0.0,0.0,0.0,0.0,0.0,0.0,0.0,0.0,0.0,0.0,0.0,0.0,0.0,0.0,0.0,0.0,0.0,0.0,0.0,0.0,0.0,0.0,0.0,0.0,0.0,0.0,0.0,0.0,0.0,0.0,0.0,0.0,0.0,0.0,0.0,-1.331,0.0,0.0,0.0,0.0,0.0,0.0,0.0,0.0,0.0,0.0,0.0,0.0,0.0,0.0,0.0,0.0,0.0,0.0,0.0,0.0,0.0,0.0,0.0,0.0,0.0,0.0,0.0,0.0,0.0,0.0,0.0,0.0,0.0,0.0,0.0,0.0,0.0,0.0,0.0,0.0,-1.461,-1.5017,-1.5219,-1.5194,-1.5168,-1.5116,-1.5057,-1.3456,-1.2408,-1.2305,-1.0665,0.0,0.0,0.0,0.0,0.0,0.0,0.0,0.0,0.0,0.0,0.0,0.0,0.0,0.0,0.0,0.0,0.0,0.0,0.0,0.0,0.0,0.0,0.0,0.0,0.0,0.0,0.0,0.0,0.0,0.0,0.0,0.0,0.0,0.0,0.0,0.0,0.0,0.0,0.0,0.0,0.0,0.0,0.0,0.0,0.0,0.0,0.0,0.0,0.0,0.0,0.0,0.0,0.0,-1.3046,-1.3627,-1.4365,-1.4555,-1.492,-1.5337,-1.4596,-1.417,-1.3973,-1.4244,0.0,0.0,0.0,0.0,0.0,0.0,0.0,0.0,0.0,0.0,0.0,0.0,0.0,0.0,0.0,0.0,0.0,0.0,0.0,0.0,0.0,0.0,0.0,0.0,-1.7069,-1.6812,-1.5653,0.0,0.0,0.0,0.0,0.0,0.0,0.0,0.0,0.0,0.0,0.0,-1.5292,-1.5332,-1.5306,-1.5311,-1.5329,-1.53,-1.5222,-1.376,-1.2766,-1.2558,-1.1041,-1.0041,0.0,0.0,0.0,0.0,0.0,0.0,0.0,0.0,0.0,0.0,0.0,0.0,0.0,0.0,0.0,0.0,0.0,0.0,0.0,0.0,0.0,0.0,0.0,0.0,0.0,0.0,0.0,0.0,0.0,0.0,0.0,0.0,-0.952,-0.9096,0.0,0.0,0.0,0.0,0.0,0.0,0.0,0.0,0.0,0.0,0.0,0.0,0.0,-1.1174,-1.18,-1.2024,-1.2532,-1.3296,-1.3595,-1.4054,-1.4655,-1.48,-1.515,-1.5647,-1.5766,0.0,-1.5388,-1.5291,0.0,0.0,0.0,0.0,0.0,0.0,0.0,0.0,0.0,0.0,0.0,0.0,0.0,0.0,0.0,0.0,0.0,0.0,0.0,0.0,0.0,0.0,-1.877,-1.8972,-1.9114,-1.9025,0.0,-1.7318,-1.6567,-1.6565,-1.6064,0.0,0.0,0.0,0.0,0.0,0.0,0.0,-1.5309,-1.5309,-1.5324,-1.537,-1.539,-1.5364,-1.529,-1.4383,-1.3486,-1.272,-1.1756,-1.0829,-0.9991,-0.9115,0.0,0.0,0.0,0.0,0.0,0.0,0.0,0.0,0.0,0.0,0.0,0.0,0.0,0.0,0.0,0.0,0.0,0.0,0.0,0.0,0.0,0.0,0.0,0.0,0.0,0.0,0.0,0.0,0.0,-1.0027,-0.9849,-0.9619,-0.9569,-0.9392,0.0,0.0,0.0,0.0,0.0,0.0,0.0,0.0,0.0,-1.0812,-1.1263,-1.1686,-1.2066,-1.2615,-1.3212,-1.3883,-1.4344,-1.4876,-1.5478,-1.5762,-1.6113,-1.6487,-1.6623,-1.6534,-1.6348,-1.6138,-1.5853,-1.5605,0.0,0.0,0.0,0.0,-1.5717,-1.5597,-1.5811,-1.6009,-1.6203,-1.6361,0.0,0.0,0.0,0.0,0.0,0.0,0.0,0.0,0.0,0.0,-1.9504,-1.9689,-1.9901,-1.9995,-1.9861,-1.9521,-1.8796,0.0,-1.6743,-1.6656,-1.6779,0.0,0.0,0.0,0.0,-1.5882,-1.5951,-1.5544,-1.5268,-1.5334,-1.533,-1.5344,-1.5351,-1.4551,-1.3688,-1.2813,-1.194,-1.1052,-1.0154,-0.9717,-0.9061,0.0,0.0,0.0,0.0,0.0,0.0,0.0,0.0,0.0,0.0,0.0,0.0,0.0,0.0,0.0,0.0,0.0,0.0,0.0,0.0,0.0,0.0,0.0,0.0,0.0,0.0,0.0,0.0,-1.0293,-1.0247,-1.0127,-1.0145,-1.0051,0.0,0.0,0.0,0.0,0.0,0.0,-1.0696,-1.08,-1.1015,-1.1498,-1.1941,-1.2303,-1.2477,-1.312,-1.3777,-1.4311,-1.4746,-1.5341,-1.6019,-1.6275,-1.6655,-1.7004,-1.7043,-1.7064,-1.7052,-1.6763,-1.6444,-1.6185,-1.6569,-1.6573,-1.6384,-1.6703,-1.6689,-1.6559,-1.6767,-1.7022,-1.7311,-1.7488,-1.7705,-1.7902,-1.7964,0.0,0.0,0.0,0.0,-1.9803,-2.0043,-2.0422,-2.0782,-2.1015,-2.1104,-2.1171,-2.1149,-2.1166,-2.0519,0.0,-1.768,-1.7573,-1.7721,0.0,0.0,0.0,0.0,-1.6609,-1.6739,-1.6002,-1.5511,-1.5578,-1.5396,-1.529,-1.5375,-1.4783,-1.3954,-1.287,-1.2187,-1.134,-1.0242,-1.0159,-0.9724,-0.8847,0.0,0.0,0.0,0.0,0.0,0.0,0.0,0.0,0.0,0.0,0.0,0.0,0.0,0.0,0.0,0.0,0.0,0.0,0.0,0.0,0.0,0.0,0.0,0.0,0.0,0.0,0.0,0.0,0.0,-1.0404,-1.064,0.0,0.0,0.0,0.0,-1.0716,-1.0566,-1.0714,-1.1217,-1.1581,-1.1891,-1.2228,-1.2549,-1.293,-1.3263,-1.3486,-1.3834,-1.4378,-1.4567,-1.5033,-1.5689,-1.5753,-1.6083,-1.6728,-1.6868,-1.7234,-1.7615,-1.7049,-1.6672,-1.6508,-1.6926,-1.7146,-1.7303,-1.784,-1.8075,-1.8215,-1.8558,-1.8864,-1.9119,-1.9473,-1.9503,-1.9455,-1.9263,-1.9361,0.0,0.0,-2.0733,-2.1563,-2.1952,-2.2768,-2.3556,-2.3816,-2.355,-2.3078,-2.2542,-2.2013,-2.1546,0.0,-1.9939,-1.9038,-1.9173,0.0,-1.7135,-1.7202,-1.7279,-1.7369,-1.7443,-1.6731,-1.627,-1.633,-1.5653,-1.5231,-1.5295,-1.526,-1.4545,-1.2894,-1.2757,-1.1969,-1.0273,-1.0191,-0.9792,-0.8909,-0.8849,0.0,0.0,0.0,0.0,0.0,0.0,0.0,0.0,0.0,0.0,0.0,0.0,0.0,0.0,0.0,0.0,0.0,0.0,0.0,0.0,0.0,0.0,0.0,0.0,0.0,0.0,0.0,0.0,-1.1311,-1.1213,0.0,-1.1264,-1.1333,-1.138,-1.1432,-1.1432,-1.1521,-1.1838,-1.2019,-1.2244,-1.2726,-1.3197,-1.3678,-1.4099,-1.4621,-1.5097,-1.5615,-1.5897,-1.6329,-1.6902,-1.7115,-1.739,-1.7619,-1.7881,-1.7912,-1.7816,-1.7821,-1.7862,-1.7934,-1.8272,-1.8357,-1.8352,-1.8833,-1.8891,-1.8741,-1.9246,-1.9351,-1.9313,-1.953,-1.9759,-1.9866,-2.0096,-2.04,-2.0768,-2.116,-2.1664,-2.2217,-2.2627,-2.3063,-2.3533,-2.3819,-2.3897,-2.3927,-2.3908,-2.3457,-2.3076,-2.3146,-2.1693,-2.0498,-2.0696,-1.9916,-1.9339,-1.9434,-1.8659,-1.808,-1.8135,-1.7472,-1.6827,-1.6314,-1.6043,-1.5709,-1.5212,-1.5217,-1.4525,-1.2842,-1.2742,-1.1973,-1.0275,-1.0191,-1.0058,-0.9746,-0.9236,-0.8644,0.0,0.0,0.0,0.0,0.0,0.0,0.0,0.0,0.0,0.0,0.0,0.0,0.0,0.0,0.0,0.0,0.0,0.0,0.0,0.0,0.0,0.0,0.0,0.0,0.0,0.0,-1.164,-1.2048,-1.1935,-1.1899,-1.1988,-1.2109,-1.2147,-1.2248,-1.234,-1.2558,-1.2885,-1.2885,-1.3057,-1.3492,-1.3926,-1.4373,-1.4736,-1.5272,-1.5774,-1.6319,-1.6539,-1.6994,-1.7521,-1.7746,-1.8046,-1.8275,-1.8562,-1.8605,-1.8569,-1.8838,-1.9117,-1.9414,-1.9122,-1.8977,-1.8987,-1.939,-1.945,-1.9473,-2.0176,-2.0359,-2.0283,-2.0655,-2.0947,-2.1186,-2.1417,-2.1787,-2.2173,-2.2394,-2.2735,-2.3142,-2.3559,-2.3818,-2.4087,-2.4423,-2.4514,-2.4625,-2.4941,-2.4555,-2.4223,-2.4523,-2.2912,-2.1578,-2.178,-2.1261,-2.0782,-2.0623,-1.9767,-1.9066,-1.8852,-1.8188,-1.7552,-1.7027,-1.6525,-1.6035,-1.5506,-1.5267,-1.4551,-1.3155,-1.2824,-1.2034,-1.062,-1.0304,-1.0188,-1.0201,-0.9388,-0.8944,-0.8887,0.0,0.0,0.0,0.0,0.0,0.0,0.0,0.0,0.0,0.0,0.0,0.0,0.0,0.0,0.0,0.0,0.0,0.0,0.0,0.0,0.0,0.0,0.0,-1.2128,-1.247,-1.2632,-1.2561,-1.2698,-1.2766,-1.2584,-1.2731,-1.2978,-1.3207,-1.3358,-1.3669,-1.413,-1.423,-1.4316,-1.4487,-1.4699,-1.4932,-1.511,-1.5343,-1.5737,-1.6352,-1.6352,-1.6809,-1.7557,-1.7557,-1.7988,-1.8711,-1.8701,-1.9151,-1.9887,-1.9887,-2.0319,-2.0839,-1.9369,-1.8945,-1.9317,-1.9533,-1.9983,-2.0483,-2.1394,-2.1882,-2.2252,-2.2804,-2.3189,-2.3393,-2.335,-2.3574,-2.3824,-2.3703,-2.4013,-2.4446,-2.4918,-2.5217,-2.5524,-2.5824,-2.557,-2.533,-2.5578,-2.5221,-2.4942,-2.5272,-2.3636,-2.2255,-2.2432,-2.196,-2.1298,-2.0588,-2.0558,0.0,-1.9619,-1.8918,-1.8472,-1.8495,-1.7085,-1.6149,-1.6195,-1.5453,-1.4642,-1.3847,-1.3067,-1.2227,-1.1326,-1.0541,-1.0154,-1.02,-0.9371,-0.8943,-0.8935,0.0,0.0,0.0,0.0,0.0,0.0,0.0,0.0,0.0,0.0,0.0,0.0,0.0,0.0,0.0,0.0,0.0,0.0,0.0,0.0,0.0,0.0,-1.2789,-1.259,-1.2577,-1.2787,-1.3274,-1.3312,-1.3491,-1.3887,-1.386,-1.387,-1.3957,-1.3811,-1.3896,-1.4145,-1.423,-1.441,-1.4801,-1.5041,-1.5393,-1.5812,-1.6129,-1.6613,-1.7103,-1.7414,-1.782,-1.8372,-1.8668,-1.8902,-1.9156,-1.9437,-1.9718,-1.9887,-2.0237,-2.0605,-2.0945,-2.014,-2.0271,-2.0758,-2.0768,-2.1301,-2.2042,-2.2106,-2.2426,-2.2799,-2.2978,-2.32,-2.3485,-2.3906,-2.4247,-2.4626,-2.4967,-2.5364,-2.5744,-2.5727,-2.5967,-2.6154,-2.5938,-2.595,-2.6081,-2.6269,-2.5942,-2.5665,-2.5917,-2.5115,-2.4312,-2.4041,-2.2962,-2.2116,-2.2021,-2.1607,0.0,-2.0319,-2.0099,-1.9563,-1.8406,-1.7404,-1.6605,-1.6017,-1.5292,-1.4509,-1.3702,-1.3444,-1.2699,-1.1279,-1.1027,-1.0655,-1.014,-0.9903,-0.9792,0.0,0.0,0.0,0.0,0.0,0.0,0.0,0.0,0.0,0.0,0.0,0.0,0.0,0.0,0.0,0.0,0.0,0.0,0.0,0.0,0.0,0.0,-1.3664,-1.3569,-1.338,-1.3149,-1.3237,-1.3948,-1.3976,-1.4048,-1.4435,-1.451,-1.4504,-1.4504,-1.4547,-1.4538,-1.4706,-1.4837,-1.5078,-1.5501,-1.5884,-1.6301,-1.6676,-1.7099,-1.7511,-1.7846,-1.8262,-1.8768,-1.9179,-1.9661,-1.9928,-2.0093,-2.0372,-2.0542,-2.0702,-2.0956,-2.1314,0.0,0.0,0.0,0.0,0.0,-2.25,-2.2898,-2.3065,-2.3216,-2.3436,-2.3685,-2.3987,-2.4307,-2.4671,-2.5041,-2.5429,-2.5627,-2.6001,-2.6404,-2.6388,-2.6684,-2.6848,-2.6412,-2.6545,-2.6714,-2.6605,-2.6487,-2.639,-2.6575,-2.6115,0.0,-2.5482,-2.4248,-2.3137,-2.256,-2.2179,-2.1714,-2.097,-2.0673,-2.017,-1.9265,-1.8176,-1.7194,-1.6392,-1.5633,0.0,0.0,0.0,-1.2839,-1.1219,-1.1156,0.0,0.0,0.0,-1.0083,-1.0112,0.0,0.0,0.0,-0.9219,-0.945,0.0,0.0,0.0,0.0,0.0,0.0,0.0,0.0,0.0,0.0,0.0,0.0,0.0,0.0,0.0,0.0,-1.4183,-1.4375,-1.4388,-1.4111,-1.4059,-1.4457,-1.4523,-1.4553,-1.4626,-1.4889,-1.5065,-1.5101,-1.5372,-1.554,-1.554,0.0,0.0,0.0,0.0,-1.7255,-1.7533,-1.7969,-1.8316,-1.8559,-1.9084,-1.9521,-1.9947,-2.0455,-2.0866,-2.1237,-2.1354,-2.159,-2.1968,-2.2041,-2.2379,-2.283,-2.21,-2.1973,-2.232,-2.3214,-2.3448,-2.3423,-2.4067,0.0,0.0,-2.4771,-2.5145,-2.5425,-2.5497,-2.5908,-2.6293,-2.6116,-2.6397,-2.6787,-2.7044,-2.7444,-2.7615,-2.7147,-2.7288,-2.7401,-2.6823,-2.6928,-2.7142,-2.7166,-2.6784,-2.6475,-2.6556,-2.5535,-2.4201,-2.2781,-2.2661,-2.2443,-2.1638,-2.1007,-2.0588,-2.0476,0.0,0.0,-1.7082,-1.6244,-1.547,-1.4748,-1.3949,-1.2844,-1.1412,-1.1168,-1.0759,-1.013,-1.0012,-0.9991,-0.9982,-1.0048,-1.0078,-1.0098,-1.0158,-1.0187,0.0,0.0,0.0,0.0,0.0,0.0,0.0,0.0,0.0,0.0,0.0,0.0,0.0,0.0,0.0,-1.48,-1.4914,-1.5087,-1.5375,-1.5242,-1.5006,-1.4867,-1.4853,-1.5057,-1.5584,-1.5694,-1.5826,-1.6074,-1.6155,-1.6279,-1.6556,-1.6615,-1.6733,-1.698,-1.7224,-1.7525,-1.7779,-1.8213,-1.8646,-1.9084,0.0,0.0,-2.0455,-2.0857,-2.1349,-2.1753,-2.2096,-2.2544,-2.3008,-2.3472,-2.3985,-2.4374,-2.3436,-2.2949,-2.2889,-2.3494,-2.394,-2.4337,-2.4874,-2.5029,-2.5031,-2.5666,-2.5727,-2.5742,-2.6169,-2.6614,0.0,-2.7463,-2.7869,-2.8186,-2.8015,-2.8249,-2.8394,-2.7882,-2.8125,-2.8243,-2.749,-2.7604,-2.7741,-2.7223,-2.7203,-2.7108,-2.6603,-2.5877,-2.5065,-2.4272,-2.4177,-2.3728,-2.2455,-2.2175,-2.1619,-2.0391,-1.9395,-1.8522,-1.7766,-1.6443,-1.5574,-1.5416,-1.4118,-1.3192,-1.2889,-1.1623,-1.0904,-1.0807,-1.0174,-0.9869,-0.9922,-0.9927,-0.996,-1.003,-1.0087,-1.0142,0.0,0.0,0.0,0.0,0.0,0.0,0.0,0.0,0.0,0.0,0.0,-1.459,0.0,0.0,-1.5511,-1.5755,-1.5779,-1.5886,-1.6229,-1.6163,-1.6019,-1.5679,-1.5657,-1.5782,-1.6111,-1.614,-1.6294,-1.6544,-1.6558,-1.6735,-1.6911,-1.707,-1.7331,-1.7679,-1.7948,-1.8311,-1.8669,-1.9196,-1.955,-1.9735,-2.0438,-2.0875,-2.1135,-2.1816,-2.232,-2.248,-2.2945,-2.334,-2.379,-2.4429,-2.497,-2.5309,-2.5172,-2.472,-2.4198,-2.4691,-2.4902,-2.5106,-2.5781,-2.5926,-2.5815,-2.6099,-2.6257,-2.6397,-2.6693,-2.7063,-2.7473,-2.7974,-2.8381,-2.8701,-2.874,-2.9014,-2.9124,-2.8674,-2.887,-2.8996,-2.826,-2.8095,-2.7998,-2.7689,-2.7506,-2.733,-2.6996,-2.6726,-2.6202,-2.5189,-2.4768,-2.4302,-2.3647,-2.2869,-2.1944,-2.0818,-2.0011,-1.9092,-1.79,-1.6374,-1.551,-1.5551,-1.4447,-1.3621,-1.3231,-1.242,-1.1828,-1.1462,-1.0695,-1.0317,-1.0354,-0.9972,-0.9832,-0.99,-0.9943,-0.9989,0.0,0.0,0.0,0.0,0.0,0.0,0.0,0.0,-1.4444,-1.4915,-1.5232,-1.5545,-1.5997,-1.6063,-1.6171,-1.6598,-1.668,-1.673,-1.6926,-1.6921,-1.6943,-1.6729,-1.6536,-1.6485,-1.6551,-1.664,-1.6758,-1.7018,-1.7018,-1.7189,-1.7447,-1.7709,-1.8037,-1.8497,-1.8776,-1.9204,-1.9762,-2.0119,-2.0425,-2.0767,-2.1491,-2.1986,-2.224,-2.3034,-2.3428,-2.3495,-2.3998,-2.4388,-2.4759,-2.5396,-2.5819,-2.6116,-2.6697,-2.6444,-2.5898,-2.6095,-2.6046,-2.5949,-2.67,-2.677,-2.6572,-2.6685,-2.6889,-2.7058,-2.7166,-2.7388,-2.7725,-2.8137,-2.8541,-2.892,-2.9275,-2.9605,-2.9751,-2.941,-2.9632,-2.975,-2.903,-2.8704,-2.8476,-2.8357,-2.7923,-2.7601,-2.7601,-2.7618,-2.7175,-2.5913,-2.527,-2.4835,-2.4608,-2.3501,-2.2389,-2.1468,-2.0704,-1.9577,-1.7804,-1.6543,-1.5724,-1.5464,-1.4833,-1.4111,-1.3317,-1.3136,-1.2751,-1.2115,-1.1367,-1.0913,-1.0776,-1.0176,-0.9843,-0.9757,-0.9784,-0.9856,-1.0819,-1.1347,-1.2062,-1.3104,-1.3459,-1.3755,0.0,0.0,-1.5292,-1.6019,-1.6191,-1.6468,-1.7313,-1.7274,-1.7204,-1.7618,-1.7486,-1.7373,-1.7468,-1.7522,-1.7636,-1.7842,-1.7274,-1.6854,-1.7056,-1.7342,-1.7553,-1.7949,-1.7972,-1.8157,-1.8617,-1.8656,-1.8864,-1.943,-1.9471,-1.9762,-2.0201,-2.0292,-2.0919,-2.2181,-2.2272,-2.3016,-2.4205,-2.4297,-2.4616,-2.5001,-2.5423,-2.5975,-2.6603,-2.6417,-2.6843,-2.743,-2.7079,-2.7262,-2.7713,-2.7297,-2.7037,-2.6938,-2.7485,-2.7637,-2.7583,-2.8041,-2.7736,-2.7267,-2.7661,-2.778,-2.784,-2.825,-2.8605,-2.8967,-2.9382,-2.9726,-2.9984,-3.0048,-3.0452,-3.0537,-2.9766,-2.9779,-2.9785,-2.9175,-2.8647,-2.8315,-2.838,-2.7903,-2.7278,-2.6567,-2.6458,-2.5994,-2.4676,-2.4364,-2.3673,-2.2149,-2.1334,-1.9972,-1.7702,-1.7433,-1.6754,-1.5324,-1.5145,-1.477,-1.402,-1.3306,-1.2877,-1.2794,-1.2059,-1.1365,-1.0711,-1.063,-1.0267,-0.9633,-0.968,-0.9777,-1.2056,-1.2789,0.0,0.0,-1.4672,-1.5194,-1.5797,-1.6045,-1.6353,-1.6893,-1.7175,-1.7456,-1.7992,-1.8129,-1.8269,0.0,-1.8442,-1.8386,-1.8549,-1.8506,-1.8569,-1.8535,-1.8292,-1.8084,-1.7773,-1.7965,-1.8202,-1.8442,-1.8635,-1.892,-1.9212,-1.9387,-1.9754,-2.034,-2.0542,-2.0922,-2.1596,-2.1781,-2.2242,-2.2973,-2.3436,-2.3982,-2.469,-2.5148,-2.5782,-2.6483,-2.7137,-2.7414,-2.7561,-2.7999,-2.8131,-2.815,-2.8476,-2.8637,-2.8609,-2.7868,-2.7677,-2.7832,-2.8172,-2.8282,-2.8392,-2.8605,-2.8606,-2.8497,-2.8679,-2.8562,-2.8465,-2.8981,-2.8996,-2.9013,-2.9428,-2.977,-3.0017,-3.0146,-3.0584,-3.0828,-3.047,-3.0285,-3.0122,-2.9836,-2.9367,-2.8853,-2.8388,-2.8192,-2.7851,-2.7165,-2.6731,-2.609,-2.5041,-2.4541,-2.3714,-2.22,-2.0964,-1.9873,-1.8905,-1.802,-1.7188,-1.6515,-1.5598,-1.4947,-1.4647,-1.3888,-1.3478,-1.3478,-1.2753,-1.2222,-1.1925,-1.1488,-1.0893,-1.0177,-1.0213,-1.0029,-1.3195,0.0,0.0,-1.5043,-1.5663,-1.6294,-1.671,-1.6951,-1.7261,-1.7709,-1.8011,-1.8267,-1.8674,-1.8812,-1.8978,-1.9271,-1.9264,-1.9175,-1.9347,-1.9288,-1.9196,-1.902,-1.9196,-1.9104,-1.8643,-1.8727,-1.8827,-1.902,-1.9288,-1.9512,-1.9904,-2.018,-2.0617,-2.1266,-2.1488,-2.1995,-2.2735,-2.3036,-2.3467,-2.3862,-2.4516,-2.5123,-2.549,-2.6214,-2.6976,-2.7878,-2.8336,-2.8505,-2.8605,-2.9272,-2.9359,-2.9114,-2.9758,-2.9884,-2.9625,-2.8853,-2.8739,-2.8887,-2.8837,-2.9012,-2.9273,-2.9186,-2.9283,-2.9508,-2.9551,-2.9355,-2.9182,-2.9493,-2.9403,-2.9296,-2.946,-2.977,-3.006,-3.0189,-3.0526,-3.0871,-3.0912,-3.0634,-3.0438,-3.0513,-3.0029,-2.9434,-2.8905,-2.8561,-2.8213,-2.7661,-2.6964,-2.6229,-2.5599,-2.4669,-2.3562,-2.2101,-2.096,-2.0135,-1.9759,-1.8665,-1.7802,-1.7361,-1.6256,-1.5417,-1.498,-1.4453,-1.4068,-1.3841,-1.3338,-1.2975,-1.2732,-1.2237,-1.16,-1.0848,-1.066,-1.0299,0.0,0.0,-1.5585,-1.6103,-1.643,-1.6759,-1.7596,-1.7769,-1.797,-1.8514,-1.8692,-1.8931,-1.9618,-1.941,-1.9314,-2.0155,-1.992,-1.9571,-1.9587,-1.9587,-1.9587,-1.9587,-1.9587,-1.9671,0.0,-1.9671,-1.9587,-1.9587,-1.9754,-2.0171,-2.0805,-2.1128,-2.1488,-2.2141,-2.2443,-2.2735,-2.3027,-2.3505,-2.4181,-2.5049,-2.5605,-2.6306,-2.72,-2.7682,-2.8376,-2.9058,-2.8843,-2.9227,-3.0062,-3.0062,-3.0233,-3.0545,-3.0545,-3.0752,-3.0882,-3.0718,-3.0348,-2.9981,-2.9592,-2.9904,-3.0389,-2.993,-2.9791,-2.9884,-3.0155,-3.0113,-2.9879,-2.9682,-2.9844,-2.999,-2.9603,-2.9858,-3.0189,-3.0189,-3.0443,-3.0733,-3.0871,-3.0935,-3.1021,-3.1223,-3.0683,-3.0211,-3.0319,-2.9108,-2.8101,-2.8083,-2.7451,-2.6811,-2.6335,-2.5007,-2.3511,-2.1962,-2.1753,-2.1133,-1.9634,-1.946,-1.8815,-1.7298,-1.7157,-1.6463,-1.4966,-1.4879,-1.4496,-1.3731,-1.3743,-1.3392,-1.2613,-1.2647,-1.2258,-1.1456,-1.0818,-1.0479,0.0,0.0,-1.6929,-1.7463,-1.8057,-1.8599,-1.8894,-1.8901,-1.8832,-1.9046,-1.9073,-1.9144,-1.9327,-1.9507,-1.9764,-2.0272,-2.0271,-2.0179,-2.052,-2.0555,-2.0555,-2.0555,-2.0555,0.0,0.0,0.0,0.0,-2.0668,-2.0954,-2.1296,-2.1955,-2.2263,-2.2735,-2.3404,-2.3623,-2.404,-2.4785,-2.4986,-2.5437,-2.635,-2.7108,-2.7849,-2.8279,-2.9134,-2.9602,-2.9862,-3.0502,-3.0668,-3.07,-3.1269,-3.1365,-3.1165,-3.1355,-3.1551,-3.1711,-3.1723,-3.1721,-3.1734,-3.1084,-3.0671,-3.0552,-3.0816,-3.071,-3.0544,-3.1066,-3.0955,-3.0723,-3.099,-3.0908,-3.0588,-3.0273,-3.0419,-3.0575,-3.026,-3.0401,-3.0609,-3.0733,-3.0895,-3.1015,-3.1078,-3.0992,-3.0785,-3.0347,-2.989,-2.9296,-2.8271,-2.7076,-2.6219,-2.6038,-2.4712,-2.3588,-2.3099,-2.2134,-2.1142,-2.0189,-1.959,-1.8861,-1.7866,-1.7308,-1.6772,-1.6237,-1.5243,-1.4573,-1.4298,-1.3866,-1.352,-1.3261,-1.3288,-1.2904,-1.2165,-1.1986,-1.1349,-1.6421,-1.7245,-1.8012,-1.8499,-1.9067,-1.9545,-1.949,-1.9436,-1.9388,-1.9326,-1.9291,-1.9245,-1.9397,-1.9638,-1.9867,-2.025,-2.0341,-2.0509,-2.0758,-2.0908,-2.0997,-2.0997,-2.1212,-2.1499,0.0,0.0,0.0,-2.171,-2.1999,-2.2348,-2.303,-2.3342,-2.3813,-2.4418,-2.4727,-2.5141,-2.58,-2.6091,-2.6658,-2.762,-2.8196,-2.885,-2.9301,-2.9943,-3.0397,-3.0758,-3.1395,-3.1644,-3.1761,-3.2262,-3.2369,-3.2235,-3.2369,-3.2435,-3.2457,-3.2543,-3.2695,-3.2792,-3.2064,-3.1439,-3.1083,-3.1411,-3.1212,-3.1014,-3.1567,-3.1566,-3.1409,-3.1741,-3.1576,-3.1278,-3.0991,-3.1098,-3.1167,-3.0718,-3.0711,-3.0799,-3.0717,-3.0814,-3.0895,-3.0935,-3.1078,-3.1043,-3.0569,-3.0153,-2.9479,-2.8202,-2.6944,-2.6094,-2.5917,-2.4787,-2.3898,-2.3699,-2.2552,-2.1507,-2.082,-2.0024,-1.9247,-1.8498,-1.7697,-1.7126,-1.687,-1.5897,-1.5078,-1.4534,-1.411,-1.3769,-1.3529,-1.3528,-1.3287,-1.2824,-1.2594,-1.1968,-1.7122,-1.8062,-1.8946,-1.923,-1.9479,-1.9621,-1.965,-1.9624,-1.9571,-1.9314,-1.9283,-1.9384,0.0,0.0,-1.9687,-2.0159,-2.03,-2.049,-2.0508,-2.0846,-2.1096,0.0,0.0,0.0,0.0,0.0,0.0,-2.2799,0.0,-2.3333,-2.4019,-2.4249,-2.463,-2.5323,-2.5606,-2.5897,-2.6197,-2.6965,-2.782,-2.8757,-2.885,-2.9301,-3.0216,-3.0216,-3.0758,-3.1661,-3.1749,-3.2288,-3.3081,-3.3167,-3.336,-3.3626,-3.36,-3.3449,-3.3091,-3.326,-3.3329,-3.3269,-3.2665,-3.2235,-3.1911,-3.1647,-3.1392,-3.1235,-3.1582,-3.1868,-3.1972,-3.1896,-3.1935,-3.2002,-3.1725,-3.1854,-3.1913,-3.1471,-3.1347,-3.1248,-3.0825,-3.0725,-3.0733,-3.0871,-3.0952,-3.0975,-3.0975,-2.9914,-2.8772,-2.7958,-2.7163,-2.6472,-2.6004,-2.5234,-2.4449,-2.3716,-2.2982,-2.2231,-2.1447,-2.0679,-1.9911,-1.9126,-1.8365,-1.7611,-1.6859,-1.6745,-1.5994,-1.4543,-1.4442,-1.4071,-1.3447,-1.3413,-1.3379,-1.3379,-1.268,-1.237,-1.8535,-1.9174,-1.965,-2.0199,-2.0633,-2.0801,-2.0562,-2.0407,-2.0081,-1.9448,-1.915,-1.9056,0.0,0.0,0.0,-1.9878,-2.054,0.0,-2.1435,-2.1826,0.0,0.0,0.0,-2.3037,-2.3758,-2.4003,0.0,0.0,-2.4326,-2.4335,-2.5218,-2.5344,-2.5596,-2.6207,-2.6476,-2.6764,-2.6965,-2.7904,-2.8571,-2.885,-2.9485,-2.9943,-3.0216,-3.0937,-3.1484,-3.1749,-3.2463,-3.2896,-3.3154,-3.3823,-3.4152,-3.4232,-3.4218,-3.4337,-3.4258,-3.3751,-3.3678,-3.3959,-3.3646,-3.3225,-3.2832,-3.2645,-3.225,-3.1767,-3.1905,-3.194,-3.2079,-3.2501,-3.2632,-3.2619,-3.2408,-3.2415,-3.2353,-3.2039,-3.1544,-3.1176,-3.1215,-3.0865,-3.0609,-3.0733,-3.0871,-3.0912,-3.0912,-3.0163,-2.929,-2.8568,-2.7794,-2.7075,-2.6489,-2.5664,-2.4858,-2.4118,-2.3409,-2.2449,-2.1126,-2.0824,-2.0168,-1.8874,-1.8622,-1.8162,-1.7446,-1.6847,-1.6356,-1.5971,-1.4886,-1.4251,-1.4066,-1.353,-1.3244,-1.3261,-1.3109,-1.2754,-1.9343,-1.9847,-2.0295,-2.0881,-2.1078,-2.1013,-2.078,-2.0318,-1.9806,-1.9261,-1.8963,0.0,0.0,0.0,0.0,0.0,0.0,0.0,-2.1457,-2.1902,-2.2394,0.0,-2.3319,0.0,-2.4536,-2.4957,-2.5353,0.0,-2.5392,-2.5266,-2.5984,-2.6091,-2.6294,-2.6784,-2.6965,-2.7336,-2.7914,-2.8477,-2.8943,-2.9324,-2.9943,-3.0306,-3.0601,-3.1306,-3.1849,-3.2025,0.0,-3.324,-3.3398,-3.4147,-3.4481,-3.4703,-3.4955,-3.5058,-3.5032,-3.4389,-3.4231,-3.4413,-3.4027,-3.3858,-3.3694,-3.351,-3.2797,-3.2032,-3.237,-3.2224,-3.2109,-3.2734,-3.2897,-3.2911,-3.2958,-3.3051,-3.2976,-3.2611,-3.2283,-3.1984,-3.1839,-3.1331,-3.0865,-3.0717,-3.0773,-3.0831,-3.0871,-3.0235,-2.9482,-2.8779,-2.7988,-2.7217,-2.6499,-2.5782,-2.5146,-2.4728,-2.3725,-2.2768,-2.1948,-2.1239,-2.0494,-1.966,-1.8959,-1.8386,-1.7987,-1.7249,-1.6696,-1.6365,-1.5553,-1.4828,-1.4181,-1.375,-1.3403,-1.3105,-1.3157,-1.2974,-1.9875,-2.0393,-2.0934,-2.1302,-2.1085,-2.0739,-2.0455,-1.9852,-1.9224,-1.8833,0.0,-1.8302,-1.8483,0.0,-1.8765,-1.9174,0.0,-2.0296,-2.1075,-2.1608,-2.2244,-2.3138,-2.3832,-2.4433,-2.5202,-2.5836,-2.6383,-2.6587,-2.6229,-2.6229,-2.6587,-2.6683,-2.6992,-2.7619,-2.7629,-2.8094,-2.9036,-2.9064,-2.9413,-3.0079,-3.0262,-3.0589,-3.1074,-3.1584,-3.2025,-3.2475,-3.2982,-3.3398,-3.3713,-3.4314,-3.4729,-3.5154,-3.5562,-3.5637,-3.5493,-3.5051,-3.4899,-3.4853,-3.4239,-3.416,-3.438,-3.4118,-3.3151,-3.227,-3.2838,-3.2528,-3.2109,-3.2679,-3.2897,-3.3005,-3.3346,-3.3555,-3.3601,-3.3225,-3.3129,-3.2998,-3.255,-3.1872,-3.1232,-3.0717,-3.0609,-3.0651,-3.079,-3.0239,-2.9515,-2.8853,-2.8027,-2.7184,-2.6399,-2.576,-2.5346,-2.5263,-2.3996,-2.3159,-2.3059,-2.172,-2.0877,-2.0777,-1.9448,-1.8578,-1.8381,-1.7765,-1.7109,-1.6347,-1.6249,-1.5556,-1.428,-1.4083,-1.3658,-1.3108,-1.301,-1.2995,-2.0632,-2.1051,-2.1302,-2.1392,-2.1253,-2.0839,-2.0191,-1.965,0.0,0.0,0.0,-1.7555,-1.7417,-1.7784,0.0,-1.8657,0.0,0.0,0.0,0.0,-2.2872,0.0,0.0,0.0,0.0,0.0,0.0,0.0,0.0,-2.7699,-2.7441,-2.7636,-2.8192,-2.9331,-2.9537,-2.9925,-3.0237,-3.0303,-3.0464,-3.0836,-3.0798,-3.1139,-3.1572,-3.2025,-3.2376,-3.2723,-3.33,0.0,-3.3797,-3.466,-3.499,-3.5154,-3.5831,-3.6084,-3.617,-3.5794,-3.562,-3.5438,-3.4882,-3.4519,-3.438,-3.4118,-3.3461,-3.2862,-3.2974,-3.2528,-3.2109,-3.2539,-3.2773,-3.2951,-3.3256,-3.345,-3.3575,-3.3687,-3.3304,-3.2886,-3.2998,-3.2142,-3.1117,-3.0422,-3.0274,-3.0274,-3.0333,-3.0218,-2.9889,-2.9149,-2.8369,-2.7646,-2.6869,-2.6274,-2.5634,-2.497,-2.4131,-2.3358,-2.275,-2.1929,-2.119,-2.0582,-2.0291,-1.9602,-1.8362,-1.8198,-1.7805,-1.7125,-1.6464,-1.5994,-1.5733,-1.4448,-1.3779,-1.365,-1.3089,-1.2848,-2.1051,-2.1293,-2.1338,-2.1298,-2.1021,-2.0594,-1.9787,0.0,0.0,0.0,0.0,-1.7197,-1.6915,0.0,0.0,0.0,0.0,0.0,0.0,0.0,0.0,0.0,0.0,0.0,0.0,0.0,0.0,0.0,0.0,-2.8504,-2.8385,-2.868,-2.9168,-2.9785,-3.0188,-3.0577,-3.0782,-3.1122,-3.1375,-3.154,-3.1607,-3.1722,-3.2159,-3.2335,-3.2562,-3.2896,-3.3471,-3.381,-3.3979,-3.4743,-3.5086,-3.5168,-3.5992,-3.6325,-3.6322,-3.6088,-3.585,-3.5595,-3.5039,-3.4606,-3.4438,-3.4435,-3.4036,-3.3513,-3.3397,-3.297,-3.2494,-3.2505,-3.2648,-3.2827,-3.3096,-3.3309,-3.345,-3.3642,-3.354,-3.3337,-3.3145,-3.2394,-3.154,-3.091,-3.0451,-3.0189,-3.0189,-3.0189,-2.9943,-2.9206,-2.8469,-2.7709,-2.6857,-2.6211,-2.5677,-2.5406,-2.4701,-2.3947,-2.3194,-2.2443,-2.1679,-2.0917,-2.0451,-1.9932,-1.9208,-1.848,-1.7947,-1.7607,-1.6887,-1.6314,-1.5943,-1.5204,-1.4459,-1.3742,-1.3424,-1.307,-2.1257,-2.1346,-2.1264,-2.1103,-2.0677,-2.0072,-1.9347,-1.8646,0.0,0.0,-1.6987,-1.679,-1.6587,0.0,0.0,0.0,0.0,0.0,0.0,0.0,0.0,0.0,0.0,0.0,0.0,0.0,0.0,0.0,0.0,0.0,-2.9352,-2.9846,-3.0197,-3.0296,-3.08,-3.1094,-3.1386,-3.1876,-3.2106,-3.2369,-3.2322,-3.238,-3.2623,-3.258,-3.276,-3.3154,-3.3556,-3.381,-3.416,-3.4825,-3.5086,-3.5154,-3.5992,-3.6325,-3.6415,-3.6227,-3.5949,-3.5536,-3.5125,-3.4721,-3.4414,-3.4735,-3.4507,-3.4002,-3.3905,-3.3442,-3.2862,-3.2655,-3.2576,-3.2633,-3.2935,-3.315,-3.3309,-3.345,-3.371,-3.3705,-3.303,-3.2481,-3.1925,-3.1283,-3.0609,-3.0162,-3.0162,-3.0103,-2.988,-2.931,-2.8461,-2.7615,-2.6864,-2.6057,-2.56,-2.5733,-2.5118,-2.4365,-2.358,-2.2798,-2.1988,-2.1231,-2.059,-2.0159,-1.9999,-1.893,-1.8183,-1.788,-1.7322,-1.6658,-1.5957,-1.5789,-1.5153,-1.4056,-1.3913,-1.3447,-2.1076,-2.1163,-2.1154,-2.1117,-2.0255,-1.9301,-1.8871,0.0,0.0,-1.6449,-1.6128,-1.5998,-1.6133,-1.6223,0.0,0.0,0.0,0.0,0.0,0.0,0.0,0.0,0.0,0.0,0.0,0.0,0.0,0.0,0.0,0.0,-3.0364,-3.0852,-3.1294,-3.1781,-3.2107,-3.242,-3.2744,-3.2759,-3.2916,-3.3229,-3.296,-3.2923,-3.311,-3.315,-3.3195,-3.3398,-3.3641,-3.381,0.0,-3.4825,-3.5086,-3.5168,-3.5831,-3.6246,-3.6391,-3.6573,-3.6115,-3.5447,-3.5536,-3.4939,-3.4196,-3.4616,-3.4376,-3.409,-3.4475,-3.3758,-3.2762,-3.3066,-3.2762,-3.2453,-3.2594,-3.2866,-3.3203,-3.345,-3.3607,-3.3502,-3.2782,-3.2208,-3.1613,-3.0889,-3.0315,-2.9902,-2.9902,-2.983,-2.971,-2.9645,-2.8399,-2.7416,-2.7352,-2.6166,-2.5333,-2.5371,-2.4692,-2.3971,-2.3301,-2.2561,-2.1823,-2.1151,-2.1055,-2.0703,-2.0031,-1.9826,-1.9113,-1.7825,-1.7574,-1.7125,-1.6433,-1.5769,-1.5358,-1.5218,-1.4624,-1.3945,-2.075,-2.075,-2.0695,-2.0457,-1.9842,-1.9072,-1.8183,0.0,0.0,-1.5996,-1.5832,-1.5814,-1.5723,-1.5889,-1.6269,0.0,0.0,0.0,0.0,0.0,0.0,0.0,0.0,0.0,0.0,0.0,0.0,0.0,0.0,0.0,-3.1142,-3.152,-3.1823,-3.2015,-3.2454,-3.288,-3.3181,-3.347,-3.3746,-3.3941,-3.3887,-3.3732,-3.3666,-3.3424,-3.3483,-3.3556,-3.3628,-3.3894,0.0,-3.4908,-3.5086,-3.5168,-3.5831,-3.6246,-3.6405,-3.6642,-3.6157,-3.5373,-3.5461,-3.4911,-3.4128,-3.4414,-3.4441,-3.4427,-3.4401,-3.3875,-3.3231,-3.2957,-3.2581,-3.2302,-3.2453,-3.2812,-3.3096,-3.3256,-3.3398,-3.3527,-3.3188,-3.2684,-3.2079,-3.1358,-3.0699,-3.0119,-2.9717,-2.9608,-2.9563,-2.9563,-2.8698,-2.7812,-2.7354,-2.6363,-2.552,-2.5069,-2.4923,-2.4553,-2.3671,-2.2972,-2.2255,-2.1453,-2.098,-2.0618,-2.0319,-1.9877,-1.9405,-1.8825,-1.7919,-1.7299,-1.7046,-1.6347,-1.5801,-1.5396,-1.513,-1.4623,-1.998,-1.998,-1.9916,-1.9641,-1.9164,-1.8513,0.0,0.0,0.0,-1.5785,-1.5613,-1.5552,-1.541,-1.5664,-1.6064,-1.6641,0.0,-1.8554,0.0,0.0,0.0,0.0,0.0,0.0,0.0,0.0,0.0,0.0,0.0,0.0,-3.1721,-3.2026,-3.2128,-3.2128,-3.2667,-3.3081,-3.3381,-3.3878,-3.4162,-3.4433,-3.4547,-3.4393,-3.3998,-3.3863,-3.3721,-3.3713,-3.3713,-3.3979,0.0,-3.4908,-3.5086,-3.5168,-3.5737,-3.6152,-3.6325,-3.6563,-3.6004,-3.5226,-3.5373,-3.4768,-3.3991,-3.4196,-3.4481,-3.461,-3.4389,-3.3969,-3.3487,-3.3081,-3.2634,-3.2247,-3.2342,-3.2687,-3.2989,-3.3058,-3.3203,-3.3398,-3.3398,-3.2946,-3.2331,-3.1678,-3.0959,-3.0302,-2.9646,-2.9473,-2.9412,-2.9412,-2.8745,-2.8001,-2.7216,-2.6409,-2.5633,-2.4804,-2.4966,-2.4759,-2.3894,-2.3217,-2.2451,-2.165,-2.0898,-2.0494,-2.0494,-2.0042,-1.9651,-1.9434,-1.8222,-1.7511,-1.7281,-1.6614,-1.6026,-1.5588,-1.5588,-1.5222,-1.8733,-1.8733,-1.8733,-1.8724,-1.8119,-1.7413,0.0,0.0,0.0,-1.5671,-1.5384,-1.5274,-1.5362,-1.542,-1.5703,-1.6592,-1.7402,0.0,0.0,0.0,0.0,0.0,0.0,0.0,0.0,0.0,0.0,0.0,0.0,0.0,-3.2015,-3.2331,-3.2443,-3.2443,-3.2779,-3.3192,-3.3679,-3.3977,-3.4162,-3.4433,-3.492,-3.4759,-3.401,-3.4156,-3.4085,-3.3713,-3.3713,-3.3979,0.0,-3.4908,-3.5086,-3.5154,-3.5562,-3.5898,-3.6166,-3.6325,-3.5695,-3.4854,-3.5226,-3.4639,-3.3675,-3.3991,-3.4264,-3.4414,-3.4631,-3.4021,-3.3285,-3.3577,-3.2983,-3.2247,-3.2342,-3.2523,-3.2648,-3.2843,-3.3005,-3.3096,-3.3096,-3.274,-3.218,-3.1531,-3.0911,-3.0302,-2.9646,-2.9412,-2.9305,-2.9305,-2.8491,-2.768,-2.6989,-2.6213,-2.5441,-2.4667,-2.4589,-2.4349,-2.3663,-2.2976,-2.2306,-2.165,-2.0898,-2.0494,-2.0494,-2.0441,-1.9999,-1.9223,-1.8451,-1.7746,-1.7015,-1.6346,-1.5996,-1.5996,-1.5996,-1.5619,-1.8238,-1.8311,-1.8311,-1.8311,-1.7697,-1.6991,-1.6597,0.0,0.0,-1.5055,-1.5056,-1.5088,-1.5264,-1.5362,-1.5703,-1.6592,-1.7143,0.0,0.0,0.0,0.0,0.0,0.0,0.0,0.0,0.0,0.0,0.0,0.0,0.0,-3.2015,-3.2454,-3.2768,-3.2768,-3.3181,-3.358,-3.3977,-3.4162,-3.4445,-3.4726,-3.4858,-3.4605,-3.3998,-3.4055,-3.3921,-3.3713,-3.3713,-3.3979,-3.4397,-3.4743,-3.5003,-3.5168,-3.5399,-3.5737,-3.6086,-3.6166,-3.5618,-3.4854,-3.4929,-3.4351,-3.3605,-3.373,-3.3937,-3.4196,-3.4414,-3.42,-3.3761,-3.3171,-3.2491,-3.1996,-3.2191,-3.2342,-3.2523,-3.2648,-3.2827,-3.2951,-3.2951,-3.2833,-3.2369,-3.1228,-3.082,-3.035,-2.9218,-2.8983,-2.8967,-2.8967,-2.8701,-2.8092,-2.6889,-2.6458,-2.578,-2.4508,-2.4359,-2.4282,-2.4228,-2.3537,-2.2779,-2.2055,-2.1274,-2.064,-2.0181,-2.0146,-2.0004,-1.9741,-1.9052,-1.8383,-1.7667,-1.7015,-1.6438,-1.5996,-1.5955,-1.5594,0.0,-1.7202,-1.7202,-1.7202,-1.6826,0.0,0.0,0.0,0.0,-1.474,-1.4843,-1.5039,-1.5156,-1.5449,-1.5889,-1.6611,-1.7312,0.0,0.0,0.0,0.0,0.0,0.0,0.0,0.0,0.0,0.0,0.0,0.0,0.0,-3.2229,-3.2667,-3.2992,-3.3092,-3.3481,-3.3878,-3.4075,-3.4347,-3.4533,-3.4631,-3.478,-3.4416,-3.3769,-3.3883,-3.3844,-3.3713,-3.3713,-3.3979,0.0,-3.4673,-3.4839,-3.5003,-3.5318,-3.5575,-3.5831,-3.5992,-3.5462,-3.463,-3.478,-3.4192,-3.3382,-3.3536,-3.3799,-3.4074,-3.4346,-3.4105,-3.3547,-3.2721,-3.2077,-3.1769,-3.1981,-3.2191,-3.2358,-3.2413,-3.2594,-3.2773,-3.2773,-3.2843,-3.2476,-3.1072,-3.0791,-3.037,-2.9028,-2.8794,-2.8794,-2.8794,-2.8747,-2.828,-2.71,-2.6638,-2.5903,-2.4683,-2.4304,-2.4166,-2.4291,-2.3621,-2.2867,-2.2156,-2.1409,-2.0704,-2.0036,-2.0005,-1.997,-1.9919,-1.9235,-1.8658,-1.8218,-1.7269,-1.6488,-1.5797,-1.5755,-1.5545,0.0,0.0,0.0,0.0,0.0,0.0,0.0,0.0,0.0,0.0,0.0,0.0,-1.5156,-1.5662,-1.6211,-1.666,0.0,0.0,0.0,0.0,0.0,0.0,0.0,0.0,0.0,0.0,0.0,0.0,0.0,0.0,-3.2488,-3.2757,-3.3092,-3.3281,-3.3545,-3.3843,-3.4075,-3.4311,-3.4426,-3.4421,-3.4642,-3.425,-3.3531,-3.3771,-3.3806,0.0,-3.3713,-3.3979,-3.4397,-3.466,-3.4756,-3.4839,-3.5236,-3.5399,-3.548,-3.5912,-3.5305,-3.4251,-3.463,-3.396,-3.3058,-3.3452,-3.3675,-3.3965,-3.4278,-3.374,-3.293,-3.2389,-3.1901,-3.1612,-3.1727,-3.1996,-3.2191,-3.2191,-3.2358,-3.2578,-3.2594,-3.2718,-3.2438,-3.1083,-3.0772,-3.0335,-2.9043,-2.8778,-2.8747,-2.8747,-2.8636,-2.8293,-2.7488,-2.6704,-2.5864,-2.5045,-2.4392,-2.3982,-2.3982,-2.3421,-2.2768,-2.21,-2.1432,-2.0728,-2.0061,-1.9985,-1.9919,-1.9762,-1.9046,-1.8648,-1.8594,-1.719,-1.6169,-1.5581,-1.5536,-1.5507,-1.4176,0.0,-1.5689,-1.5689,-1.546,0.0,0.0,0.0,0.0,0.0,0.0,0.0,0.0,0.0,0.0,0.0,0.0,0.0,0.0,0.0,0.0,0.0,0.0,0.0,0.0,0.0,0.0,0.0,0.0,-3.1883,-3.218,-3.2864,-3.3281,-3.358,-3.3492,-3.3578,-3.4075,-3.4053,-3.4162,-3.4421,-3.3882,-3.3523,-3.3518,-3.337,-3.3354,-3.3471,-3.3641,-3.3894,-3.416,-3.4397,-3.4577,-3.4839,-3.4921,-3.5168,-3.5399,-3.548,-3.4977,-3.4175,-3.4327,-3.3666,-3.2846,-3.3241,-3.3536,-3.3744,-3.3951,-3.3648,-3.3273,-3.2882,-3.2418,-3.1961,-3.1629,-3.1754,-3.194,-3.2053,-3.2109,-3.215,-3.2247,-3.2318,-3.2182,-3.1411,-3.0855,-3.0253,-2.9419,-2.8848,-2.846,-2.8348,-2.8332,-2.799,-2.7204,-2.6457,-2.5728,-2.4942,-2.4247,-2.3797,-2.364,-2.3618,-2.3326,-2.2662,-2.1934,-2.1195,-2.0415,-1.9937,-1.9647,-1.9487,-1.8821,-1.8446,-1.8446,-1.7143,-1.6419,-1.6242,-1.5698,-1.5448,-1.3506,-1.4222,-1.4909,-1.5102,-1.4992,-1.4836,0.0,0.0,0.0,0.0,0.0,0.0,0.0,0.0,0.0,0.0,0.0,0.0,0.0,0.0,0.0,0.0,0.0,0.0,0.0,0.0,0.0,0.0,0.0,-3.1465,-3.1757,-3.2334,-3.2678,-3.2959,-3.298,-3.3278,-3.3918,-3.3779,-3.376,-3.3876,-3.3391,-3.3242,-3.3333,-3.3133,-3.324,-3.3398,-3.3641,-3.381,-3.416,-3.4314,-3.4494,-3.466,-3.4756,-3.4921,-3.5154,-3.5318,-3.4805,-3.3946,-3.4175,-3.3518,-3.2704,-3.2931,-3.3157,-3.3368,-3.3536,-3.3557,-3.348,-3.3223,-3.2629,-3.1988,-3.1753,-3.1691,-3.1697,-3.1739,-3.1868,-3.2053,-3.2094,-3.2094,-3.1952,-3.132,-3.0662,-3.0005,-2.9332,-2.8645,-2.8201,-2.8103,-2.8103,-2.7917,-2.7406,-2.6499,-2.5712,-2.5121,-2.4208,-2.3581,-2.3407,-2.3494,-2.3298,-2.2599,-2.1932,-2.1238,-2.0463,-1.9842,-1.9465,-1.9376,-1.8987,-1.8613,-1.82,-1.7529,-1.687,-1.6256,-1.5848,-1.5529,-1.3167,-1.3534,-1.391,-1.4387,-1.4515,-1.4533,0.0,0.0,0.0,0.0,0.0,0.0,0.0,0.0,0.0,0.0,0.0,0.0,0.0,0.0,0.0,0.0,0.0,0.0,0.0,0.0,0.0,0.0,0.0,-3.1044,-3.1247,-3.1613,-3.1945,-3.2111,-3.2312,-3.2783,-3.3541,-3.3299,-3.3211,-3.3199,-3.3125,-3.3095,-3.3081,-3.3081,-3.3154,-3.3398,0.0,0.0,-3.4076,-3.4243,-3.4397,-3.4397,-3.466,-3.4756,-3.4839,-3.5154,-3.4566,-3.3611,-3.3805,-3.3293,-3.2632,-3.2632,-3.2775,-3.2988,-3.3157,-3.3382,-3.3561,-3.3398,-3.273,-3.2035,-3.1953,-3.1723,-3.1556,-3.1524,-3.1682,-3.194,-3.194,-3.194,-3.183,-3.1268,-3.0524,-2.9826,-2.9249,-2.8521,-2.8005,-2.7955,-2.7955,-2.7905,-2.774,-2.6624,-2.5719,-2.5411,-2.4327,-2.3526,-2.329,-2.3275,-2.2995,-2.2408,-2.1833,-2.1197,-2.0415,-1.9729,-1.9339,-1.9265,-1.9265,-1.8877,-1.8108,-1.8021,-1.7383,-1.6284,-1.6084,-1.5698,-1.2923,-1.3287,-1.3561,-1.4323,-1.4515,-1.4598,0.0,0.0,0.0,0.0,0.0,0.0,0.0,0.0,0.0,0.0,0.0,0.0,0.0,0.0,0.0,0.0,0.0,0.0,0.0,0.0,0.0,0.0,0.0,-3.0725,-3.1029,-3.1702,-3.2206,-3.2394,-3.2251,-3.2349,-3.2652,-3.2659,-3.2847,-3.3187,-3.2732,-3.2736,-3.3081,-3.3081,-3.3167,-3.3154,0.0,-3.3556,-3.381,-3.4076,-3.4243,-3.4397,-3.4494,-3.4577,-3.4839,-3.4839,-3.4246,-3.3245,-3.2495,-3.2304,-3.2417,-3.2417,-3.2561,-3.2775,-3.2775,-3.3086,-3.3368,-3.3339,-3.325,-3.2875,-3.1864,-3.176,-3.1796,-3.1411,-3.1394,-3.1467,-3.1784,-3.1841,-3.1811,-3.186,-3.0843,-2.9978,-2.9871,-2.8824,-2.7955,-2.784,-2.774,-2.7625,-2.7503,-2.6683,-2.5889,-2.5313,-2.4528,-2.3819,-2.3171,-2.3127,-2.3038,-2.2847,-2.2395,-2.1583,-2.026,-1.9526,-1.9116,-1.9069,-1.9069,-1.8921,-1.8679,-1.8178,-1.7798,-1.7584,-1.6498,-1.5927,-1.2744,-1.3004,-1.3311,-1.445,-1.4766,-1.4873,0.0,0.0,0.0,0.0,0.0,0.0,0.0,0.0,0.0,0.0,0.0,0.0,0.0,0.0,0.0,0.0,0.0,0.0,0.0,0.0,0.0,0.0,0.0,0.0,-3.0583,-3.1066,-3.1378,-3.1666,-3.1703,-3.1765,-3.2058,-3.2058,-3.2313,-3.2757,-3.2511,-3.2649,-3.3081,-3.3081,-3.3081,-3.3081,0.0,-3.3484,-3.3556,-3.3907,-3.416,-3.4243,-3.4397,-3.4481,-3.4498,-3.4043,-3.3622,-3.3127,-3.207,-3.1817,-3.2023,-3.2082,-3.23,-3.2431,-3.2489,-3.2704,-3.3016,-3.3086,-3.3109,-3.3033,-3.2522,-3.2048,-3.1699,-3.1588,-3.1383,-3.1249,-3.138,-3.1439,-3.1439,-3.1482,-3.0705,-2.9928,-2.957,-2.8704,-2.7942,-2.7533,-2.7423,-2.7372,-2.7284,-2.6657,-2.5909,-2.5246,-2.4552,-2.3814,-2.302,-2.2931,-2.2772,-2.2454,-2.1873,-2.1073,-2.0088,-1.932,-1.8912,-1.8889,-1.8889,-1.8851,-1.8736,-1.8465,-1.8078,-1.7636,-1.7022,-1.6354,-1.2564,-1.2776,-1.3114,-1.4495,0.0,0.0,0.0,0.0,0.0,0.0,0.0,0.0,0.0,0.0,0.0,0.0,0.0,0.0,0.0,0.0,0.0,0.0,0.0,0.0,0.0,0.0,0.0,0.0,0.0,0.0,-3.0306,-3.0578,-3.0769,-3.1062,-3.1306,-3.1484,-3.1661,-3.1661,-3.1937,-3.24,-3.24,-3.2649,-3.3081,-3.3081,-3.3081,-3.3081,-3.324,-3.3398,-3.3398,-3.3823,-3.3992,-3.3992,-3.4243,-3.4236,-3.4084,-3.3211,-3.2987,-3.2877,-3.1867,-3.1535,-3.1609,-3.1743,-3.1963,-3.2096,-3.2214,-3.2431,-3.2632,-3.2775,-3.2863,-3.2894,-3.3021,-3.2457,-3.1826,-3.1722,-3.1467,-3.1205,-3.1117,-3.1087,-3.1087,-3.1087,-3.0557,-2.9908,-2.9215,-2.8567,-2.7918,-2.727,-2.7181,-2.713,-2.713,-2.6637,-2.5921,-2.5082,-2.4524,-2.3804,-2.2853,-2.2735,-2.2579,-2.2163,-2.1441,-2.0752,-2.0091,-1.938,-1.8941,-1.8798,-1.8798,-1.8721,-1.862,-1.862,-1.8264,-1.7584,-1.7432,-1.6839,-1.2401,-1.2721,-1.3058,-1.432,-1.48,0.0,-1.599,0.0,0.0,0.0,0.0,0.0,0.0,0.0,0.0,0.0,0.0,0.0,0.0,0.0,0.0,0.0,0.0,0.0,0.0,0.0,0.0,0.0,0.0,0.0,-3.0578,-3.0871,-3.1062,-3.1306,-3.1484,-3.1661,-3.1661,-3.1661,-3.1937,-3.24,-3.24,-3.2649,-3.3081,-3.3081,-3.3081,-3.3081,-3.3167,-3.324,-3.3398,-3.3398,-3.3556,-3.3713,-3.3992,-3.3931,-3.3574,-3.2934,-3.2502,-3.2104,-3.1483,-3.1434,-3.1609,-3.1609,-3.1609,-3.1683,-3.189,-3.2109,-3.2241,-3.2417,-3.2591,-3.2722,-3.2647,-3.2705,-3.26,-3.1739,-3.1482,-3.1416,-3.1146,-3.1087,-3.1087,-3.1087,-3.0557,-2.9908,-2.9215,-2.8567,-2.7918,-2.727,-2.7093,-2.7003,-2.7003,-2.6707,-2.6044,-2.4861,-2.4589,-2.396,-2.2715,-2.2615,-2.2601,-2.2543,-2.1898,-2.1283,-2.0655,-1.9998,-1.9344,-1.8725,-1.8711,-1.8581,-1.8319,-1.8319,-1.8266,-1.812,-1.7553,-1.7249,-1.2307,-1.2845,-1.3483,-1.4539,-1.5331,0.0,0.0,0.0,0.0,0.0,0.0,0.0,0.0,0.0,0.0,0.0,0.0,0.0,0.0,0.0,0.0,0.0,0.0,0.0,0.0,0.0,0.0,0.0,0.0,0.0,-3.0578,-3.0871,-3.1062,-3.1306,-3.1572,-3.1661,-3.1661,-3.1849,-3.2038,-3.24,-3.24,-3.2649,-3.3081,-3.3081,-3.3081,-3.3081,-3.3081,-3.3154,-3.324,-3.3313,-3.3484,-3.353,-3.3425,-3.3251,-3.3023,-3.2107,-3.1772,-3.1654,-3.1107,-3.1061,-3.1224,-3.136,-3.1434,-3.1434,-3.1669,-3.1743,-3.189,-3.2169,-3.23,-3.2461,-3.2947,-3.2788,-3.2514,-3.2377,-3.1789,-3.1219,-3.125,-3.0933,-3.0642,-3.0762,-3.0572,-3.0075,-2.901,-2.863,-2.8065,-2.6948,-2.6736,-2.6645,-2.6568,-2.6433,-2.605,-2.5191,-2.4291,-2.3416,-2.2548,-2.2417,-2.2324,-2.2231,-2.1804,-2.1423,-2.1225,-2.009,-1.9318,-1.9093,-1.8635,-1.8361,-1.8254,-1.8254,-1.8175,-1.8082,-1.7796,-1.7417,-1.2295,-1.2937,-1.3691,0.0,0.0,0.0,0.0,0.0,0.0,0.0,0.0,0.0,0.0,0.0,0.0,0.0,0.0,0.0,0.0,0.0,0.0,0.0,0.0,0.0,0.0,0.0,0.0,0.0,0.0,0.0,0.0,-3.096,-3.1229,-3.1395,-3.1572,-3.1661,-3.1661,-3.1937,-3.2125,-3.24,-3.2475,-3.2736,-3.3081,-3.3081,-3.3081,-3.3081,-3.3081,-3.3081,-3.3081,-3.324,-3.3212,-3.3094,-3.2867,-3.258,-3.2252,-3.1483,-3.1164,-3.1113,-3.0738,-3.0685,-3.0823,-3.0973,-3.1048,-3.1136,-3.1373,-3.1447,-3.1596,-3.189,-3.2036,-3.2255,-3.2816,-3.2779,-3.2526,-3.2684,-3.1966,-3.1219,-3.1223,-3.0664,-3.0266,-3.0401,-3.0462,-3.0115,-2.8987,-2.8683,-2.8121,-2.6931,-2.6587,-2.6418,-2.6326,-2.6286,-2.5991,-2.5313,-2.4006,-2.3025,-2.2602,-2.225,-2.2044,-2.1949,-2.1713,-2.151,-2.1313,-2.034,-1.9614,-1.9225,-1.874,-1.8382,-1.8149,-1.8109,-1.8029,-1.7882,-1.7814,-1.7518,-1.2295,-1.2946,0.0,0.0,0.0,0.0,0.0,0.0,0.0,0.0,0.0,0.0,0.0,0.0,0.0,0.0,0.0,0.0,0.0,0.0,0.0,0.0,0.0,0.0,0.0,0.0,0.0,0.0,0.0,0.0,0.0,-3.1229,-3.1395,-3.1661,-3.1661,-3.1661,-3.1661,-3.1937,-3.2125,-3.24,-3.2636,-3.281,-3.3081,-3.3081,-3.3081,-3.3081,-3.3081,-3.3081,-3.3068,-3.3068,-3.2899,-3.2561,-3.2548,-3.2026,-3.1201,-3.1201,-3.0842,-3.0368,-3.0368,-3.0368,-3.0368,-3.0368,-3.0533,-3.0698,-3.0911,-3.1123,-3.136,-3.1522,-3.1743,-3.1963,-3.2109,-3.2588,-3.2905,-3.2442,-3.2027,-3.1551,-3.1119,-3.0506,-3.0125,-3.0111,-3.0111,-2.9911,-2.924,-2.8611,-2.7983,-2.7369,-2.674,-2.6286,-2.6286,-2.6179,-2.5816,-2.5089,-2.3755,-2.2916,-2.2902,-2.2249,-2.1807,-2.1793,-2.1793,-2.1531,-2.0923,-2.0896,-2.0343,-1.9142,-1.91,-1.8755,-1.8002,-1.7949,-1.7842,-1.7679,-1.757,-1.7516,-1.2363,-1.3339,0.0,0.0,0.0,0.0,0.0,0.0,0.0,0.0,0.0,0.0,0.0,0.0,0.0,0.0,0.0,0.0,0.0,0.0,0.0,0.0,0.0,0.0,0.0,0.0,0.0,0.0,0.0,0.0,0.0,-3.1229,-3.1395,-3.1661,-3.1661,-3.1661,-3.1661,-3.2125,-3.23,-3.24,-3.2822,-3.2982,-3.3081,-3.3081,-3.3081,-3.3081,-3.3081,-3.2842,-3.2441,-3.2051,-3.187,-3.1682,-3.1317,-3.1057,-3.0716,-3.0325,-3.0214,-3.0228,-3.0228,-3.0292,-3.0368,-3.0368,-3.0444,-3.052,-3.0596,-3.0761,-3.0911,-3.1136,-3.1286,-3.1508,-3.1743,-3.2096,-3.2475,-3.2553,-3.2263,-3.1867,-3.1368,-3.0956,-3.0515,-3.0135,-3.0111,-2.9911,-2.924,-2.8611,-2.7926,-2.7187,-2.6562,-2.6111,-2.5893,-2.5839,-2.5492,-2.4718,-2.4277,-2.3695,-2.2823,-2.2588,-2.22,-2.1678,-2.1664,-2.1629,-2.1545,-2.1038,-2.0594,-2.0237,-1.9228,-1.8627,-1.8409,-1.7894,-1.7611,-1.757,-1.7461,-1.7378,-1.2355,0.0,0.0,0.0,0.0,0.0,0.0,0.0,0.0,0.0,0.0,0.0,0.0,0.0,0.0,0.0,0.0,0.0,0.0,0.0,0.0,0.0,0.0,0.0,0.0,0.0,0.0,0.0,0.0,0.0,-3.0349,-3.0688,-3.0862,-3.1036,-3.1036,-3.1036,-3.1036,-3.1699,-3.2068,-3.2081,-3.2571,-3.2729,-3.2742,-3.2968,-3.2955,-3.2717,-3.2503,-3.2215,-3.1863,-3.1524,-3.1273,-3.1047,-3.0733,-3.0482,-3.0244,-2.9917,-2.9869,-3.0011,-3.0011,-3.0088,-3.0152,-3.0152,-3.0228,-3.0292,-3.0292,-3.0457,-3.0609,-3.0748,-3.0973,-3.1211,-3.1299,-3.1669,-3.2036,-3.2444,-3.2262,-3.1861,-3.1302,-3.082,-3.0347,-2.9791,-2.9679,-2.9538,-2.9158,-2.8581,-2.7961,-2.7227,-2.6414,-2.5798,-2.5633,-2.5633,-2.5439,-2.497,-2.4585,-2.4145,-2.3403,-2.283,-2.2355,-2.1839,-2.1545,-2.1471,-2.1471,-2.1131,-2.0785,-2.0601,-1.9714,-1.8976,-1.8521,-1.8007,-1.7618,-1.7393,-1.7295,-1.7183,0.0,0.0,0.0,0.0,0.0,0.0,0.0,0.0,0.0,0.0,0.0,0.0,0.0,0.0,0.0,0.0,0.0,0.0,0.0,0.0,0.0,0.0,0.0,0.0,0.0,0.0,0.0,0.0,0.0,0.0,-2.9397,-2.9833,-3.0086,-3.0086,-3.0086,-3.0086,-3.0086,-3.1088,-3.1515,-3.1515,-3.19,-3.2139,-3.2152,-3.2679,-3.2641,-3.2102,-3.1562,-3.1323,-3.1311,-3.126,-3.0959,-3.0453,-3.0453,-3.0152,-2.9714,-2.9714,-2.9714,-2.9714,-2.9714,-2.9714,-2.9714,-2.9714,-2.9856,-2.9998,-2.9998,-3.0139,-3.0368,-3.0368,-3.0672,-3.0986,-3.0986,-3.1224,-3.1669,-3.2036,-3.1949,-3.164,-3.1046,-3.0466,-2.9886,-2.9223,-2.9099,-2.9099,-2.9099,-2.8602,-2.798,-2.7317,-2.6282,-2.5564,-2.5494,-2.5494,-2.5494,-2.5439,-2.4819,-2.4341,-2.4286,-2.3158,-2.2326,-2.2116,-2.1555,-2.1184,-2.0997,-2.1131,-2.0938,-2.0442,-2.0254,-1.9621,-1.8458,-1.8262,-1.7847,-1.7199,-1.7044,-1.696,0.0,0.0,0.0,0.0,0.0,0.0,0.0,0.0,0.0,0.0,0.0,0.0,0.0,0.0,0.0,0.0,0.0,0.0,0.0,0.0,0.0,0.0,0.0,0.0,0.0,0.0,0.0,0.0,0.0,-2.9482,-2.9664,-2.9917,-3.0086,-3.0086,-3.0086,-3.0086,-3.0086,-3.0722,-3.0962,-3.0962,-3.1422,-3.1574,-3.1574,-3.17,-3.1687,-3.1537,-3.1009,-3.0691,-3.0493,-3.0032,-2.9638,-2.9394,-2.9394,-2.932,-2.9221,-2.9221,-2.9221,-2.9221,-2.9221,-2.9221,-2.9221,-2.9221,-2.9287,-2.9365,-2.9509,-2.9754,-2.9934,-3.0152,-3.0368,-3.0596,-3.0685,-3.0924,-3.1211,-3.1434,-3.1842,-3.1823,-3.0856,-3.0663,-3.0383,-2.9306,-2.9099,-2.9099,-2.9099,-2.8602,-2.7828,-2.6765,-2.6365,-2.5962,-2.5354,-2.5244,-2.5244,-2.5131,-2.484,-2.4514,-2.4054,-2.3621,-2.2951,-2.2016,-2.1843,-2.1512,-2.101,-2.1033,-2.0979,-2.086,-2.0311,-1.9668,-1.894,-1.827,-1.7631,-1.7044,-1.696,-1.6846,0.0,0.0,0.0,0.0,0.0,0.0,0.0,0.0,0.0,0.0,0.0,0.0,0.0,0.0,0.0,0.0,0.0,0.0,0.0,0.0,0.0,0.0,0.0,0.0,0.0,0.0,0.0,0.0,0.0,-2.8751,-2.8987,-2.9246,-2.9328,-2.9328,-2.9328,-2.9328,-2.9328,-3.0016,-3.0397,-3.0397,-3.0779,-3.0884,-3.0633,-3.0896,-3.0929,-3.081,-3.0261,-2.9878,-2.9695,-2.9398,-2.9197,-2.9131,-2.9131,-2.9131,-2.9131,-2.9131,-2.9131,-2.9131,-2.9131,-2.9131,-2.9131,-2.9131,-2.9131,-2.9131,-2.9197,-2.9443,-2.9599,-2.9754,-2.9985,-3.0305,-3.0394,-3.0609,-3.0911,-3.1136,-3.1508,-3.1721,-3.0932,-3.0637,-3.0296,-2.9446,-2.9049,-2.8844,-2.8844,-2.8351,-2.7749,-2.7119,-2.6791,-2.6308,-2.5507,-2.5426,-2.526,-2.4875,-2.4721,-2.4614,-2.4236,-2.3912,-2.3417,-2.2697,-2.2114,-2.1625,-2.127,-2.0943,-2.0799,-2.0974,-2.0473,-1.9917,-1.9329,-1.8584,-1.7881,-1.7217,-1.6961,-1.6718,0.0,0.0,0.0,0.0,0.0,0.0,0.0,0.0,0.0,0.0,0.0,0.0,0.0,0.0,0.0,0.0,0.0,0.0,0.0,0.0,0.0,0.0,0.0,0.0,0.0,0.0,0.0,0.0,0.0,-2.8042,-2.8259,-2.8431,-2.851,-2.851,-2.851,-2.851,-2.851,-2.9358,-2.9831,-2.9831,-3.0231,-3.014,-2.9714,-3.0177,-3.0298,-3.0102,-2.9551,-2.9197,-2.9052,-2.9052,-2.9052,-2.8973,-2.8973,-2.8973,-2.8973,-2.8973,-2.8973,-2.8973,-2.8973,-2.8973,-2.8973,-2.8973,-2.8973,-2.8973,-2.9052,-2.9197,-2.9341,-2.9419,-2.9664,-2.9998,-3.0075,-3.0394,-3.0698,-3.0911,-3.1224,-3.1362,-3.0994,-3.0462,-2.9914,-2.9457,-2.8942,-2.8522,-2.8522,-2.8116,-2.7701,-2.7593,-2.7174,-2.6634,-2.5894,-2.5719,-2.5418,-2.482,-2.4616,-2.4549,-2.4549,-2.4066,-2.3692,-2.3418,-2.2497,-2.1773,-2.142,-2.0914,-2.0666,-2.0788,-2.0562,-2.0176,-1.9571,-1.9012,-1.8282,-1.7492,-1.7017,-1.6635,0.0,0.0,0.0,0.0,0.0,0.0,0.0,0.0,0.0,0.0,0.0,0.0,0.0,0.0,0.0,0.0,0.0,0.0,0.0,0.0,0.0,0.0,0.0,0.0,0.0,0.0,0.0,0.0,-2.803,-2.8259,-2.8431,-2.851,-2.851,-2.851,-2.851,-2.851,-2.851,-2.898,-2.9241,-2.9241,-2.9465,-2.9493,-2.9431,-2.9361,-2.9386,-2.953,-2.9234,-2.904,-2.8882,-2.8882,-2.8736,-2.859,-2.859,-2.859,-2.859,-2.859,-2.859,-2.859,-2.859,-2.859,-2.859,-2.859,-2.859,-2.8578,-2.8803,-2.887,-2.8949,-2.9341,-2.9419,-2.9586,-2.9998,-3.0152,-3.0305,-3.0622,-3.0773,-3.0843,-3.0751,-3.0237,-2.9651,-2.9065,-2.8545,-2.8145,-2.8145,-2.8078,-2.7864,-2.7357,-2.721,-2.6943,-2.6316,-2.5735,-2.5402,-2.5322,-2.4726,-2.435,-2.435,-2.4137,-2.3785,-2.3093,-2.2924,-2.2337,-2.1208,-2.1093,-2.081,-2.0296,-2.0233,-1.9964,-1.9448,-1.9226,-1.8545,-1.7505,-1.7275,-1.6853,0.0,0.0,0.0,0.0,0.0,0.0,0.0,0.0,0.0,0.0,0.0,0.0,0.0,0.0,0.0,0.0,0.0,0.0,0.0,0.0,0.0,0.0,0.0,0.0,0.0,0.0,0.0,0.0,-2.8111,-2.8259,-2.851,-2.851,-2.851,-2.851,-2.851,-2.851,-2.851,-2.8816,-2.8961,-2.9131,-2.9197,-2.9197,-2.9197,-2.904,-2.8961,-2.9028,-2.8961,-2.8803,-2.8657,-2.8657,-2.8578,-2.851,-2.851,-2.851,-2.851,-2.851,-2.851,-2.851,-2.851,-2.851,-2.851,-2.851,-2.851,-2.851,-2.8578,-2.8724,-2.8882,-2.9028,-2.9263,-2.9419,-2.9664,-2.9908,-3.0152,-3.0318,-3.0457,-3.0532,-3.066,-3.0369,-2.9896,-2.9063,-2.8479,-2.8079,-2.8079,-2.8079,-2.7999,-2.7733,-2.7693,-2.748,-2.6741,-2.6374,-2.5977,-2.5269,-2.4773,-2.4426,-2.4125,-2.3923,-2.3702,-2.3386,-2.3064,-2.2467,-2.1591,-2.1164,-2.069,-2.0105,-2.008,-1.9965,-1.9724,-1.932,-1.8805,-1.8194,-1.7547,-1.6987,0.0,0.0,0.0,0.0,0.0,0.0,0.0,0.0,0.0,0.0,0.0,0.0,0.0,0.0,0.0,0.0,0.0,0.0,0.0,0.0,0.0,0.0,0.0,0.0,0.0,0.0,0.0,0.0,-2.8111,-2.8339,-2.851,-2.851,-2.851,-2.851,-2.851,-2.851,-2.851,-2.8724,-2.8882,-2.9131,-2.9052,-2.904,-2.9052,-2.8803,-2.8724,-2.8724,-2.8724,-2.8657,-2.851,-2.851,-2.851,-2.851,-2.851,-2.851,-2.8431,-2.8431,-2.8431,-2.8363,-2.8363,-2.8363,-2.8363,-2.8363,-2.8351,-2.8431,-2.8431,-2.8578,-2.8724,-2.8803,-2.9028,-2.9263,-2.9341,-2.9664,-2.9921,-3.0075,-3.0228,-3.033,-3.0428,-3.032,-2.9816,-2.894,-2.8345,-2.7947,-2.7947,-2.7947,-2.7947,-2.7947,-2.7947,-2.7709,-2.713,-2.6895,-2.6411,-2.5436,-2.4948,-2.4464,-2.4077,-2.3777,-2.3569,-2.3569,-2.3173,-2.2687,-2.2031,-2.1344,-2.0747,-2.0166,-1.9963,-1.9888,-1.9888,-1.9422,-1.8996,-1.8734,-1.7904,-1.7245,0.0,0.0,0.0,0.0,0.0,0.0,0.0,0.0,0.0,0.0,0.0,0.0,0.0,0.0,0.0,0.0,0.0,0.0,0.0,0.0,0.0,0.0,0.0,0.0,0.0,0.0,0.0,0.0,-2.8283,-2.851,-2.851,-2.851,-2.851,-2.851,-2.851,-2.851,-2.851,-2.8724,-2.8882,-2.9131,-2.8882,-2.8803,-2.8803,-2.8578,-2.851,-2.851,-2.851,-2.851,-2.851,-2.851,-2.851,-2.851,-2.851,-2.8339,-2.8259,-2.8259,-2.8111,-2.7962,-2.7962,-2.7962,-2.7962,-2.7962,-2.803,-2.8259,-2.8259,-2.8339,-2.8578,-2.8724,-2.8803,-2.8949,-2.9341,-2.9419,-2.9574,-2.9998,-3.0075,-3.0075,-2.9899,-2.9574,-2.9131,-2.8572,-2.7915,-2.7523,-2.7523,-2.7523,-2.7523,-2.7523,-2.7523,-2.7523,-2.7484,-2.6882,-2.6401,-2.6349,-2.5165,-2.4387,-2.4361,-2.3876,-2.3569,-2.3403,-2.3378,-2.3039,-2.2297,-2.1643,-2.1039,-2.049,-1.9797,-1.946,-1.9604,-1.9592,-1.9255,-1.8609,-1.8435,-1.7812,0.0,0.0,0.0,0.0,0.0,0.0,0.0,0.0,0.0,0.0,0.0,0.0,0.0,0.0,0.0,0.0,0.0,0.0,0.0,0.0,0.0,0.0,0.0,0.0,0.0,0.0,0.0,0.0,0.0,-2.851,-2.851,-2.851,-2.851,-2.851,-2.851,-2.851,-2.851,-2.8578,-2.8657,-2.8736,-2.8657,-2.8578,-2.8578,-2.851,-2.851,-2.851,-2.851,-2.851,-2.851,-2.851,-2.8431,-2.8339,-2.8339,-2.8191,-2.8042,-2.8042,-2.7962,-2.7893,-2.7893,-2.7893,-2.7893,-2.7893,-2.7962,-2.8042,-2.8042,-2.8111,-2.8339,-2.8407,-2.8566,-2.8791,-2.8949,-2.9184,-2.9509,-2.9856,-3.0011,-3.0101,-3.0036,-2.9712,-2.9279,-2.8699,-2.8118,-2.7546,-2.7278,-2.7214,-2.7214,-2.7214,-2.7214,-2.7214,-2.7214,-2.6966,-2.6642,-2.6257,-2.5716,-2.5065,-2.4353,-2.3988,-2.3662,-2.3223,-2.315,-2.2792,-2.223,-2.1844,-2.1198,-2.0298,-2.0035,-1.9765,-1.9473,-1.9473,-1.9322,-1.8983,-1.8554,-1.8089,-0.9887,0.0,0.0,0.0,0.0,0.0,0.0,0.0,0.0,0.0,0.0,0.0,0.0,0.0,0.0,0.0,0.0,0.0,0.0,0.0,0.0,0.0,0.0,0.0,0.0,0.0,0.0,0.0,0.0,0.0,-2.7981,-2.7981,-2.7981,-2.7981,-2.8162,-2.8246,-2.8246,-2.8426,-2.851,-2.851,-2.851,-2.851,-2.851,-2.851,-2.851,-2.851,-2.851,-2.851,-2.851,-2.8431,-2.8339,-2.8179,-2.8099,-2.795,-2.7788,-2.7788,-2.7719,-2.765,-2.765,-2.765,-2.765,-2.765,-2.7719,-2.7788,-2.7788,-2.795,-2.8111,-2.8179,-2.8407,-2.8645,-2.8791,-2.9028,-2.9353,-2.9611,-2.9767,-2.9921,-3.0011,-2.9719,-2.942,-2.9048,-2.8344,-2.7703,-2.7344,-2.7139,-2.7024,-2.7024,-2.7024,-2.7024,-2.7024,-2.6943,-2.6722,-2.6327,-2.5991,-2.5507,-2.4709,-2.4205,-2.3704,-2.3317,-2.3008,-2.2687,-2.2328,-2.1952,-2.1394,-2.0673,-2.0251,-1.9885,-1.9531,-1.9413,-1.9263,-1.9105,-1.8742,-1.8271,0.0,0.0,0.0,0.0,0.0,0.0,0.0,0.0,0.0,0.0,0.0,0.0,0.0,0.0,0.0,0.0,0.0,0.0,0.0,0.0,0.0,0.0,0.0,0.0,0.0,0.0,0.0,0.0,-2.6772,-2.6935,-2.6935,-2.6935,-2.6935,-2.6935,-2.7428,-2.7705,-2.7705,-2.821,-2.8462,-2.8462,-2.8474,-2.8486,-2.8486,-2.8498,-2.851,-2.851,-2.851,-2.851,-2.851,-2.8259,-2.8179,-2.8179,-2.7962,-2.7708,-2.7522,-2.7522,-2.7371,-2.7231,-2.7231,-2.7231,-2.7231,-2.7231,-2.729,-2.7522,-2.7522,-2.7696,-2.7962,-2.8099,-2.8179,-2.8247,-2.8724,-2.8961,-2.9131,-2.9341,-2.9419,-2.9431,-2.9702,-2.9656,-2.9474,-2.9461,-2.8626,-2.7844,-2.7818,-2.7383,-2.6969,-2.7024,-2.7024,-2.7024,-2.7024,-2.6794,-2.6714,-2.6714,-2.6017,-2.5611,-2.5598,-2.4427,-2.3678,-2.3729,-2.3034,-2.269,-2.269,-2.1994,-2.1583,-2.1558,-2.0414,-1.9805,-1.978,-1.9371,-1.9117,-1.8987,-1.8851,-1.8354,-1.0022,0.0,0.0,0.0,0.0,0.0,0.0,0.0,0.0,0.0,0.0,0.0,0.0,0.0,0.0,0.0,0.0,0.0,0.0,0.0,0.0,0.0,0.0,0.0,0.0,0.0,0.0,0.0,-2.686,-2.6935,-2.6935,-2.6935,-2.6935,-2.6935,-2.7079,-2.7152,-2.7152,-2.7296,-2.7368,-2.738,-2.7753,-2.7945,-2.7945,-2.833,-2.851,-2.851,-2.8339,-2.8259,-2.8259,-2.8259,-2.8007,-2.7684,-2.7603,-2.7452,-2.7301,-2.7301,-2.7219,-2.7231,-2.7231,-2.7231,-2.7231,-2.7231,-2.7219,-2.7301,-2.7301,-2.7452,-2.7603,-2.7684,-2.7926,-2.8247,-2.8724,-2.8882,-2.8961,-2.9118,-2.9197,-2.9197,-2.9431,-2.9474,-2.939,-2.9076,-2.8823,-2.8356,-2.7549,-2.7296,-2.7069,-2.6734,-2.6671,-2.6671,-2.6671,-2.6589,-2.6533,-2.6339,-2.6133,-2.5803,-2.5259,-2.4526,-2.3971,-2.3577,-2.2911,-2.2482,-2.2482,-2.2164,-2.1849,-2.1464,-2.1103,-2.0517,-1.9626,-1.9263,-1.8999,-1.8851,-1.8637,-1.8207,0.0,0.0,0.0,0.0,0.0,0.0,-1.3629,-1.44,0.0,0.0,0.0,0.0,0.0,0.0,0.0,0.0,0.0,0.0,0.0,0.0,0.0,0.0,0.0,0.0,0.0,-2.5488,-2.5803,-2.6164,-2.625,-2.625,-2.625,-2.625,-2.625,-2.625,-2.6466,-2.6586,-2.6586,-2.6815,-2.6935,-2.6935,-2.7248,-2.7512,-2.7729,-2.8041,-2.8306,-2.851,-2.8259,-2.8179,-2.8111,-2.7938,-2.7765,-2.7522,-2.7452,-2.7301,-2.7231,-2.7231,-2.7231,-2.7231,-2.7231,-2.7231,-2.7231,-2.7231,-2.7231,-2.7231,-2.7231,-2.7301,-2.7371,-2.7522,-2.7846,-2.8259,-2.8486,-2.8645,-2.8724,-2.8961,-2.8961,-2.904,-2.9197,-2.9275,-2.9266,-2.9276,-2.9089,-2.8725,-2.8084,-2.7595,-2.7168,-2.6854,-2.6546,-2.6396,-2.6396,-2.6327,-2.6188,-2.6062,-2.6062,-2.5926,-2.5468,-2.4872,-2.4254,-2.3717,-2.3052,-2.2539,-2.2321,-2.2247,-2.198,-2.1619,-2.1392,-2.0699,-1.9459,-1.9316,-1.9054,-1.8637,-1.8476,-1.8151,0.0,0.0,0.0,0.0,0.0,0.0,-1.3501,-1.3811,-1.4104,0.0,0.0,0.0,0.0,0.0,0.0,0.0,0.0,0.0,0.0,0.0,0.0,0.0,0.0,0.0,-2.3849,-2.4115,-2.4501,-2.5107,-2.5192,-2.5216,-2.5216,-2.5276,-2.5312,-2.5312,-2.5769,-2.6009,-2.6009,-2.6502,-2.6755,-2.6755,-2.6815,-2.7091,-2.7548,-2.7669,-2.7981,-2.8347,-2.8235,-2.803,-2.78,-2.7603,-2.7441,-2.7441,-2.7301,-2.7231,-2.7231,-2.7231,-2.7231,-2.7231,-2.7231,-2.7231,-2.7231,-2.7231,-2.7231,-2.7231,-2.7231,-2.7231,-2.7219,-2.7441,-2.7846,-2.8179,-2.8179,-2.8339,-2.859,-2.8724,-2.8803,-2.8803,-2.904,-2.9052,-2.9221,-2.9636,-2.9288,-2.8925,-2.8863,-2.8036,-2.7347,-2.7235,-2.6669,-2.6206,-2.6144,-2.5992,-2.591,-2.584,-2.584,-2.584,-2.5828,-2.5188,-2.4541,-2.4068,-2.3369,-2.2775,-2.2306,-2.2221,-2.2061,-2.1925,-2.1353,-2.0476,-1.9373,-1.9436,-1.9085,-1.8422,-1.8367,-1.8193,0.0,0.0,0.0,0.0,0.0,0.0,-1.3242,-1.368,-1.4174,0.0,0.0,0.0,0.0,0.0,0.0,0.0,0.0,0.0,0.0,0.0,0.0,0.0,0.0,0.0,-2.3558,-2.3783,-2.3965,-2.4061,-2.4446,-2.4675,-2.4675,-2.5083,-2.5312,-2.5312,-2.5408,-2.5468,-2.5468,-2.5576,-2.5624,-2.5636,-2.6057,-2.631,-2.6442,-2.732,-2.7699,-2.7651,-2.7853,-2.7788,-2.7534,-2.7383,-2.7219,-2.7219,-2.7231,-2.7231,-2.7231,-2.7231,-2.7231,-2.7231,-2.7231,-2.7231,-2.7231,-2.7231,-2.7231,-2.7231,-2.7231,-2.7231,-2.7219,-2.7441,-2.7696,-2.8042,-2.8179,-2.8339,-2.851,-2.859,-2.8578,-2.8578,-2.8803,-2.8882,-2.8961,-2.9221,-2.9123,-2.8913,-2.8482,-2.8223,-2.7792,-2.6917,-2.6695,-2.6473,-2.6042,-2.591,-2.5828,-2.5688,-2.5676,-2.5606,-2.5453,-2.49,-2.4482,-2.4442,-2.3496,-2.2931,-2.2835,-2.2288,-2.1925,-2.1925,-2.1169,-2.0426,-1.9808,-1.9025,-1.8569,-1.8367,-1.8139,-1.7963,0.0,0.0,0.0,-1.2686,0.0,0.0,0.0,-1.3486,-1.3805,0.0,0.0,0.0,0.0,0.0,0.0,0.0,0.0,0.0,0.0,0.0,0.0,0.0,0.0,0.0,-2.223,-2.2759,-2.3195,-2.3725,-2.4001,-2.4145,-2.4145,-2.4638,-2.4915,-2.4915,-2.5168,-2.5312,-2.5312,-2.5312,-2.5312,-2.5312,-2.5576,-2.5841,-2.6129,-2.6796,-2.7234,-2.7418,-2.7634,-2.7615,-2.7522,-2.7301,-2.7231,-2.7231,-2.7231,-2.7231,-2.7231,-2.7231,-2.7231,-2.7231,-2.7231,-2.7231,-2.7231,-2.7231,-2.7231,-2.7231,-2.7231,-2.7231,-2.7231,-2.7301,-2.7534,-2.7696,-2.7846,-2.8099,-2.8339,-2.8339,-2.8431,-2.851,-2.8657,-2.8657,-2.8657,-2.8816,-2.8816,-2.8809,-2.8697,-2.8504,-2.8147,-2.7594,-2.698,-2.6467,-2.6186,-2.5847,-2.5535,-2.5453,-2.5453,-2.5382,-2.5312,-2.5059,-2.4807,-2.4542,-2.373,-2.3114,-2.285,-2.2147,-2.1749,-2.1663,-2.0923,-2.0407,-2.0165,-1.908,-1.8391,-1.8139,-1.7963,-1.7843,0.0,0.0,0.0,0.0,0.0,-1.3223,0.0,0.0,0.0,0.0,0.0,0.0,0.0,0.0,0.0,0.0,0.0,0.0,0.0,0.0,0.0,0.0,0.0,0.0,-2.095,-2.1511,-2.2282,-2.3244,-2.3412,-2.3508,-2.3616,-2.4097,-2.4422,-2.4518,-2.4939,-2.5204,-2.5312,-2.5312,-2.5312,-2.5312,-2.5312,-2.5528,-2.5961,-2.6399,-2.6847,-2.7198,-2.7415,-2.7522,-2.7441,-2.7301,-2.7231,-2.7231,-2.7231,-2.7231,-2.7231,-2.7231,-2.7231,-2.7231,-2.7231,-2.7231,-2.7231,-2.7231,-2.7231,-2.7231,-2.7231,-2.7231,-2.7231,-2.7231,-2.7371,-2.7522,-2.7522,-2.7846,-2.8179,-2.8179,-2.8339,-2.8431,-2.851,-2.851,-2.851,-2.851,-2.851,-2.859,-2.8895,-2.8619,-2.8289,-2.8191,-2.7284,-2.6566,-2.636,-2.5804,-2.542,-2.5312,-2.5312,-2.5312,-2.5241,-2.5241,-2.5061,-2.4572,-2.3922,-2.3333,-2.2811,-2.2079,-2.1549,-2.14,-2.0818,-2.0504,-2.035,-1.9431,-1.8669,-1.8056,-1.7899,-1.7689,0.0,0.0,0.0,0.0,-1.3599,0.0,0.0,0.0,0.0,-1.3915,0.0,-1.4142,-1.4414,0.0,0.0,0.0,0.0,0.0,0.0,0.0,0.0,0.0,0.0,0.0,0.0,-2.0754,-2.1043,-2.1632,-2.2101,-2.2582,-2.3051,-2.3568,-2.4061,-2.4506,-2.4578,-2.4831,-2.53,-2.5312,-2.5312,-2.5312,-2.5312,-2.5336,-2.5432,-2.6232,-2.6569,-2.6447,-2.7184,-2.7371,-2.7231,-2.7231,-2.7231,-2.7231,-2.7231,-2.7231,-2.7231,-2.7231,-2.7231,-2.7231,-2.7231,-2.7231,-2.7231,-2.7231,-2.7231,-2.7231,-2.7231,-2.7231,-2.7231,-2.7231,-2.7371,-2.7522,-2.7522,-2.7696,-2.7962,-2.8179,-2.8259,-2.8259,-2.8431,-2.851,-2.851,-2.851,-2.851,-2.851,-2.859,-2.8542,-2.8337,-2.7866,-2.7621,-2.7188,-2.6226,-2.6045,-2.5829,-2.536,-2.5312,-2.5241,-2.5111,-2.5111,-2.5028,-2.4767,-2.426,-2.373,-2.3144,-2.204,-2.1336,-2.1221,-2.1175,-2.0797,-2.025,-2.0075,-1.9531,-1.8589,-1.7902,-1.7523,0.0,0.0,0.0,0.0,0.0,0.0,-1.376,0.0,-1.3763,0.0,0.0,0.0,0.0,0.0,0.0,0.0,-1.5472,0.0,0.0,0.0,0.0,0.0,0.0,0.0,0.0,0.0,0.0,0.0,-2.0947,-2.1488,-2.2041,-2.257,-2.3087,-2.3604,-2.4206,-2.4626,-2.4855,-2.5155,-2.5312,-2.5312,-2.5312,-2.5241,-2.5218,-2.6048,-2.6306,-2.6147,-2.7012,-2.7301,-2.7231,-2.7231,-2.7231,-2.7231,-2.7231,-2.7231,-2.7231,-2.7231,-2.7231,-2.7231,-2.7231,-2.7231,-2.7231,-2.7231,-2.7231,-2.7231,-2.7231,-2.7231,-2.7231,-2.7231,-2.7219,-2.729,-2.729,-2.7464,-2.7696,-2.7765,-2.7938,-2.8042,-2.8122,-2.8122,-2.8122,-2.8122,-2.8122,-2.8191,-2.8351,-2.8431,-2.8426,-2.821,-2.7921,-2.756,-2.7103,-2.649,-2.5949,-2.566,-2.5362,-2.5111,-2.4921,-2.4921,-2.4861,-2.479,-2.4202,-2.3409,-2.2472,-2.1955,-2.1521,-2.1233,-2.1094,-2.0864,-2.0608,-2.0126,-1.9717,-1.9291,-1.8322,-1.7699,-1.4827,0.0,0.0,0.0,0.0,0.0,0.0,0.0,0.0,0.0,0.0,0.0,0.0,0.0,-1.4787,0.0,0.0,-1.4913,0.0,0.0,0.0,0.0,0.0,0.0,0.0,0.0,0.0,0.0,0.0,-2.0502,-2.1356,-2.1765,-2.2282,-2.2955,-2.3845,-2.4374,-2.4518,-2.5035,-2.5312,-2.5312,-2.5241,-2.5182,-2.5159,-2.591,-2.6165,-2.6005,-2.6875,-2.7231,-2.7231,-2.7231,-2.7231,-2.7231,-2.7231,-2.7231,-2.7231,-2.7231,-2.7231,-2.7231,-2.7231,-2.7231,-2.7231,-2.7231,-2.7231,-2.7231,-2.7231,-2.7231,-2.7231,-2.7231,-2.7231,-2.7231,-2.7231,-2.7301,-2.7441,-2.7522,-2.7615,-2.7788,-2.7881,-2.7893,-2.7893,-2.7893,-2.7893,-2.7962,-2.8111,-2.8271,-2.8431,-2.851,-2.8107,-2.7795,-2.7663,-2.6749,-2.6053,-2.5775,-2.5289,-2.4921,-2.4718,-2.4718,-2.4718,-2.4646,-2.4002,-2.3225,-2.2375,-2.2076,-2.1755,-2.1376,-2.1099,-2.0903,-2.0839,-2.0236,-1.9802,-1.9585,-1.8614,-1.7917,0.0,0.0,0.0,-1.515,0.0,0.0,0.0,0.0,-1.4366,0.0,0.0,0.0,0.0,-1.4627,-1.4787,-1.4787,0.0,0.0,0.0,0.0,0.0,0.0,0.0,0.0,0.0,0.0,0.0,0.0,-1.9035,-1.9732,-2.132,-2.1416,-2.1909,-2.2955,-2.3508,-2.4025,-2.4518,-2.5035,-2.5312,-2.5312,-2.5182,-2.5123,-2.5159,-2.5698,-2.6023,-2.6005,-2.6875,-2.7231,-2.7231,-2.7231,-2.7231,-2.7231,-2.7231,-2.7231,-2.7231,-2.7231,-2.7231,-2.7231,-2.7231,-2.7231,-2.7231,-2.7231,-2.7231,-2.7231,-2.7231,-2.7231,-2.7231,-2.7231,-2.7231,-2.7231,-2.7231,-2.7231,-2.7219,-2.7441,-2.7522,-2.7603,-2.78,-2.7893,-2.7893,-2.7893,-2.7893,-2.7893,-2.7893,-2.8111,-2.8259,-2.851,-2.8327,-2.7965,-2.7466,-2.6765,-2.6083,-2.5589,-2.5083,-2.4718,-2.4502,-2.449,-2.4418,-2.42,-2.3718,-2.3361,-2.3326,-2.2444,-2.1916,-2.1904,-2.1217,-2.0839,-2.0733,-2.0464,-2.007,-1.9397,-1.8447,-1.7999,0.0,0.0,-1.6056,-1.6009,0.0,0.0,0.0,0.0,0.0,0.0,0.0,0.0,0.0,0.0,-1.4787,-1.4787,-1.4585,0.0,0.0,0.0,0.0,0.0,0.0,0.0,0.0,0.0,0.0,0.0,-1.8073,0.0,-1.9756,-2.049,-2.1211,-2.1921,-2.2799,-2.3496,-2.4013,-2.453,-2.4893,-2.5182,-2.5111,-2.4981,-2.4729,-2.5261,-2.5611,-2.5839,-2.6427,-2.6921,-2.7231,-2.7231,-2.7231,-2.7231,-2.7231,-2.7231,-2.7231,-2.7231,-2.7231,-2.7231,-2.7231,-2.7231,-2.7231,-2.7231,-2.7231,-2.7231,-2.7231,-2.7231,-2.7231,-2.7231,-2.7231,-2.7231,-2.7231,-2.7231,-2.7231,-2.7301,-2.7301,-2.7301,-2.7394,-2.7476,-2.7476,-2.7476,-2.7476,-2.7476,-2.7615,-2.7684,-2.7857,-2.8042,-2.8042,-2.7983,-2.7714,-2.6924,-2.6159,-2.582,-2.5063,-2.4502,-2.4345,-2.4273,-2.4273,-2.42,-2.4039,-2.3787,-2.3383,-2.2788,-2.2205,-2.1752,-2.111,-2.0669,-2.0475,-2.0281,-2.0063,-1.9824,-1.913,-1.8592,-1.6542,-1.6485,0.0,-1.6517,-1.6077,0.0,-1.5708,0.0,0.0,0.0,0.0,0.0,0.0,0.0,0.0,-1.481,-1.4585,0.0,0.0,-1.3586,0.0,0.0,0.0,0.0,0.0,0.0,0.0,-1.626,-1.7327,-1.8229,0.0,-1.9841,-2.0658,-2.138,-2.2246,-2.3039,-2.3761,-2.421,-2.4656,-2.5123,-2.4981,-2.4766,-2.4513,-2.5124,-2.547,-2.575,-2.6439,-2.6921,-2.7231,-2.7231,-2.7231,-2.7231,-2.7231,-2.7231,-2.7231,-2.7231,-2.7231,-2.7231,-2.7231,-2.7231,-2.7231,-2.7231,-2.7231,-2.7231,-2.7231,-2.7231,-2.7231,-2.7231,-2.7231,-2.7231,-2.7231,-2.7231,-2.7231,-2.7231,-2.7231,-2.7231,-2.7231,-2.7231,-2.7231,-2.7231,-2.7231,-2.7219,-2.7371,-2.7371,-2.7545,-2.7881,-2.78,-2.7788,-2.7788,-2.6796,-2.6077,-2.5923,-2.502,-2.4345,-2.42,-2.42,-2.42,-2.42,-2.42,-2.4051,-2.3718,-2.3155,-2.2583,-2.1946,-2.1239,-2.0707,-2.041,-2.0216,-2.0085,-2.0074,-1.9641,-1.92]},{"header":{"parameterUnit":"m.s-1","parameterCategory":1,"la1":30.6,"la2":29.2853,"lo1":-89.7004,"lo2":-87.6739,"dy":0.0162,"dx":0.0183,"nx":112,"ny":82,"refTime":"2023-05-16T12:00:00:Z","depth":0,"parameterNumber":3,"parameterNumberName":"V-component_of_WINDS"},"data":[0.0,0.0,0.0,0.0,0.0,0.0,0.0,0.0,0.0,0.0,0.0,0.0,0.0,0.0,0.0,0.0,0.0,0.0,0.0,0.0,0.0,0.0,0.0,0.0,0.0,0.0,0.0,0.0,0.0,0.0,0.0,0.0,0.0,0.0,0.0,0.0,0.0,0.0,0.0,0.0,0.0,0.0,0.0,0.0,0.0,0.0,0.0,0.0,0.0,0.0,0.0,0.0,0.0,0.0,0.0,0.0,0.0,0.0,0.0,0.0,0.0,0.0,0.0,0.0,0.0,0.0,0.0,0.0,0.0,0.0,0.0,0.0,0.0,0.0,0.0,0.0,0.0,0.0,0.0,0.0,0.0,0.0,0.0,0.0,0.0,0.0,0.0,0.0,0.0,0.0,0.0,1.2123,1.3515,1.4126,1.3669,1.4315,1.4271,1.3099,0.0,0.0,0.0,0.0,0.0,0.0,0.0,0.0,0.0,0.0,0.0,0.0,0.0,0.0,0.0,0.0,0.0,0.0,0.0,0.0,0.0,0.0,0.0,0.0,0.0,0.0,0.0,0.0,0.0,0.0,0.0,0.0,0.0,0.0,0.0,0.0,0.0,0.0,0.0,0.0,0.0,0.0,0.0,0.0,0.0,0.0,0.0,0.0,0.0,0.0,0.0,0.0,0.0,0.0,0.0,0.0,0.0,0.0,0.0,0.0,0.0,0.0,0.0,0.0,0.0,0.0,0.0,0.0,0.0,0.0,0.0,0.0,0.0,0.0,0.0,0.0,0.0,0.0,0.0,0.0,0.0,0.0,0.0,0.0,0.0,0.0,0.0,0.0,0.0,0.0,0.0,0.0,0.0,0.0,0.0,0.0,0.0,0.0,0.0,0.0,0.0,0.0,0.0,0.0,1.0372,1.2417,1.2932,1.3191,1.3255,1.3487,1.3388,1.2789,0.0,0.0,0.0,0.0,0.0,0.0,0.0,0.0,0.0,0.0,0.0,0.0,0.0,0.0,0.0,0.0,0.0,0.0,0.0,0.0,0.0,0.0,0.0,0.0,0.0,0.0,0.0,0.0,0.0,0.0,0.0,0.0,0.0,0.0,0.0,0.0,0.0,0.0,0.0,0.0,0.0,0.0,0.0,0.0,0.0,0.0,0.0,0.0,0.0,0.0,0.0,0.0,0.0,0.0,0.0,0.0,0.0,0.0,0.0,0.0,0.0,0.0,0.0,0.0,0.0,0.0,0.0,0.0,0.0,0.0,0.0,0.0,0.0,0.0,0.0,0.0,0.0,0.0,0.0,0.0,0.0,0.0,0.0,0.0,0.0,0.0,0.0,0.0,0.0,0.0,0.0,0.0,0.0,0.0,0.0,0.0,0.0,0.0,0.0,0.0,0.0,0.0,0.0,0.9703,1.0669,1.201,1.2332,1.2526,1.2654,1.2863,1.2667,1.1838,1.1413,0.0,0.0,0.0,0.0,0.0,0.0,0.0,0.0,0.0,0.0,0.0,0.0,0.0,0.0,0.0,0.0,0.0,0.0,0.0,0.0,0.0,0.0,0.0,0.0,0.0,0.0,0.0,0.0,0.0,0.0,0.0,0.0,0.0,0.0,0.0,0.0,0.0,0.0,0.0,0.0,0.0,0.0,0.0,0.0,0.0,0.0,0.0,0.0,0.0,0.0,0.0,0.0,0.0,0.0,0.0,0.0,0.0,0.0,0.0,0.0,0.0,0.0,0.0,0.0,0.0,0.0,0.0,0.0,0.0,0.0,0.0,0.0,0.0,0.0,0.0,0.0,0.0,0.0,0.0,0.0,0.0,0.0,0.0,0.0,0.0,0.0,0.0,0.0,0.0,0.0,0.0,0.0,0.0,0.0,0.0,0.0,0.0,0.0,0.0,0.0,0.0,0.0,0.9626,1.0645,1.1187,1.1472,1.166,1.1795,1.2101,1.1874,1.0931,1.0415,0.0,0.0,0.0,0.0,0.0,0.0,0.0,0.0,0.0,0.0,0.0,0.0,0.0,0.0,0.0,0.0,0.0,0.0,0.0,0.0,0.0,0.0,0.0,0.0,0.0,0.0,0.0,0.0,0.0,0.0,0.0,0.0,0.0,0.0,0.0,0.0,0.0,0.0,0.0,0.0,0.0,0.0,0.0,0.0,0.0,0.0,0.0,0.0,0.0,0.0,0.0,0.0,0.0,0.0,0.0,0.0,0.0,0.0,0.0,0.0,0.0,0.0,0.0,0.0,0.0,0.0,0.0,0.0,0.0,0.0,0.0,0.0,0.0,0.0,0.0,0.0,0.0,0.0,0.0,0.0,0.0,0.0,0.0,0.0,0.0,0.0,0.0,0.0,0.0,0.0,0.0,0.0,0.0,0.0,0.0,0.0,0.0,0.0,0.0,0.0,0.0,0.0,0.8949,0.9725,0.9918,1.011,1.0338,1.061,1.0866,1.086,1.0467,0.9985,0.0,0.0,0.0,0.0,0.0,0.0,0.0,0.0,0.0,0.0,0.0,0.0,0.0,0.0,0.0,0.0,0.0,0.0,0.0,0.0,0.0,0.0,0.0,0.0,0.0,0.0,0.0,0.0,0.0,0.0,0.0,0.0,0.0,0.0,0.0,0.0,0.0,0.0,0.0,0.0,0.0,0.0,0.0,0.0,0.0,0.0,0.0,0.0,0.0,0.0,0.0,0.0,0.0,0.0,0.0,0.0,0.0,0.0,0.0,0.0,0.0,0.0,0.0,0.0,0.0,0.0,0.0,0.0,0.0,0.0,0.0,0.0,0.0,0.0,0.0,0.0,0.0,0.0,0.0,0.0,0.0,0.0,0.0,0.0,0.0,0.0,0.0,0.0,0.0,0.0,0.0,0.0,0.0,0.0,0.0,0.0,0.0,0.0,0.0,0.0,0.0,0.0,0.8149,0.8899,0.0,0.92,0.9439,0.9675,1.0008,0.9928,0.9259,0.0,0.0,0.0,0.0,0.0,0.0,0.0,0.0,0.0,0.0,0.0,0.0,0.0,0.0,0.0,0.0,0.0,0.0,0.0,0.0,0.0,0.0,0.0,0.0,0.0,0.0,0.0,0.0,0.0,0.0,0.0,0.0,0.0,0.0,0.0,0.0,0.0,0.0,0.0,0.0,0.0,0.0,0.0,0.0,0.0,0.0,0.0,0.0,0.0,0.0,0.0,0.0,0.0,0.0,0.0,0.0,0.0,0.0,0.0,0.0,0.0,0.0,0.0,0.0,0.0,0.0,0.0,0.0,0.0,0.0,0.0,0.0,0.0,0.0,0.0,0.0,0.0,0.0,0.0,0.0,0.0,0.0,0.0,0.0,0.0,0.0,0.0,0.0,0.0,0.0,0.0,0.0,0.0,0.0,0.0,0.0,0.0,0.0,0.0,0.0,0.0,0.0,0.6305,0.7246,0.7954,0.0,0.835,0.8601,0.8821,0.9074,0.8912,0.8264,0.0,0.0,0.0,0.0,0.0,0.0,0.0,0.0,0.0,0.0,0.0,0.0,0.0,0.0,0.0,0.0,0.0,0.0,0.0,0.0,0.0,0.0,0.0,0.0,0.0,0.0,0.0,0.0,0.0,0.0,0.0,0.0,0.0,0.0,0.0,0.0,0.0,0.0,0.0,0.0,0.0,0.0,0.0,0.0,0.0,0.0,0.0,0.0,0.0,0.0,0.0,0.0,0.0,0.0,0.0,0.0,0.0,0.0,0.0,0.0,0.0,0.0,0.0,0.0,0.0,0.0,0.0,0.0,0.0,0.0,0.0,0.0,0.0,0.0,0.0,0.0,0.0,0.0,0.0,0.0,0.0,0.0,0.0,0.0,0.0,0.0,0.0,0.0,0.0,0.0,0.0,0.0,0.0,0.0,0.0,0.0,0.0,0.0,0.0,0.0,0.0,0.0,0.5466,0.6242,0.6883,0.715,0.7492,0.7791,0.8058,0.7967,0.7804,0.0,0.0,0.0,0.0,0.0,0.0,0.0,0.0,0.0,0.0,0.0,0.0,0.0,0.0,0.0,0.0,0.0,0.0,0.0,0.0,0.0,0.0,0.0,0.0,0.0,0.0,0.0,0.0,0.0,0.0,0.0,0.0,0.0,0.0,0.0,0.0,0.0,0.0,0.0,0.0,0.0,0.0,0.0,0.0,0.0,0.0,0.0,0.0,0.0,0.0,0.0,0.0,0.0,0.0,0.0,0.0,0.0,0.0,0.0,0.0,0.0,0.0,0.0,0.0,0.0,0.0,0.0,0.0,0.0,0.0,0.0,0.0,0.0,0.0,0.0,0.0,0.0,0.0,0.0,0.0,0.0,0.0,0.0,0.0,0.0,0.0,0.0,0.0,0.0,0.0,0.0,0.0,0.0,0.0,0.0,0.0,0.0,0.0,0.0,0.0,0.0,0.0,0.0,0.4493,0.5283,0.5891,0.6129,0.6433,0.6773,0.7071,0.7073,0.7,0.6847,0.0,0.0,0.0,0.0,0.0,0.0,0.0,0.0,0.0,0.0,0.0,0.0,0.0,0.0,0.0,0.0,0.0,0.0,0.0,0.0,0.0,0.0,0.0,0.0,0.0,0.0,0.0,0.0,0.0,0.0,0.0,0.0,0.0,0.0,0.0,0.0,0.0,0.0,0.0,0.0,0.0,0.0,0.0,0.0,0.0,0.0,0.0,0.0,0.0,0.0,0.0,0.0,0.0,0.0,0.0,0.0,0.0,0.0,0.0,0.0,0.0,0.0,0.0,0.0,0.0,0.0,0.0,0.0,0.0,0.0,0.0,0.0,0.0,0.0,0.0,0.0,0.0,0.0,0.0,0.0,0.0,0.0,0.0,0.0,0.0,0.0,0.0,0.0,0.0,0.0,0.0,0.0,0.0,0.0,0.0,0.0,0.0,0.0,0.0,0.0,0.0,0.0,0.3584,0.4262,0.4833,0.5067,0.5418,0.5736,0.6075,0.5981,0.5943,0.6031,0.0,0.0,0.0,0.0,0.0,0.0,0.0,0.0,0.0,0.0,0.0,0.0,0.0,0.0,0.0,0.0,0.0,0.0,0.0,0.0,0.0,0.0,0.0,0.0,0.0,0.0,0.0,0.0,0.0,0.0,0.0,0.0,0.0,0.0,0.0,0.0,0.0,0.0,0.0,0.0,0.0,0.0,0.0,0.0,0.0,0.0,0.0,0.0,0.0,0.0,0.0,0.0,0.0,0.0,0.0,0.0,0.0,0.0,0.0,0.0,0.0,0.0,0.0,0.0,0.0,0.0,0.0,0.0,0.0,0.0,0.0,0.0,0.0,0.0,0.0,0.0,0.0,0.0,0.0,0.0,0.0,0.0,0.0,0.0,0.0,0.0,0.0,0.0,0.0,0.0,0.0,0.0,0.0,0.0,0.0,0.0,0.0,0.0,0.0,0.0,0.0,0.0,0.2713,0.3232,0.3677,0.4023,0.4349,0.4706,0.5048,0.4759,0.4759,0.5162,0.0,0.0,0.0,0.0,0.0,0.0,0.0,0.0,0.0,0.0,0.0,0.0,0.0,0.0,0.0,0.0,0.0,0.0,0.0,0.0,0.0,0.0,0.0,0.0,0.0,0.0,0.0,0.0,0.0,0.0,0.0,0.0,0.0,0.0,0.0,0.0,0.0,0.0,0.0,0.0,0.0,0.0,0.0,0.0,0.0,0.0,0.0,0.0,0.0,0.0,0.0,0.0,0.0,0.0,0.0,0.0,0.0,0.0,0.0,0.0,-1.0853,0.0,0.0,0.0,0.0,0.0,0.0,0.0,0.0,0.0,0.0,0.0,0.0,0.0,0.0,0.0,0.0,0.0,0.0,0.0,0.0,0.0,0.0,0.0,0.0,0.0,0.0,0.0,0.0,0.0,0.0,0.0,0.0,0.0,0.0,0.0,0.0,0.0,0.0,0.0,0.0,0.0,0.1676,0.2156,0.2593,0.2987,0.3314,0.3644,0.4001,0.3819,0.3862,0.4251,0.4035,0.0,0.0,0.0,0.0,0.0,0.0,0.0,0.0,0.0,0.0,0.0,0.0,0.0,0.0,0.0,0.0,0.0,0.0,0.0,0.0,0.0,0.0,0.0,0.0,0.0,0.0,0.0,0.0,0.0,0.0,0.0,0.0,0.0,0.0,0.0,0.0,0.0,0.0,0.0,0.0,0.0,0.0,0.0,0.0,0.0,0.0,0.0,0.0,0.0,0.0,0.0,0.0,0.0,0.0,0.0,0.0,0.0,0.0,0.0,0.0,-1.2303,0.0,0.0,0.0,0.0,0.0,0.0,0.0,0.0,0.0,0.0,0.0,0.0,0.0,0.0,0.0,0.0,0.0,0.0,0.0,0.0,0.0,0.0,0.0,0.0,0.0,0.0,0.0,0.0,0.0,0.0,0.0,0.0,0.0,0.0,0.0,0.0,0.0,0.0,0.0,0.0,0.0734,0.1116,0.1499,0.1899,0.2233,0.2563,0.2893,0.2829,0.295,0.3355,0.3261,0.0,0.0,0.0,0.0,0.0,0.0,0.0,0.0,0.0,0.0,0.0,0.0,0.0,0.0,0.0,0.0,0.0,0.0,0.0,0.0,0.0,0.0,0.0,0.0,0.0,0.0,0.0,0.0,0.0,0.0,0.0,0.0,0.0,0.0,0.0,0.0,0.0,0.0,0.0,0.0,0.0,0.0,0.0,0.0,0.0,0.0,0.0,0.0,0.0,0.0,0.0,0.0,0.0,-2.1394,-2.1493,-2.1807,-2.1681,-2.1407,-2.0917,-1.7785,-1.5599,-1.4282,-1.3816,0.0,0.0,0.0,0.0,0.0,0.0,0.0,0.0,0.0,0.0,0.0,0.0,0.0,0.0,0.0,0.0,0.0,0.0,0.0,0.0,0.0,0.0,0.0,0.0,-0.7422,-0.6878,-0.5352,0.0,0.0,0.0,0.0,0.0,0.0,0.0,0.0,0.0,0.0,0.0,-0.02,0.01,0.0434,0.0802,0.1139,0.1473,0.1835,0.1873,0.205,0.2441,0.2448,0.2597,0.0,0.0,0.0,0.0,0.0,0.0,0.0,0.0,0.0,0.0,0.0,0.0,0.0,0.0,0.0,0.0,0.0,0.0,0.0,0.0,0.0,0.0,0.0,0.0,0.0,0.0,0.0,0.0,0.0,0.0,0.0,0.0,-1.4451,-1.5064,0.0,0.0,0.0,0.0,0.0,0.0,0.0,0.0,0.0,0.0,0.0,0.0,0.0,-2.3038,-2.3667,-2.3598,-2.3819,-2.4362,-2.4151,-2.3978,-2.3799,-2.3686,-2.344,-2.3088,-2.2412,0.0,-1.7859,-1.6982,0.0,0.0,0.0,0.0,0.0,0.0,0.0,0.0,0.0,0.0,0.0,0.0,0.0,0.0,0.0,0.0,0.0,0.0,0.0,0.0,0.0,0.0,-1.0086,-0.9615,-0.9374,-0.8973,0.0,-0.6605,-0.5263,-0.4868,-0.4342,0.0,0.0,0.0,0.0,0.0,0.0,0.0,-0.1138,-0.0836,-0.0502,-0.0168,0.0134,0.0469,0.0835,0.0943,0.115,0.1534,0.1678,0.1909,0.2307,0.2273,0.0,0.0,0.0,0.0,0.0,0.0,0.0,0.0,0.0,0.0,0.0,0.0,0.0,0.0,0.0,0.0,0.0,0.0,0.0,0.0,0.0,0.0,0.0,0.0,0.0,0.0,0.0,0.0,0.0,-1.5589,-1.6889,-1.7624,-1.8579,-1.9257,0.0,0.0,0.0,0.0,0.0,0.0,0.0,0.0,0.0,-2.4284,-2.5002,-2.5496,-2.5729,-2.6008,-2.6498,-2.71,-2.6837,-2.6836,-2.708,-2.6893,-2.6684,-2.6385,-2.5721,-2.4398,-2.2501,-2.038,-1.8976,-1.811,0.0,0.0,0.0,0.0,-1.5854,-1.5394,-1.5202,-1.4994,-1.4783,-1.4667,0.0,0.0,0.0,0.0,0.0,0.0,0.0,0.0,0.0,0.0,-1.1374,-1.097,-1.0581,-1.0188,-0.958,-0.864,-0.7546,0.0,-0.5481,-0.4973,-0.4614,0.0,0.0,0.0,0.0,-0.248,-0.2135,-0.1771,-0.1403,-0.1072,-0.0803,-0.0469,-0.0134,0.0032,0.0299,0.07,0.0887,0.1162,0.1563,0.1692,0.1802,0.0,0.0,0.0,0.0,0.0,0.0,0.0,0.0,0.0,0.0,0.0,0.0,0.0,0.0,0.0,0.0,0.0,0.0,0.0,0.0,0.0,0.0,0.0,0.0,0.0,0.0,0.0,0.0,-1.7918,-1.9171,-1.9983,-2.115,-2.1927,0.0,0.0,0.0,0.0,0.0,0.0,-2.5822,-2.6074,-2.6429,-2.6925,-2.7627,-2.796,-2.7861,-2.8298,-2.8722,-2.918,-2.894,-2.9005,-2.935,-2.921,-2.8994,-2.8723,-2.7948,-2.7177,-2.6258,-2.3285,-2.1528,-2.0716,-2.0461,-1.9927,-1.9269,-1.9046,-1.8535,-1.7913,-1.7746,-1.7474,-1.716,-1.7036,-1.6582,-1.6049,-1.5685,0.0,0.0,0.0,0.0,-1.3738,-1.3456,-1.3199,-1.2923,-1.2503,-1.2001,-1.1435,-1.0892,-1.038,-0.9514,0.0,-0.6698,-0.6137,-0.5758,0.0,0.0,0.0,0.0,-0.3493,-0.314,-0.2714,-0.2318,-0.1982,-0.1686,-0.1371,-0.1041,-0.0807,-0.0548,-0.014,0.0106,0.0421,0.0806,0.1068,0.1259,0.1322,0.0,0.0,0.0,0.0,0.0,0.0,0.0,0.0,0.0,0.0,0.0,0.0,0.0,0.0,0.0,0.0,0.0,0.0,0.0,0.0,0.0,0.0,0.0,0.0,0.0,0.0,0.0,0.0,0.0,-2.1935,-2.3483,0.0,0.0,0.0,0.0,-2.7204,-2.7346,-2.7729,-2.8476,-2.9214,-2.9616,-2.9521,-3.0297,-3.0646,-3.0503,-3.0469,-3.0356,-3.0145,-3.0033,-2.9824,-2.9506,-2.9472,-2.9315,-2.8975,-2.878,-2.854,-2.8053,-2.5276,-2.359,-2.2722,-2.2462,-2.2245,-2.2048,-2.1642,-2.1446,-2.1327,-2.0977,-2.0676,-2.0413,-2.0077,-1.9249,-1.8142,-1.7193,-1.6756,0.0,0.0,-1.5909,-1.5811,-1.53,-1.5213,-1.5151,-1.4738,-1.4011,-1.319,-1.2431,-1.1643,-1.0625,0.0,-0.8157,-0.7356,-0.6884,0.0,-0.528,-0.5055,-0.4711,-0.4371,-0.4148,-0.3671,-0.3199,-0.2879,-0.2549,-0.2208,-0.1878,-0.1671,-0.1369,-0.0958,-0.0641,-0.0287,0.0045,0.0311,0.0492,0.0545,0.0813,0.0,0.0,0.0,0.0,0.0,0.0,0.0,0.0,0.0,0.0,0.0,0.0,0.0,0.0,0.0,0.0,0.0,0.0,0.0,0.0,0.0,0.0,0.0,0.0,0.0,0.0,0.0,0.0,-2.5109,-2.5942,0.0,-2.7193,-2.8051,-2.8705,-2.9021,-2.9587,-3.0013,-3.0246,-3.0511,-3.0884,-3.1301,-3.2058,-3.2619,-3.3014,-3.3426,-3.3514,-3.3298,-3.3142,-3.2931,-3.2641,-3.253,-3.2029,-3.13,-3.1128,-3.0409,-2.9215,-2.8108,-2.6987,-2.5972,-2.5735,-2.5266,-2.4688,-2.4323,-2.3856,-2.3351,-2.2936,-2.2359,-2.1639,-2.067,-1.9932,-1.9353,-1.8658,-1.8208,-1.7816,-1.7288,-1.7002,-1.6666,-1.6139,-1.5925,-1.565,-1.5174,-1.4644,-1.4024,-1.3389,-1.267,-1.1885,-1.104,-0.9715,-0.8543,-0.7996,-0.7298,-0.6706,-0.6362,-0.5705,-0.5184,-0.4987,-0.4519,-0.404,-0.3654,-0.3337,-0.3018,-0.258,-0.2308,-0.2041,-0.1662,-0.1339,-0.0969,-0.0606,-0.0311,-0.011,0.0043,0.0222,0.0377,0.0,0.0,0.0,0.0,0.0,0.0,0.0,0.0,0.0,0.0,0.0,0.0,0.0,0.0,0.0,0.0,0.0,0.0,0.0,0.0,0.0,0.0,0.0,0.0,0.0,0.0,-2.5689,-2.7709,-2.8288,-2.8727,-2.9303,-3.016,-3.0838,-3.1093,-3.1937,-3.2502,-3.271,-3.271,-3.2936,-3.3393,-3.3828,-3.4276,-3.4717,-3.5124,-3.5223,-3.4995,-3.487,-3.4651,-3.4387,-3.4272,-3.3761,-3.2969,-3.2808,-3.2063,-3.0905,-3.0742,-3.0153,-2.9193,-2.7953,-2.7102,-2.6497,-2.6204,-2.5695,-2.5037,-2.4475,-2.3837,-2.3128,-2.2053,-2.1503,-2.1186,-2.0502,-1.9964,-1.9446,-1.8707,-1.8166,-1.7677,-1.7117,-1.6755,-1.64,-1.586,-1.5318,-1.4723,-1.4183,-1.3471,-1.2812,-1.2227,-1.0806,-0.9494,-0.9021,-0.8375,-0.777,-0.7354,-0.6662,-0.6103,-0.5809,-0.5301,-0.4826,-0.4523,-0.412,-0.3739,-0.3331,-0.3037,-0.273,-0.2438,-0.206,-0.1664,-0.1328,-0.0992,-0.0735,-0.0535,-0.0348,-0.0137,0.0058,0.0,0.0,0.0,0.0,0.0,0.0,0.0,0.0,0.0,0.0,0.0,0.0,0.0,0.0,0.0,0.0,0.0,0.0,0.0,0.0,0.0,0.0,0.0,-2.557,-2.7049,-2.854,-2.9593,-3.0468,-3.101,-3.1148,-3.191,-3.2736,-3.3528,-3.435,-3.515,-3.5872,-3.5895,-3.5882,-3.5856,-3.5706,-3.5609,-3.5598,-3.5498,-3.5346,-3.5066,-3.5066,-3.4849,-3.4457,-3.4457,-3.4189,-3.3755,-3.3738,-3.3507,-3.3098,-3.3098,-3.2835,-3.2089,-2.8988,-2.7695,-2.746,-2.7259,-2.6882,-2.6454,-2.5723,-2.5283,-2.4932,-2.4455,-2.4118,-2.3701,-2.2549,-2.1887,-2.1264,-2.0155,-1.9445,-1.8928,-1.8271,-1.7822,-1.7379,-1.6931,-1.6133,-1.5371,-1.4916,-1.4124,-1.3332,-1.2738,-1.1464,-1.0319,-0.9929,-0.9096,-0.8389,-0.8006,-0.7533,0.0,-0.6612,-0.6056,-0.5648,-0.5435,-0.4899,-0.4403,-0.4151,-0.3817,-0.3515,-0.3229,-0.2778,-0.2404,-0.2125,-0.174,-0.1427,-0.123,-0.0902,-0.0625,-0.0429,0.0,0.0,0.0,0.0,0.0,0.0,0.0,0.0,0.0,0.0,0.0,0.0,0.0,0.0,0.0,0.0,0.0,0.0,0.0,0.0,0.0,0.0,-2.8063,-2.7467,-2.8415,-2.9942,-3.2047,-3.2538,-3.3183,-3.4371,-3.474,-3.4988,-3.5205,-3.5515,-3.5733,-3.5908,-3.5895,-3.6118,-3.6635,-3.6537,-3.6708,-3.7252,-3.7094,-3.688,-3.6677,-3.6509,-3.6334,-3.6058,-3.5861,-3.5363,-3.4558,-3.4355,-3.3811,-3.3098,-3.2862,-3.2656,-3.2253,-3.0866,-3.0053,-2.9646,-2.8849,-2.814,-2.7463,-2.6579,-2.6026,-2.5544,-2.4533,-2.4025,-2.3691,-2.2986,-2.2512,-2.1979,-2.123,-2.0631,-1.9933,-1.895,-1.8351,-1.7807,-1.7006,-1.6373,-1.5827,-1.5551,-1.4752,-1.4007,-1.3492,-1.2659,-1.1727,-1.0829,-0.9984,-0.9331,-0.8897,-0.8403,0.0,-0.7446,-0.7019,-0.6593,-0.6114,-0.5529,-0.5077,-0.4859,-0.4349,-0.3956,-0.38,-0.3477,-0.3078,-0.263,-0.2419,-0.2095,-0.1651,-0.1392,-0.1181,0.0,0.0,0.0,0.0,0.0,0.0,0.0,0.0,0.0,0.0,0.0,0.0,0.0,0.0,0.0,0.0,0.0,0.0,0.0,0.0,0.0,0.0,-2.9982,-3.0838,-3.0772,-3.0977,-3.1957,-3.4093,-3.4377,-3.4769,-3.5729,-3.6141,-3.6354,-3.6354,-3.6694,-3.6908,-3.6862,-3.7189,-3.7555,-3.7889,-3.8111,-3.8402,-3.8815,-3.8631,-3.8424,-3.827,-3.8073,-3.7848,-3.7641,-3.737,-3.6895,-3.6249,-3.5644,-3.5049,-3.4454,-3.3865,-3.3456,0.0,0.0,0.0,0.0,0.0,-2.919,-2.8404,-2.761,-2.6944,-2.6258,-2.5289,-2.4731,-2.4307,-2.3514,-2.2946,-2.2399,-2.1599,-2.0962,-2.026,-1.9437,-1.8859,-1.828,-1.7316,-1.6748,-1.629,-1.5828,-1.5138,-1.4553,-1.413,-1.345,0.0,-1.195,-1.0987,-1.012,-0.9634,-0.913,-0.8663,-0.8155,-0.7729,-0.7341,-0.6917,-0.6303,-0.5795,-0.5485,-0.5042,0.0,0.0,0.0,-0.3621,-0.3032,-0.2885,0.0,0.0,0.0,-0.1755,-0.1579,0.0,0.0,0.0,-0.006,0.0247,0.0,0.0,0.0,0.0,0.0,0.0,0.0,0.0,0.0,0.0,0.0,0.0,0.0,0.0,0.0,0.0,-3.2232,-3.3661,-3.4736,-3.4279,-3.4364,-3.5783,-3.5946,-3.6019,-3.62,-3.6852,-3.7286,-3.7377,-3.8047,-3.8464,-3.8464,0.0,0.0,0.0,0.0,-4.0161,-4.0083,-3.9889,-3.9731,-3.9575,-3.9346,-3.9153,-3.8938,-3.8674,-3.8431,-3.8116,-3.7174,-3.6653,-3.6382,-3.5444,-3.4791,-3.4168,-3.2611,-3.1823,-3.1437,-3.0807,-3.0012,-2.9185,-2.8682,0.0,0.0,-2.6332,-2.5812,-2.5204,-2.4091,-2.3328,-2.2655,-2.1624,-2.0904,-2.037,-1.983,-1.9306,-1.8715,-1.7798,-1.7217,-1.6627,-1.5958,-1.539,-1.4968,-1.4597,-1.3943,-1.3345,-1.3096,-1.1975,-1.0902,-1.0202,-0.9795,-0.9411,-0.8852,-0.8381,-0.8006,-0.7809,0.0,0.0,-0.6175,-0.5792,-0.5403,-0.5042,-0.46,-0.4081,-0.3489,-0.3282,-0.3009,-0.2643,-0.2473,-0.2307,-0.2167,-0.2044,-0.1891,-0.1667,-0.0866,-0.0422,0.0,0.0,0.0,0.0,0.0,0.0,0.0,0.0,0.0,0.0,0.0,0.0,0.0,0.0,0.0,-3.3241,-3.43,-3.5544,-3.7117,-3.7257,-3.7142,-3.6798,-3.6761,-3.7268,-3.8572,-3.8844,-3.917,-3.9786,-3.9985,-4.004,-3.9969,-4.0113,-4.0149,-4.0002,-4.0089,-4.0065,-3.9932,-3.9736,-3.9534,-3.9346,0.0,0.0,-3.8674,-3.8414,-3.812,-3.7868,-3.7511,-3.7152,-3.682,-3.6317,-3.5392,-3.4171,-3.2704,-3.1731,-3.1074,-3.0618,-3.0097,-2.9524,-2.9124,-2.8291,-2.7317,-2.6694,-2.5952,-2.5077,-2.4403,-2.3858,0.0,-2.2538,-2.1971,-2.1337,-2.0354,-1.9689,-1.9062,-1.828,-1.7574,-1.697,-1.6517,-1.5937,-1.5298,-1.4781,-1.4236,-1.3738,-1.3264,-1.2482,-1.1688,-1.0934,-1.0764,-1.0379,-0.9532,-0.9242,-0.89,-0.8342,-0.7836,-0.7389,-0.6909,-0.6271,-0.5862,-0.5726,-0.5069,-0.4639,-0.4501,-0.3917,-0.3543,-0.3459,-0.3062,-0.2783,-0.2589,-0.2567,-0.2437,-0.2224,-0.1485,-0.1044,0.0,0.0,0.0,0.0,0.0,0.0,0.0,0.0,0.0,0.0,0.0,-2.9913,0.0,0.0,-3.3841,-3.5595,-3.6288,-3.7199,-3.8941,-3.9264,-3.9155,-3.8808,-3.8753,-3.9061,-3.9876,-3.9948,-4.0076,-4.0438,-4.0474,-4.0402,-4.0328,-4.0706,-4.0829,-4.0659,-4.1032,-4.1127,-4.0966,-4.07,-4.0531,-4.0463,-4.0113,-3.9887,-3.975,-3.9358,-3.9052,-3.8937,-3.8187,-3.7718,-3.7343,-3.6388,-3.5495,-3.4676,-3.3709,-3.2656,-3.1678,-3.1321,-3.0752,-3.0053,-2.9528,-2.8668,-2.7683,-2.6791,-2.6029,-2.527,-2.4353,-2.3734,-2.3258,-2.2653,-2.2173,-2.1628,-2.0785,-2.0128,-1.9552,-1.871,-1.804,-1.7423,-1.698,-1.6221,-1.552,-1.5191,-1.4625,-1.4076,-1.3829,-1.3325,-1.2709,-1.1746,-1.1353,-1.1011,-1.0466,-1.0003,-0.9485,-0.889,-0.8443,-0.7957,-0.7414,-0.6657,-0.6188,-0.6086,-0.5582,-0.5229,-0.5046,-0.4705,-0.4393,-0.42,-0.3735,-0.3452,-0.3339,-0.312,-0.2912,-0.2745,-0.2341,-0.1942,0.0,0.0,0.0,0.0,0.0,0.0,0.0,0.0,-2.9614,-3.058,-3.123,-3.2228,-3.4111,-3.4447,-3.5279,-3.7721,-3.8133,-3.8707,-4.0364,-4.0599,-4.0653,-4.089,-4.0673,-4.0546,-4.0709,-4.0673,-4.0709,-4.0834,-4.0834,-4.0741,-4.061,-4.122,-4.1483,-4.1301,-4.1925,-4.2139,-4.1902,-4.171,-4.1648,-4.1653,-4.1284,-4.1133,-4.1174,-4.0713,-4.0375,-4.0087,-3.8781,-3.8097,-3.7763,-3.627,-3.5537,-3.5294,-3.4635,-3.3694,-3.2558,-3.2224,-3.1456,-3.0517,-2.9915,-2.9087,-2.8124,-2.7037,-2.6194,-2.5453,-2.4354,-2.3599,-2.2957,-2.2482,-2.1999,-2.1498,-2.0978,-2.0442,-1.9879,-1.919,-1.8516,-1.7875,-1.7443,-1.6572,-1.5866,-1.5718,-1.5004,-1.4445,-1.4445,-1.4072,-1.3475,-1.2499,-1.1986,-1.1581,-1.128,-1.0648,-1.0027,-0.9502,-0.9056,-0.8512,-0.7741,-0.7065,-0.6594,-0.6405,-0.6144,-0.5845,-0.5516,-0.5441,-0.5249,-0.4895,-0.4449,-0.4162,-0.4083,-0.3679,-0.3389,-0.3217,-0.3132,-0.2757,-2.5643,-2.6097,-2.6934,-2.8262,-2.87,-2.9165,0.0,0.0,-3.1352,-3.2845,-3.3196,-3.3951,-3.6297,-3.6834,-3.7534,-3.934,-3.9741,-4.0195,-4.1153,-4.1279,-4.1548,-4.2289,-4.1193,-4.069,-4.1431,-4.1355,-4.1605,-4.2286,-4.234,-4.2261,-4.206,-4.2149,-4.2121,-4.1906,-4.1995,-4.1902,-4.1648,-4.1604,-4.173,-4.1937,-4.1888,-4.1953,-4.2136,-4.2083,-4.1376,-4.0204,-3.8962,-3.8149,-3.7642,-3.6695,-3.5947,-3.5427,-3.466,-3.3968,-3.3321,-3.2676,-3.1797,-3.0852,-3.0392,-2.9508,-2.8563,-2.7919,-2.6668,-2.5316,-2.4797,-2.3831,-2.2848,-2.2371,-2.1851,-2.1336,-2.0862,-2.0335,-1.9846,-1.9607,-1.8936,-1.8348,-1.7885,-1.7366,-1.6766,-1.6256,-1.5554,-1.4976,-1.4852,-1.4371,-1.3749,-1.3029,-1.2762,-1.2329,-1.1506,-1.1296,-1.0976,-1.027,-0.9892,-0.9207,-0.8067,-0.7807,-0.7459,-0.6783,-0.6704,-0.6538,-0.6206,-0.5889,-0.57,-0.5596,-0.5181,-0.4766,-0.4355,-0.4241,-0.3992,-0.3626,-0.3499,-0.3153,-2.8576,-2.9239,0.0,0.0,-3.1108,-3.1855,-3.2388,-3.2897,-3.3529,-3.4635,-3.5214,-3.599,-3.751,-3.8223,-3.8956,0.0,-4.0468,-4.0816,-4.1663,-4.181,-4.1953,-4.2374,-4.1819,-4.159,-4.2127,-4.2067,-4.2113,-4.2414,-4.2351,-4.2246,-4.2157,-4.2055,-4.2121,-4.2405,-4.2351,-4.2426,-4.2614,-4.2519,-4.25,-4.2532,-4.2279,-4.2174,-4.2126,-4.1854,-4.1259,-4.0393,-3.9484,-3.879,-3.8109,-3.7326,-3.6662,-3.603,-3.5322,-3.4585,-3.3794,-3.2629,-3.1839,-3.1183,-3.0211,-2.9543,-2.8892,-2.7988,-2.7028,-2.6113,-2.515,-2.4179,-2.3257,-2.2642,-2.195,-2.1273,-2.0797,-2.027,-1.9868,-1.9671,-1.9019,-1.8432,-1.8308,-1.7662,-1.7042,-1.6795,-1.6111,-1.5503,-1.5253,-1.4832,-1.4344,-1.3841,-1.3401,-1.2937,-1.2281,-1.197,-1.1438,-1.0529,-0.9943,-0.9373,-0.8816,-0.8355,-0.8015,-0.7701,-0.7357,-0.7089,-0.6947,-0.6587,-0.6357,-0.6357,-0.5879,-0.5538,-0.5341,-0.5025,-0.468,-0.4267,-0.4178,-0.385,-3.1085,0.0,0.0,-3.2444,-3.321,-3.397,-3.4072,-3.4563,-3.5194,-3.591,-3.6523,-3.7246,-3.8286,-3.9001,-3.9788,-4.0859,-4.1078,-4.1357,-4.1966,-4.2079,-4.2121,-4.2222,-4.2121,-4.2163,-4.2369,-4.231,-4.2287,-4.2222,-4.2079,-4.2083,-4.2202,-4.2071,-4.2271,-4.2888,-4.2865,-4.2936,-4.3212,-4.3097,-4.2997,-4.3048,-4.2678,-4.2438,-4.2423,-4.1749,-4.1145,-4.0562,-3.9909,-3.9234,-3.8482,-3.7977,-3.7241,-3.6438,-3.5939,-3.5145,-3.408,-3.2757,-3.1917,-3.1386,-3.0255,-2.9652,-2.9146,-2.8062,-2.7307,-2.6569,-2.5576,-2.4632,-2.3737,-2.2939,-2.2157,-2.1383,-2.082,-2.027,-1.9802,-1.9605,-1.9075,-1.8549,-1.8482,-1.7955,-1.7397,-1.7264,-1.6731,-1.6232,-1.5858,-1.5427,-1.5001,-1.4708,-1.4187,-1.3654,-1.3043,-1.2502,-1.1748,-1.0779,-1.0223,-0.9821,-0.9477,-0.9003,-0.8634,-0.8468,-0.8016,-0.7686,-0.7469,-0.7167,-0.6976,-0.6863,-0.6469,-0.6189,-0.6107,-0.5739,-0.5348,-0.4972,-0.4774,-0.4478,0.0,0.0,-3.4001,-3.473,-3.4836,-3.4939,-3.5486,-3.564,-3.5846,-3.6533,-3.6684,-3.7154,-3.8711,-3.9143,-3.9821,-4.1323,-4.1762,-4.197,-4.2005,-4.2005,-4.2005,-4.2005,-4.2005,-4.1945,0.0,-4.1945,-4.2005,-4.2005,-4.1884,-4.2053,-4.2658,-4.2608,-4.2865,-4.3454,-4.3343,-4.3212,-4.308,-4.2843,-4.2959,-4.3386,-4.3037,-4.3139,-4.3529,-4.2223,-4.1287,-4.0737,-3.9882,-3.9139,-3.8477,-3.8477,-3.7669,-3.6402,-3.6402,-3.5533,-3.4298,-3.3231,-3.2402,-3.1593,-3.0777,-3.0034,-2.9347,-2.8527,-2.7418,-2.6323,-2.5983,-2.5156,-2.4087,-2.2982,-2.2285,-2.169,-2.0921,-2.014,-1.9605,-1.9605,-1.9208,-1.8741,-1.8549,-1.8405,-1.8182,-1.7755,-1.736,-1.7005,-1.6892,-1.6135,-1.5576,-1.5567,-1.5217,-1.4557,-1.3491,-1.2742,-1.1979,-1.119,-1.1084,-1.071,-0.995,-0.9862,-0.9535,-0.8814,-0.8789,-0.8388,-0.7626,-0.7581,-0.7386,-0.6996,-0.6927,-0.6713,-0.6392,-0.6237,-0.6012,-0.565,-0.5131,-0.4887,0.0,0.0,-3.6305,-3.7026,-3.7435,-3.7714,-3.7895,-3.7498,-3.7161,-3.738,-3.7433,-3.7572,-3.8136,-3.8701,-3.9425,-4.0438,-4.0656,-4.092,-4.1383,-4.1453,-4.1453,-4.1453,-4.1453,0.0,0.0,0.0,0.0,-4.2377,-4.2258,-4.248,-4.3088,-4.2996,-4.3212,-4.3786,-4.3735,-4.3819,-4.4031,-4.3939,-4.3838,-4.3638,-4.3171,-4.2883,-4.2929,-4.1997,-4.1501,-4.129,-4.0478,-3.9787,-3.9118,-3.8614,-3.788,-3.6977,-3.607,-3.535,-3.4759,-3.3575,-3.2848,-3.2152,-3.0814,-3.0009,-2.9375,-2.8611,-2.7773,-2.6904,-2.6299,-2.5518,-2.4658,-2.378,-2.308,-2.2428,-2.1395,-2.0809,-2.0333,-1.9745,-1.9274,-1.8942,-1.8741,-1.8472,-1.8269,-1.8124,-1.7803,-1.7418,-1.7082,-1.6739,-1.6239,-1.5671,-1.5008,-1.4459,-1.4138,-1.3348,-1.2674,-1.2347,-1.1831,-1.1242,-1.0622,-1.0416,-1.0082,-0.9499,-0.93,-0.9059,-0.8816,-0.8233,-0.7871,-0.7723,-0.7412,-0.7189,-0.7051,-0.6917,-0.6682,-0.6367,-0.6074,-0.5689,-3.6667,-3.7408,-3.8192,-3.8566,-3.8877,-3.8988,-3.8667,-3.8146,-3.7644,-3.7324,-3.7255,-3.7366,-3.7662,-3.813,-3.8782,-3.9529,-3.9921,-4.0252,-4.0739,-4.1035,-4.1209,-4.1209,-4.1406,-4.1742,0.0,0.0,0.0,-4.284,-4.2714,-4.293,-4.3542,-4.3442,-4.3631,-4.428,-4.4153,-4.4211,-4.4463,-4.4293,-4.3931,-4.3355,-4.3007,-4.2571,-4.2238,-4.1785,-4.1456,-4.1189,-4.073,-4.014,-3.9397,-3.8963,-3.8236,-3.7246,-3.6426,-3.5552,-3.4654,-3.3846,-3.3125,-3.2365,-3.1099,-3.0228,-2.9497,-2.8657,-2.7858,-2.7079,-2.6371,-2.579,-2.5208,-2.4246,-2.3686,-2.3039,-2.1902,-2.1373,-2.0924,-2.0044,-1.966,-1.9339,-1.8916,-1.8607,-1.8472,-1.8405,-1.8124,-1.7833,-1.756,-1.7147,-1.6593,-1.5875,-1.5244,-1.4763,-1.444,-1.3739,-1.3247,-1.3002,-1.2372,-1.1799,-1.1305,-1.0929,-1.0559,-1.0096,-0.981,-0.9591,-0.9448,-0.8948,-0.8531,-0.8223,-0.7902,-0.7671,-0.7499,-0.7421,-0.7252,-0.6999,-0.6767,-0.6364,-3.7571,-3.8514,-3.95,-3.9427,-3.9283,-3.8928,-3.7949,-3.7698,-3.7395,-3.6515,-3.6266,-3.6456,0.0,0.0,-3.7819,-3.852,-3.9415,-3.9998,-4.0033,-4.0694,-4.118,0.0,0.0,0.0,0.0,0.0,0.0,-4.3333,0.0,-4.3425,-4.4009,-4.3972,-4.4207,-4.4759,-4.4575,-4.4406,-4.4253,-4.3789,-4.3251,-4.2634,-4.2571,-4.2238,-4.1588,-4.1588,-4.1189,-4.0524,-4.0455,-4.0051,-3.9424,-3.9352,-3.8545,-3.7346,-3.7317,-3.6026,-3.4267,-3.3994,-3.3183,-3.2128,-3.1544,-3.0724,-2.9757,-2.8746,-2.7773,-2.6914,-2.6383,-2.6037,-2.566,-2.4364,-2.3956,-2.3572,-2.2421,-2.1893,-2.1424,-2.0535,-2.026,-1.9907,-1.9075,-1.8828,-1.8741,-1.8549,-1.8414,-1.8337,-1.8337,-1.7445,-1.6611,-1.6223,-1.592,-1.5438,-1.4563,-1.406,-1.3622,-1.3214,-1.2805,-1.2387,-1.1949,-1.1521,-1.1094,-1.0656,-1.0337,-0.9964,-0.9587,-0.9668,-0.9328,-0.8481,-0.8422,-0.8206,-0.7764,-0.7705,-0.7686,-0.7608,-0.7137,-0.6892,-3.9522,-3.9975,-4.0288,-4.0736,-4.0715,-4.0388,-3.95,-3.8787,-3.7966,-3.6577,-3.5828,-3.528,0.0,0.0,0.0,-3.6612,-3.783,0.0,-3.9478,-4.0199,0.0,0.0,0.0,-4.2208,-4.3305,-4.3527,0.0,0.0,-4.3885,-4.3902,-4.4347,-4.4342,-4.4333,-4.427,-4.4064,-4.3889,-4.3789,-4.3174,-4.2759,-4.2571,-4.2109,-4.1785,-4.1588,-4.1055,-4.0662,-4.0455,-3.991,-3.9553,-3.9337,-3.8738,-3.8264,-3.7852,-3.7017,-3.6184,-3.5475,-3.4196,-3.3386,-3.2651,-3.179,-3.0983,-3.0085,-2.9009,-2.8158,-2.7493,-2.63,-2.598,-2.5746,-2.4826,-2.459,-2.4247,-2.301,-2.2592,-2.234,-2.1307,-2.078,-2.0343,-1.9886,-1.938,-1.8942,-1.8741,-1.8549,-1.8482,-1.8482,-1.7945,-1.7426,-1.6996,-1.6618,-1.6108,-1.5448,-1.5117,-1.4715,-1.4278,-1.3789,-1.3224,-1.2507,-1.2327,-1.1939,-1.1173,-1.1024,-1.0805,-1.0328,-1.0073,-0.9828,-0.9597,-0.89,-0.8478,-0.8368,-0.8009,-0.784,-0.7811,-0.7645,-0.7401,-4.0327,-4.0691,-4.0928,-4.1202,-4.0926,-4.0366,-3.9496,-3.8415,-3.7249,-3.6035,-3.5108,0.0,0.0,0.0,0.0,0.0,0.0,0.0,-3.8709,-3.9512,-4.04,0.0,-4.1852,0.0,-4.3588,-4.3888,-4.4135,0.0,-4.4202,-4.4207,-4.4333,-4.4293,-4.4196,-4.3923,-4.3789,-4.3535,-4.319,-4.2821,-4.2508,-4.227,-4.1785,-4.1522,-4.1355,-4.0799,-4.0401,-4.0261,0.0,-3.9265,-3.9104,-3.8427,-3.8127,-3.7872,-3.6997,-3.6304,-3.5649,-3.4389,-3.3492,-3.2656,-3.187,-3.1162,-3.0472,-2.9387,-2.851,-2.7723,-2.6565,-2.6095,-2.577,-2.5004,-2.479,-2.4576,-2.3618,-2.325,-2.2983,-2.1996,-2.1469,-2.107,-2.0578,-1.996,-1.938,-1.8916,-1.8674,-1.8617,-1.8549,-1.8167,-1.7714,-1.7292,-1.69,-1.6516,-1.608,-1.5568,-1.5184,-1.4932,-1.4326,-1.3681,-1.3188,-1.2888,-1.2497,-1.1989,-1.1675,-1.1377,-1.1131,-1.0726,-1.0433,-1.0226,-0.9719,-0.9221,-0.8818,-0.855,-0.8294,-0.807,-0.8023,-0.7873,-4.0525,-4.0901,-4.1307,-4.114,-4.0504,-3.9628,-3.8674,-3.7335,-3.5966,-3.4868,0.0,-3.3534,-3.3345,0.0,-3.368,-3.4413,0.0,-3.6427,-3.7826,-3.8781,-3.9924,-4.1528,-4.2124,-4.2749,-4.3432,-4.408,-4.4347,-4.4248,-4.4529,-4.4529,-4.4248,-4.419,-4.4047,-4.3773,-4.3789,-4.3469,-4.2846,-4.2686,-4.2398,-4.1976,-4.1652,-4.1339,-4.1049,-4.0608,-4.0261,-3.9925,-3.9481,-3.9104,-3.8782,-3.8277,-3.7901,-3.7534,-3.7148,-3.6423,-3.5493,-3.4747,-3.3702,-3.2501,-3.1929,-3.1439,-3.082,-2.9789,-2.8818,-2.7806,-2.6949,-2.634,-2.577,-2.5076,-2.479,-2.4646,-2.4116,-2.3824,-2.3419,-2.2622,-2.2241,-2.1945,-2.124,-2.0599,-1.9897,-1.9101,-1.8942,-1.8875,-1.8684,-1.835,-1.7999,-1.7509,-1.7175,-1.6904,-1.6576,-1.5941,-1.5456,-1.5406,-1.4633,-1.4053,-1.3993,-1.3375,-1.2919,-1.2857,-1.233,-1.195,-1.1823,-1.1482,-1.1058,-1.0616,-1.0552,-1.015,-0.9318,-0.919,-0.8912,-0.8432,-0.8368,-0.8319,-4.0934,-4.1094,-4.114,-4.1093,-4.0395,-3.9399,-3.7974,-3.6956,0.0,0.0,0.0,-3.1671,-3.0942,-3.1274,0.0,-3.2642,0.0,0.0,0.0,0.0,-3.9816,0.0,0.0,0.0,0.0,0.0,0.0,0.0,0.0,-4.5424,-4.478,-4.466,-4.4681,-4.4738,-4.4626,-4.4366,-4.4202,-4.3277,-4.2709,-4.2442,-4.1621,-4.095,-4.0593,-4.0261,-3.998,-3.9696,-3.9162,0.0,-3.8708,-3.7991,-3.7687,-3.7534,-3.6943,-3.6559,-3.617,-3.5329,-3.4248,-3.3192,-3.2528,-3.177,-3.082,-2.9789,-2.9087,-2.8316,-2.7061,-2.634,-2.577,-2.5194,-2.4921,-2.4718,-2.4273,-2.397,-2.3728,-2.3261,-2.2783,-2.2391,-2.1945,-2.0973,-2.0111,-1.9568,-1.9473,-1.9473,-1.9417,-1.9344,-1.9133,-1.8659,-1.8247,-1.7782,-1.7366,-1.6738,-1.6252,-1.5985,-1.5448,-1.4953,-1.4563,-1.4105,-1.363,-1.3239,-1.3114,-1.2669,-1.1925,-1.1818,-1.1563,-1.1068,-1.0794,-1.0586,-1.0413,-0.97,-0.9294,-0.9207,-0.8746,-0.8544,-4.1094,-4.1123,-4.099,-4.0481,-3.9744,-3.8732,-3.7215,0.0,0.0,0.0,0.0,-3.0551,-2.9746,0.0,0.0,0.0,0.0,0.0,0.0,0.0,0.0,0.0,0.0,0.0,0.0,0.0,0.0,0.0,0.0,-4.5616,-4.5206,-4.5019,-4.4915,-4.5,-4.4755,-4.449,-4.4372,-4.3631,-4.3184,-4.3016,-4.1944,-4.1341,-4.0977,-4.0289,-3.9854,-3.9553,-3.9017,-3.8723,-3.8575,-3.7915,-3.7625,-3.7548,-3.6786,-3.6484,-3.6322,-3.5309,-3.4319,-3.3338,-3.2675,-3.1849,-3.0872,-3.0198,-2.9587,-2.8877,-2.7653,-2.6818,-2.6196,-2.5396,-2.5052,-2.4849,-2.449,-2.42,-2.397,-2.3666,-2.3267,-2.2805,-2.2252,-2.1441,-2.0679,-2.0073,-1.9775,-1.9605,-1.9605,-1.9605,-1.9445,-1.8967,-1.8488,-1.808,-1.7776,-1.7266,-1.6834,-1.6499,-1.6041,-1.5626,-1.5207,-1.4784,-1.4417,-1.3976,-1.3794,-1.3445,-1.3017,-1.2524,-1.2162,-1.1932,-1.1498,-1.116,-1.0906,-1.0498,-1.0031,-0.9489,-0.9226,-0.8983,-4.0834,-4.0787,-4.0631,-3.9899,-3.8888,-3.7749,-3.6387,-3.4702,0.0,0.0,-3.0333,-2.9525,-2.8876,0.0,0.0,0.0,0.0,0.0,0.0,0.0,0.0,0.0,0.0,0.0,0.0,0.0,0.0,0.0,0.0,0.0,-4.5633,-4.5522,-4.5407,-4.5341,-4.5024,-4.4821,-4.4617,-4.4076,-4.3787,-4.3545,-4.2505,-4.182,-4.1382,-4.0593,-3.9919,-3.9337,-3.8943,-3.8723,-3.8441,-3.7839,-3.7625,-3.7534,-3.6786,-3.6484,-3.6256,-3.5446,-3.4414,-3.3429,-3.2898,-3.1955,-3.0986,-3.0596,-2.9997,-2.9298,-2.8324,-2.7445,-2.6611,-2.5743,-2.5337,-2.504,-2.4706,-2.4418,-2.42,-2.397,-2.3604,-2.3165,-2.2595,-2.1909,-2.1231,-2.0608,-2.0068,-1.9681,-1.9681,-1.9736,-1.9684,-1.9308,-1.8749,-1.8365,-1.8291,-1.7742,-1.7267,-1.7032,-1.6546,-1.6127,-1.5756,-1.5378,-1.5041,-1.466,-1.4351,-1.4115,-1.4003,-1.3316,-1.285,-1.2636,-1.2242,-1.1827,-1.133,-1.1262,-1.0809,-1.0026,-0.9924,-0.9636,-3.9848,-3.9802,-3.9784,-3.9715,-3.8094,-3.6301,-3.549,0.0,0.0,-2.9828,-2.8799,-2.8133,-2.7943,-2.7958,0.0,0.0,0.0,0.0,0.0,0.0,0.0,0.0,0.0,0.0,0.0,0.0,0.0,0.0,0.0,0.0,-4.6093,-4.6613,-4.6835,-4.6459,-4.6282,-4.6087,-4.5905,-4.4883,-4.4282,-4.4096,-4.3149,-4.214,-4.107,-4.0937,-4.0269,-3.9104,-3.887,-3.8723,0.0,-3.7839,-3.7625,-3.7548,-3.6943,-3.6563,-3.6391,-3.6097,-3.5029,-3.3638,-3.3429,-3.2439,-3.1198,-3.0761,-3.0147,-2.9374,-2.88,-2.7828,-2.6887,-2.642,-2.5828,-2.5241,-2.5123,-2.4766,-2.4345,-2.397,-2.3751,-2.3458,-2.2954,-2.2343,-2.1727,-2.1229,-2.0544,-2.0074,-2.0074,-2.0216,-2.0324,-2.0279,-1.961,-1.9108,-1.9063,-1.8237,-1.7656,-1.7601,-1.7209,-1.6707,-1.6165,-1.5724,-1.528,-1.481,-1.4743,-1.4496,-1.4026,-1.4012,-1.3633,-1.2714,-1.2827,-1.2614,-1.2105,-1.1722,-1.1521,-1.1415,-1.097,-1.0508,-3.9026,-3.9026,-3.8922,-3.8474,-3.7318,-3.587,-3.4197,0.0,0.0,-2.9007,-2.8271,-2.781,-2.7232,-2.752,-2.818,0.0,0.0,0.0,0.0,0.0,0.0,0.0,0.0,0.0,0.0,0.0,0.0,0.0,0.0,0.0,-4.6608,-4.673,-4.6738,-4.6582,-4.6349,-4.6096,-4.588,-4.5233,-4.4783,-4.4635,-4.3568,-4.2597,-4.1574,-4.1092,-4.0081,-3.8943,-3.8855,-3.8649,0.0,-3.7763,-3.7625,-3.7548,-3.6943,-3.6563,-3.6405,-3.6166,-3.507,-3.3715,-3.3651,-3.2555,-3.1272,-3.0986,-3.0605,-3.0059,-2.9252,-2.8299,-2.7394,-2.6927,-2.6149,-2.5465,-2.5241,-2.4838,-2.449,-2.4273,-2.4043,-2.3694,-2.3564,-2.2992,-2.2358,-2.1855,-2.1297,-2.0797,-2.052,-2.054,-2.0604,-2.0604,-2.0001,-1.9565,-1.9332,-1.8805,-1.8372,-1.813,-1.7696,-1.7272,-1.6962,-1.6462,-1.6021,-1.573,-1.5383,-1.5118,-1.4898,-1.4641,-1.4294,-1.393,-1.338,-1.3035,-1.2787,-1.2318,-1.1907,-1.1601,-1.1402,-1.1069,-3.7577,-3.7577,-3.7456,-3.6939,-3.6042,-3.4818,0.0,0.0,0.0,-2.8476,-2.7879,-2.7488,-2.6826,-2.7131,-2.7824,-2.8822,0.0,-3.1187,0.0,0.0,0.0,0.0,0.0,0.0,0.0,0.0,0.0,0.0,0.0,0.0,-4.6807,-4.6598,-4.6528,-4.6528,-4.6223,-4.5952,-4.5735,-4.5368,-4.5129,-4.4874,-4.4019,-4.3045,-4.1984,-4.1262,-4.0187,-3.8782,-3.8782,-3.8575,0.0,-3.7763,-3.7625,-3.7548,-3.7007,-3.6628,-3.6484,-3.6246,-3.5227,-3.3869,-3.3715,-3.2707,-3.1421,-3.1198,-3.0911,-3.062,-2.9894,-2.8885,-2.7851,-2.7391,-2.6426,-2.5535,-2.5382,-2.4969,-2.4634,-2.4574,-2.4345,-2.4043,-2.4043,-2.35,-2.2849,-2.2284,-2.1778,-2.1218,-2.0758,-2.0733,-2.0786,-2.0786,-2.0409,-1.9973,-1.9593,-1.9275,-1.8881,-1.8522,-1.8139,-1.7824,-1.752,-1.7023,-1.6613,-1.6315,-1.582,-1.5513,-1.5513,-1.5171,-1.4943,-1.4778,-1.3982,-1.3498,-1.338,-1.2806,-1.2353,-1.1961,-1.1961,-1.1733,-3.5232,-3.5232,-3.5232,-3.5214,-3.4076,-3.2748,0.0,0.0,0.0,-2.8271,-2.747,-2.6859,-2.6742,-2.6708,-2.7199,-2.8738,-2.9395,0.0,0.0,0.0,0.0,0.0,0.0,0.0,0.0,0.0,0.0,0.0,0.0,0.0,-4.6582,-4.6388,-4.6333,-4.6333,-4.6168,-4.5896,-4.5515,-4.5294,-4.5129,-4.4874,-4.4496,-4.3503,-4.1999,-4.1805,-4.0621,-3.8782,-3.8782,-3.8575,0.0,-3.7763,-3.7625,-3.7534,-3.7148,-3.685,-3.6642,-3.6484,-3.554,-3.4251,-3.3869,-3.2872,-3.1817,-3.1421,-3.1123,-3.0986,-3.0773,-2.9574,-2.8303,-2.7925,-2.6709,-2.5535,-2.5382,-2.5182,-2.5052,-2.4861,-2.4646,-2.449,-2.449,-2.3787,-2.306,-2.2491,-2.1846,-2.1218,-2.0758,-2.0786,-2.0903,-2.0903,-2.0795,-2.0482,-1.9971,-1.9574,-1.9171,-1.8672,-1.8614,-1.8348,-1.7831,-1.7314,-1.6808,-1.6315,-1.582,-1.5513,-1.5513,-1.5614,-1.5485,-1.5019,-1.4611,-1.4179,-1.3779,-1.3178,-1.2896,-1.2896,-1.2896,-1.2648,-3.43,-3.4438,-3.4438,-3.4438,-3.3283,-3.1955,-3.1214,0.0,0.0,-2.7585,-2.7161,-2.6942,-2.6842,-2.6742,-2.7199,-2.8738,-2.8958,0.0,0.0,0.0,0.0,0.0,0.0,0.0,0.0,0.0,0.0,0.0,0.0,0.0,-4.6582,-4.6349,-4.6152,-4.6152,-4.588,-4.5589,-4.5294,-4.5129,-4.4889,-4.4648,-4.3823,-4.2925,-4.1984,-4.1129,-4.007,-3.8782,-3.8782,-3.8575,-3.8202,-3.7915,-3.7701,-3.7548,-3.7303,-3.7007,-3.6721,-3.6642,-3.5618,-3.4251,-3.4175,-3.3173,-3.189,-3.173,-3.1508,-3.1198,-3.0986,-2.9992,-2.8708,-2.7588,-2.6664,-2.591,-2.5606,-2.5382,-2.5182,-2.5052,-2.4849,-2.4718,-2.4718,-2.4517,-2.4061,-2.3107,-2.2805,-2.2356,-2.1522,-2.1446,-2.1434,-2.1434,-2.1432,-2.1073,-2.017,-2.0028,-1.9693,-1.8976,-1.8946,-1.8886,-1.8507,-1.8061,-1.7637,-1.7231,-1.6771,-1.6345,-1.5981,-1.6025,-1.5983,-1.5844,-1.536,-1.482,-1.437,-1.3779,-1.3312,-1.2896,-1.2978,-1.2741,0.0,-3.2352,-3.2352,-3.2352,-3.1645,0.0,0.0,0.0,0.0,-2.7289,-2.7055,-2.6992,-2.6926,-2.7029,-2.752,-2.8772,-2.9244,0.0,0.0,0.0,0.0,0.0,0.0,0.0,0.0,0.0,0.0,0.0,0.0,0.0,-4.6458,-4.6223,-4.604,-4.5968,-4.5662,-4.5368,-4.522,-4.4964,-4.46,-4.4127,-4.3335,-4.25,-4.1516,-4.074,-3.9802,-3.8782,-3.8782,-3.8575,0.0,-3.8005,-3.7853,-3.7701,-3.738,-3.7162,-3.6943,-3.6786,-3.5773,-3.4479,-3.4327,-3.3309,-3.2096,-3.1963,-3.1656,-3.136,-3.1061,-3.0041,-2.8778,-2.7578,-2.6797,-2.6188,-2.5898,-2.5606,-2.5394,-2.5324,-2.5123,-2.4921,-2.4921,-2.4861,-2.4472,-2.3414,-2.3203,-2.2885,-2.1875,-2.1698,-2.1698,-2.1698,-2.1761,-2.1504,-2.0701,-2.0532,-2.0237,-1.9546,-1.9332,-1.9223,-1.9064,-1.8621,-1.8189,-1.7702,-1.726,-1.6765,-1.6225,-1.62,-1.6244,-1.6275,-1.5785,-1.538,-1.5084,-1.4362,-1.3713,-1.3138,-1.322,-1.3044,0.0,0.0,0.0,0.0,0.0,0.0,0.0,0.0,0.0,0.0,0.0,0.0,-2.6926,-2.7402,-2.8078,-2.8856,0.0,0.0,0.0,0.0,0.0,0.0,0.0,0.0,0.0,0.0,0.0,0.0,0.0,0.0,-4.6182,-4.6136,-4.5968,-4.5807,-4.5541,-4.5321,-4.522,-4.4918,-4.4262,-4.3273,-4.297,-4.2107,-4.0676,-4.0426,-3.9757,0.0,-3.8782,-3.8575,-3.8202,-3.7991,-3.7929,-3.7853,-3.7457,-3.7303,-3.7226,-3.6864,-3.5927,-3.4854,-3.4479,-3.3518,-3.2345,-3.2023,-3.1817,-3.1535,-3.1136,-2.9982,-2.8626,-2.7908,-2.7126,-2.6408,-2.627,-2.591,-2.5606,-2.5606,-2.5394,-2.5111,-2.5123,-2.4992,-2.4555,-2.3529,-2.3293,-2.2963,-2.1985,-2.1785,-2.1761,-2.1761,-2.1874,-2.1808,-2.1476,-2.1052,-2.0665,-2.0281,-1.9752,-1.942,-1.942,-1.8966,-1.8437,-1.7896,-1.7355,-1.686,-1.6318,-1.6256,-1.6275,-1.6436,-1.5982,-1.5787,-1.5881,-1.4878,-1.4117,-1.3544,-1.3506,-1.348,-2.6661,0.0,-2.9506,-2.9506,-2.9075,0.0,0.0,0.0,0.0,0.0,0.0,0.0,0.0,0.0,0.0,0.0,0.0,0.0,0.0,0.0,0.0,0.0,0.0,0.0,0.0,0.0,0.0,0.0,0.0,-4.5533,-4.5324,-4.5651,-4.5807,-4.5589,-4.4851,-4.4763,-4.522,-4.4378,-4.3725,-4.3273,-4.2028,-4.1213,-4.0661,-3.9946,-3.9399,-3.9017,-3.887,-3.8649,-3.8441,-3.8202,-3.8066,-3.7853,-3.7777,-3.7548,-3.7303,-3.7226,-3.622,-3.4929,-3.478,-3.3813,-3.2561,-3.2241,-3.1963,-3.1743,-3.1522,-3.0698,-2.9567,-2.871,-2.7933,-2.7177,-2.654,-2.6176,-2.598,-2.584,-2.577,-2.5688,-2.5535,-2.5477,-2.5143,-2.4321,-2.3891,-2.3424,-2.2779,-2.2336,-2.2135,-2.2247,-2.2235,-2.2165,-2.1834,-2.1329,-2.0834,-2.0469,-1.9899,-1.9617,-1.9836,-1.9556,-1.9143,-1.8598,-1.8161,-1.7706,-1.7206,-1.6804,-1.6633,-1.6791,-1.6217,-1.5964,-1.5964,-1.4902,-1.4336,-1.4182,-1.3766,-1.3547,-2.5402,-2.6747,-2.804,-2.8403,-2.8196,-2.7902,0.0,0.0,0.0,0.0,0.0,0.0,0.0,0.0,0.0,0.0,0.0,0.0,0.0,0.0,0.0,0.0,0.0,0.0,0.0,0.0,0.0,0.0,0.0,-4.4729,-4.4522,-4.4709,-4.4772,-4.4542,-4.3966,-4.3962,-4.4604,-4.3627,-4.2824,-4.2208,-4.1419,-4.0686,-4.0079,-3.9661,-3.9265,-3.9104,-3.887,-3.8723,-3.8441,-3.8277,-3.8142,-3.7991,-3.7929,-3.7777,-3.7534,-3.738,-3.6358,-3.5152,-3.4929,-3.396,-3.2704,-3.2503,-3.23,-3.2082,-3.1963,-3.1429,-3.0679,-2.9652,-2.8615,-2.7685,-2.724,-2.671,-2.6245,-2.6164,-2.6037,-2.584,-2.5758,-2.5758,-2.553,-2.4913,-2.439,-2.3867,-2.3332,-2.2785,-2.2432,-2.2555,-2.2555,-2.2506,-2.2392,-2.165,-2.1101,-2.1079,-2.0313,-1.9875,-2.008,-1.9978,-1.9636,-1.9131,-1.8649,-1.8139,-1.7632,-1.7097,-1.6846,-1.6918,-1.6651,-1.6395,-1.6244,-1.5646,-1.5123,-1.4637,-1.4332,-1.4044,-2.4764,-2.5454,-2.6161,-2.7057,-2.7299,-2.7333,0.0,0.0,0.0,0.0,0.0,0.0,0.0,0.0,0.0,0.0,0.0,0.0,0.0,0.0,0.0,0.0,0.0,0.0,0.0,0.0,0.0,0.0,0.0,-4.3926,-4.3806,-4.3712,-4.3567,-4.3396,-4.3075,-4.3111,-4.3515,-4.2813,-4.1939,-4.0997,-4.0906,-4.0326,-3.9424,-3.9424,-3.9337,-3.9104,0.0,0.0,-3.8516,-3.8366,-3.8202,-3.8202,-3.7991,-3.7929,-3.7853,-3.7534,-3.6585,-3.5419,-3.4854,-3.3879,-3.2775,-3.2775,-3.2632,-3.2417,-3.23,-3.2096,-3.1709,-3.0738,-2.947,-2.8342,-2.8022,-2.7334,-2.6596,-2.6452,-2.6233,-2.598,-2.598,-2.598,-2.5775,-2.532,-2.4718,-2.4153,-2.3686,-2.3096,-2.2678,-2.2739,-2.2739,-2.28,-2.2969,-2.2143,-2.1581,-2.1703,-2.0777,-2.0182,-2.0246,-2.0233,-2.0078,-1.9652,-1.9063,-1.8426,-1.7747,-1.7226,-1.696,-1.7044,-1.7044,-1.6922,-1.6665,-1.6586,-1.6068,-1.5185,-1.4999,-1.4639,-2.4694,-2.5121,-2.5505,-2.6937,-2.7299,-2.7454,0.0,0.0,0.0,0.0,0.0,0.0,0.0,0.0,0.0,0.0,0.0,0.0,0.0,0.0,0.0,0.0,0.0,0.0,0.0,0.0,0.0,0.0,0.0,-4.3075,-4.2905,-4.3236,-4.3325,-4.3185,-4.2412,-4.1968,-4.198,-4.1801,-4.148,-4.0982,-4.0421,-3.9888,-3.9424,-3.9424,-3.9352,-3.9337,0.0,-3.8943,-3.8723,-3.8516,-3.8366,-3.8202,-3.8142,-3.8066,-3.7853,-3.7853,-3.6885,-3.5495,-3.4243,-3.3452,-3.2988,-3.2988,-3.2846,-3.2632,-3.2632,-3.2372,-3.2082,-3.1915,-3.087,-2.9601,-2.8565,-2.7976,-2.7518,-2.6828,-2.6577,-2.6521,-2.6201,-2.6131,-2.6107,-2.58,-2.4976,-2.4275,-2.4189,-2.3341,-2.2739,-2.2848,-2.2969,-2.3078,-2.3283,-2.289,-2.2406,-2.1907,-2.1322,-2.0797,-2.05,-2.0461,-2.0472,-2.0481,-1.9726,-1.8845,-1.7924,-1.7427,-1.7212,-1.7321,-1.7321,-1.7338,-1.7342,-1.6877,-1.6597,-1.6397,-1.5385,-1.4852,-2.4743,-2.5114,-2.5571,-2.7466,-2.7917,-2.7971,0.0,0.0,0.0,0.0,0.0,0.0,0.0,0.0,0.0,0.0,0.0,0.0,0.0,0.0,0.0,0.0,0.0,0.0,0.0,0.0,0.0,0.0,0.0,0.0,-4.2094,-4.2176,-4.2213,-4.2022,-4.1503,-4.121,-4.1032,-4.1032,-4.0806,-4.0451,-4.0147,-3.9783,-3.9424,-3.9424,-3.9424,-3.9424,0.0,-3.9031,-3.8943,-3.8664,-3.8441,-3.8366,-3.8202,-3.8127,-3.7979,-3.7152,-3.6372,-3.5525,-3.4241,-3.3675,-3.3452,-3.3368,-3.3157,-3.3002,-3.2917,-3.2704,-3.2444,-3.2372,-3.142,-3.027,-2.9671,-2.8856,-2.8045,-2.758,-2.7161,-2.6807,-2.6683,-2.6615,-2.6615,-2.6533,-2.5879,-2.5224,-2.4922,-2.4192,-2.355,-2.3308,-2.3318,-2.3378,-2.3509,-2.307,-2.2621,-2.2043,-2.1532,-2.1069,-2.0727,-2.0738,-2.0594,-2.0218,-1.9608,-1.8891,-1.8087,-1.7626,-1.7406,-1.7461,-1.7461,-1.7502,-1.7625,-1.737,-1.7155,-1.6883,-1.6366,-1.5793,-2.4791,-2.5209,-2.5738,-2.7993,0.0,0.0,0.0,0.0,0.0,0.0,0.0,0.0,0.0,0.0,0.0,0.0,0.0,0.0,0.0,0.0,0.0,0.0,0.0,0.0,0.0,0.0,0.0,0.0,0.0,0.0,-4.1522,-4.1323,-4.1205,-4.1034,-4.0799,-4.0662,-4.0524,-4.0524,-4.0331,-4.0011,-4.0011,-3.9783,-3.9424,-3.9424,-3.9424,-3.9424,-3.9265,-3.9104,-3.9104,-3.8738,-3.859,-3.859,-3.8366,-3.819,-3.7854,-3.6563,-3.5842,-3.5411,-3.4323,-3.3965,-3.3896,-3.3744,-3.3536,-3.3382,-3.3213,-3.3002,-3.2775,-3.2632,-3.1874,-3.1079,-3.0658,-2.9742,-2.8782,-2.8313,-2.7717,-2.7246,-2.705,-2.7024,-2.7024,-2.7024,-2.6563,-2.5999,-2.5397,-2.4833,-2.4269,-2.3705,-2.3628,-2.3688,-2.3688,-2.336,-2.2933,-2.2289,-2.1888,-2.1433,-2.0941,-2.0924,-2.069,-2.0132,-1.9647,-1.9099,-1.8491,-1.7993,-1.7663,-1.7529,-1.7529,-1.7611,-1.7747,-1.7747,-1.7638,-1.7356,-1.7205,-1.6693,-2.4873,-2.5237,-2.5767,-2.8105,-2.8583,0.0,-3.0231,0.0,0.0,0.0,0.0,0.0,0.0,0.0,0.0,0.0,0.0,0.0,0.0,0.0,0.0,0.0,0.0,0.0,0.0,0.0,0.0,0.0,0.0,0.0,-4.1323,-4.1153,-4.1034,-4.0799,-4.0662,-4.0524,-4.0524,-4.0524,-4.0331,-4.0011,-4.0011,-3.9783,-3.9424,-3.9424,-3.9424,-3.9424,-3.9352,-3.9265,-3.9104,-3.9104,-3.8943,-3.8782,-3.859,-3.8017,-3.7288,-3.6577,-3.5782,-3.5035,-3.4358,-3.4005,-3.3896,-3.3896,-3.3896,-3.3827,-3.3605,-3.3396,-3.3241,-3.2988,-3.2733,-3.2297,-3.1253,-3.0766,-3.0135,-2.8703,-2.8347,-2.804,-2.7194,-2.7024,-2.7024,-2.7024,-2.6563,-2.5999,-2.5397,-2.4833,-2.4269,-2.3705,-2.376,-2.3891,-2.3891,-2.4047,-2.376,-2.2681,-2.263,-2.2246,-2.109,-2.0997,-2.0983,-2.093,-2.042,-1.9847,-1.9261,-1.8648,-1.8118,-1.7692,-1.7679,-1.7788,-1.8002,-1.8002,-1.8028,-1.812,-1.7553,-1.7249,-2.5094,-2.6048,-2.7192,-2.9001,-3.0089,0.0,0.0,0.0,0.0,0.0,0.0,0.0,0.0,0.0,0.0,0.0,0.0,0.0,0.0,0.0,0.0,0.0,0.0,0.0,0.0,0.0,0.0,0.0,0.0,0.0,-4.1323,-4.1153,-4.1034,-4.0799,-4.0593,-4.0524,-4.0524,-4.0401,-4.0277,-4.0011,-4.0011,-3.9783,-3.9424,-3.9424,-3.9424,-3.9424,-3.9424,-3.9337,-3.9265,-3.9177,-3.9031,-3.8914,-3.8282,-3.7915,-3.7491,-3.645,-3.5755,-3.531,-3.47,-3.4346,-3.4225,-3.4074,-3.4005,-3.4005,-3.3813,-3.3744,-3.3605,-3.3312,-3.3157,-3.2889,-3.1956,-3.1388,-3.0855,-3.006,-2.9257,-2.8607,-2.8137,-2.773,-2.7469,-2.7335,-2.7167,-2.6726,-2.5779,-2.5441,-2.5049,-2.4158,-2.4073,-2.4203,-2.4345,-2.4434,-2.4186,-2.3389,-2.2751,-2.2028,-2.1211,-2.118,-2.1277,-2.1375,-2.0691,-2.0241,-1.9967,-1.9148,-1.8655,-1.8438,-1.8153,-1.8043,-1.8095,-1.8095,-1.8175,-1.824,-1.811,-1.788,-2.5208,-2.6525,-2.807,0.0,0.0,0.0,0.0,0.0,0.0,0.0,0.0,0.0,0.0,0.0,0.0,0.0,0.0,0.0,0.0,0.0,0.0,0.0,0.0,0.0,0.0,0.0,0.0,0.0,0.0,0.0,0.0,-4.1086,-4.0882,-4.073,-4.0593,-4.0524,-4.0524,-4.0331,-4.0207,-4.0011,-3.9925,-3.9711,-3.9424,-3.9424,-3.9424,-3.9424,-3.9424,-3.9424,-3.9424,-3.9265,-3.9058,-3.8748,-3.8144,-3.7644,-3.7102,-3.6217,-3.5692,-3.5321,-3.4896,-3.4683,-3.4534,-3.4399,-3.4332,-3.4278,-3.4088,-3.402,-3.3882,-3.3605,-3.3466,-3.3255,-3.2674,-3.2072,-3.1548,-3.1016,-3.007,-2.924,-2.8862,-2.8345,-2.7855,-2.7736,-2.7669,-2.7354,-2.6446,-2.6054,-2.5656,-2.4786,-2.4469,-2.4421,-2.4549,-2.462,-2.445,-2.3916,-2.2881,-2.2042,-2.1637,-2.158,-2.1568,-2.1664,-2.1152,-2.0772,-2.0582,-1.9901,-1.9359,-1.8975,-1.8659,-1.8382,-1.8228,-1.8268,-1.8347,-1.8436,-1.8528,-1.8379,-2.5208,-2.6542,0.0,0.0,0.0,0.0,0.0,0.0,0.0,0.0,0.0,0.0,0.0,0.0,0.0,0.0,0.0,0.0,0.0,0.0,0.0,0.0,0.0,0.0,0.0,0.0,0.0,0.0,0.0,0.0,0.0,-4.0882,-4.073,-4.0524,-4.0524,-4.0524,-4.0524,-4.0331,-4.0207,-4.0011,-3.9768,-3.9625,-3.9424,-3.9424,-3.9424,-3.9424,-3.9424,-3.9424,-3.9409,-3.9409,-3.8862,-3.8124,-3.8109,-3.7168,-3.5893,-3.5893,-3.548,-3.4935,-3.4935,-3.4935,-3.4935,-3.4935,-3.4817,-3.4698,-3.4481,-3.4264,-3.4074,-3.3951,-3.3744,-3.3536,-3.3396,-3.2874,-3.2195,-3.1466,-3.0659,-2.9941,-2.9146,-2.8572,-2.8092,-2.8079,-2.8079,-2.7893,-2.7267,-2.668,-2.6094,-2.5522,-2.4936,-2.462,-2.462,-2.4734,-2.4606,-2.4123,-2.3142,-2.2519,-2.2506,-2.2055,-2.1807,-2.1793,-2.1793,-2.1531,-2.0923,-2.0896,-2.0343,-1.9142,-1.91,-1.8837,-1.8319,-1.8425,-1.8556,-1.8711,-1.876,-1.8784,-2.5349,-2.735,0.0,0.0,0.0,0.0,0.0,0.0,0.0,0.0,0.0,0.0,0.0,0.0,0.0,0.0,0.0,0.0,0.0,0.0,0.0,0.0,0.0,0.0,0.0,0.0,0.0,0.0,0.0,0.0,0.0,-4.0882,-4.073,-4.0524,-4.0524,-4.0524,-4.0524,-4.0207,-4.0066,-4.0011,-3.964,-3.9481,-3.9424,-3.9424,-3.9424,-3.9424,-3.9424,-3.914,-3.8661,-3.8197,-3.7814,-3.759,-3.7157,-3.6686,-3.6283,-3.5821,-3.5377,-3.5082,-3.5082,-3.5001,-3.4935,-3.4935,-3.4868,-3.4802,-3.4735,-3.4616,-3.4481,-3.4278,-3.4142,-3.3937,-3.3744,-3.3382,-3.2903,-3.2412,-3.1705,-3.0909,-3.016,-2.9376,-2.8705,-2.8225,-2.8079,-2.7893,-2.7267,-2.668,-2.6155,-2.5687,-2.5097,-2.4778,-2.5005,-2.5061,-2.4942,-2.4503,-2.4171,-2.3592,-2.2724,-2.249,-2.2297,-2.1963,-2.1949,-2.1819,-2.1545,-2.1222,-2.0865,-2.0504,-1.9824,-1.9373,-1.923,-1.8857,-1.8721,-1.876,-1.8889,-1.8965,-2.5331,0.0,0.0,0.0,0.0,0.0,0.0,0.0,0.0,0.0,0.0,0.0,0.0,0.0,0.0,0.0,0.0,0.0,0.0,0.0,0.0,0.0,0.0,0.0,0.0,0.0,0.0,0.0,0.0,0.0,-4.0275,-3.9993,-3.9859,-3.9724,-3.9724,-3.9724,-3.9724,-3.9673,-3.9601,-3.9616,-3.9163,-3.9005,-3.902,-3.929,-3.9275,-3.899,-3.8736,-3.8392,-3.7973,-3.7569,-3.727,-3.7,-3.6626,-3.6327,-3.6043,-3.5654,-3.5439,-3.5294,-3.5294,-3.5228,-3.5148,-3.5148,-3.5082,-3.5001,-3.5001,-3.4883,-3.475,-3.4601,-3.4399,-3.421,-3.4157,-3.3813,-3.3466,-3.3016,-3.2262,-3.1446,-3.0761,-3.0024,-2.9306,-2.8644,-2.8536,-2.84,-2.8035,-2.748,-2.6884,-2.6408,-2.5619,-2.5131,-2.53,-2.53,-2.5218,-2.497,-2.4801,-2.4357,-2.3608,-2.3131,-2.2749,-2.2516,-2.2311,-2.2137,-2.2137,-2.1787,-2.1524,-2.124,-2.0684,-2.0172,-1.9689,-1.9394,-1.9142,-1.8898,-1.904,-1.9168,0.0,0.0,0.0,0.0,0.0,0.0,0.0,0.0,0.0,0.0,0.0,0.0,0.0,0.0,0.0,0.0,0.0,0.0,0.0,0.0,0.0,0.0,0.0,0.0,0.0,0.0,0.0,0.0,0.0,0.0,-3.9011,-3.8704,-3.8508,-3.8508,-3.8508,-3.8508,-3.8508,-3.8735,-3.8918,-3.8918,-3.8527,-3.8302,-3.8317,-3.8945,-3.8901,-3.8257,-3.7614,-3.733,-3.7315,-3.7255,-3.6896,-3.6454,-3.6454,-3.6094,-3.5569,-3.5569,-3.5569,-3.5569,-3.5569,-3.5569,-3.5569,-3.5569,-3.5424,-3.5279,-3.5279,-3.5133,-3.4935,-3.4935,-3.4668,-3.4414,-3.4414,-3.4225,-3.3813,-3.3466,-3.2654,-3.1778,-3.1046,-3.0466,-2.9886,-2.9223,-2.9099,-2.9099,-2.9099,-2.8602,-2.798,-2.7317,-2.6282,-2.5564,-2.5494,-2.5494,-2.5494,-2.555,-2.5146,-2.4878,-2.4822,-2.3876,-2.3322,-2.3305,-2.2814,-2.252,-2.2615,-2.2463,-2.2161,-2.1636,-2.1625,-2.1041,-1.9881,-1.9929,-1.9648,-1.9101,-1.9265,-1.9339,0.0,0.0,0.0,0.0,0.0,0.0,0.0,0.0,0.0,0.0,0.0,0.0,0.0,0.0,0.0,0.0,0.0,0.0,0.0,0.0,0.0,0.0,0.0,0.0,0.0,0.0,0.0,0.0,0.0,-3.8947,-3.8834,-3.8639,-3.8508,-3.8508,-3.8508,-3.8508,-3.8508,-3.8278,-3.8235,-3.8235,-3.7781,-3.7629,-3.7629,-3.7778,-3.7764,-3.7584,-3.6956,-3.6738,-3.6827,-3.627,-3.6114,-3.6137,-3.6137,-3.6046,-3.5925,-3.5925,-3.5925,-3.5925,-3.5925,-3.5925,-3.5925,-3.5925,-3.5846,-3.5782,-3.5638,-3.5459,-3.5359,-3.5148,-3.4935,-3.4735,-3.4683,-3.4496,-3.421,-3.4005,-3.3408,-3.2667,-3.14,-3.0932,-3.0383,-2.9306,-2.9099,-2.9099,-2.9099,-2.8602,-2.7828,-2.6765,-2.6365,-2.6076,-2.5689,-2.5688,-2.5688,-2.5798,-2.5835,-2.5607,-2.5127,-2.5,-2.4505,-2.3507,-2.3321,-2.3069,-2.2629,-2.2555,-2.2498,-2.2369,-2.1972,-2.137,-2.0579,-2.0291,-1.9841,-1.9265,-1.9339,-1.9465,0.0,0.0,0.0,0.0,0.0,0.0,0.0,0.0,0.0,0.0,0.0,0.0,0.0,0.0,0.0,0.0,0.0,0.0,0.0,0.0,0.0,0.0,0.0,0.0,0.0,0.0,0.0,0.0,0.0,-3.7982,-3.7777,-3.7602,-3.7538,-3.7538,-3.7538,-3.7538,-3.7538,-3.7567,-3.7537,-3.7537,-3.7173,-3.6806,-3.6507,-3.6821,-3.7023,-3.7045,-3.6385,-3.6245,-3.6345,-3.5982,-3.5894,-3.5973,-3.5973,-3.5973,-3.5973,-3.5973,-3.5973,-3.5973,-3.5973,-3.5973,-3.5973,-3.5973,-3.5973,-3.5973,-3.5894,-3.5718,-3.5589,-3.5459,-3.5264,-3.5016,-3.4964,-3.475,-3.4481,-3.4278,-3.3937,-3.3281,-3.2171,-3.1587,-3.0964,-2.9965,-2.9561,-2.9352,-2.9352,-2.885,-2.8237,-2.7597,-2.7262,-2.6888,-2.6413,-2.6329,-2.6272,-2.6099,-2.6165,-2.6051,-2.5763,-2.5531,-2.5112,-2.4554,-2.3923,-2.3497,-2.3213,-2.2956,-2.2797,-2.2689,-2.2539,-2.212,-2.1467,-2.1006,-2.048,-1.9893,-1.9598,-1.9574,0.0,0.0,0.0,0.0,0.0,0.0,0.0,0.0,0.0,0.0,0.0,0.0,0.0,0.0,0.0,0.0,0.0,0.0,0.0,0.0,0.0,0.0,0.0,0.0,0.0,0.0,0.0,0.0,0.0,-3.6877,-3.6662,-3.6554,-3.6492,-3.6492,-3.6492,-3.6492,-3.6492,-3.6743,-3.6838,-3.6838,-3.6511,-3.6079,-3.5569,-3.6124,-3.643,-3.6516,-3.6008,-3.5894,-3.6037,-3.6037,-3.6037,-3.61,-3.61,-3.61,-3.61,-3.61,-3.61,-3.61,-3.61,-3.61,-3.61,-3.61,-3.61,-3.61,-3.6037,-3.5894,-3.5752,-3.5688,-3.5509,-3.5279,-3.5213,-3.4964,-3.4698,-3.4481,-3.4225,-3.3779,-3.2947,-3.2241,-3.1523,-3.0771,-3.0101,-2.9665,-2.9665,-2.9242,-2.8937,-2.8824,-2.8387,-2.7822,-2.7286,-2.7102,-2.6903,-2.65,-2.6397,-2.6326,-2.6326,-2.5921,-2.563,-2.5669,-2.4659,-2.4076,-2.3999,-2.3535,-2.3154,-2.2886,-2.3037,-2.2805,-2.2219,-2.1774,-2.1218,-2.048,-2.0013,-1.9824,0.0,0.0,0.0,0.0,0.0,0.0,0.0,0.0,0.0,0.0,0.0,0.0,0.0,0.0,0.0,0.0,0.0,0.0,0.0,0.0,0.0,0.0,0.0,0.0,0.0,0.0,0.0,0.0,-3.6862,-3.6662,-3.6554,-3.6492,-3.6492,-3.6492,-3.6492,-3.6492,-3.6492,-3.627,-3.611,-3.611,-3.5903,-3.5778,-3.5703,-3.5937,-3.5967,-3.5823,-3.594,-3.6022,-3.6148,-3.6148,-3.6289,-3.6429,-3.6429,-3.6429,-3.6429,-3.6429,-3.6429,-3.6429,-3.6429,-3.6429,-3.6429,-3.6429,-3.6429,-3.6414,-3.6211,-3.6133,-3.607,-3.5752,-3.5688,-3.5574,-3.5279,-3.5148,-3.5016,-3.4765,-3.4631,-3.4254,-3.3121,-3.2425,-3.1797,-3.1168,-3.0477,-3.005,-3.005,-2.9979,-2.975,-2.9209,-2.9052,-2.8767,-2.8097,-2.7597,-2.724,-2.7154,-2.6748,-2.6457,-2.6457,-2.6573,-2.6416,-2.5988,-2.5798,-2.5248,-2.429,-2.4158,-2.3834,-2.3246,-2.3275,-2.2966,-2.2275,-2.2313,-2.1713,-2.0495,-2.0587,-2.0354,0.0,0.0,0.0,0.0,0.0,0.0,0.0,0.0,0.0,0.0,0.0,0.0,0.0,0.0,0.0,0.0,0.0,0.0,0.0,0.0,0.0,0.0,0.0,0.0,0.0,0.0,0.0,0.0,-3.68,-3.6662,-3.6492,-3.6492,-3.6492,-3.6492,-3.6492,-3.6492,-3.6492,-3.6226,-3.6085,-3.5973,-3.5894,-3.5894,-3.5894,-3.6022,-3.6085,-3.6006,-3.6085,-3.6211,-3.6352,-3.6352,-3.6414,-3.6492,-3.6492,-3.6492,-3.6492,-3.6492,-3.6492,-3.6492,-3.6492,-3.6492,-3.6492,-3.6492,-3.6492,-3.6492,-3.6414,-3.6274,-3.6148,-3.6006,-3.5816,-3.5688,-3.5509,-3.5329,-3.5148,-3.503,-3.4883,-3.4662,-3.4051,-3.3287,-3.2342,-3.1303,-3.054,-3.0111,-3.0111,-3.0111,-3.0025,-2.974,-2.9697,-2.9468,-2.8928,-2.8656,-2.8225,-2.7576,-2.7393,-2.7128,-2.6794,-2.6922,-2.6909,-2.6667,-2.63,-2.5732,-2.4838,-2.4562,-2.4119,-2.3437,-2.3407,-2.3274,-2.2992,-2.2721,-2.2312,-2.1779,-2.1098,-2.0699,0.0,0.0,0.0,0.0,0.0,0.0,0.0,0.0,0.0,0.0,0.0,0.0,0.0,0.0,0.0,0.0,0.0,0.0,0.0,0.0,0.0,0.0,0.0,0.0,0.0,0.0,0.0,0.0,-3.68,-3.66,-3.6492,-3.6492,-3.6492,-3.6492,-3.6492,-3.6492,-3.6492,-3.6274,-3.6148,-3.5973,-3.6037,-3.6022,-3.6037,-3.6211,-3.6274,-3.6274,-3.6274,-3.6352,-3.6492,-3.6492,-3.6492,-3.6492,-3.6492,-3.6492,-3.6554,-3.6554,-3.6554,-3.6631,-3.6631,-3.6631,-3.6631,-3.6631,-3.6616,-3.6554,-3.6554,-3.6414,-3.6274,-3.6211,-3.6006,-3.5816,-3.5752,-3.5509,-3.5344,-3.5213,-3.5082,-3.489,-3.4545,-3.3674,-3.2681,-3.1444,-3.0664,-3.0233,-3.0233,-3.0233,-3.0233,-3.0233,-3.0233,-3.0107,-2.9737,-2.9609,-2.9204,-2.8373,-2.8075,-2.7774,-2.7334,-2.7233,-2.7233,-2.7233,-2.6775,-2.6214,-2.5568,-2.5101,-2.4507,-2.3821,-2.3686,-2.3596,-2.3596,-2.3146,-2.2942,-2.2828,-2.1816,-2.1296,0.0,0.0,0.0,0.0,0.0,0.0,0.0,0.0,0.0,0.0,0.0,0.0,0.0,0.0,0.0,0.0,0.0,0.0,0.0,0.0,0.0,0.0,0.0,0.0,0.0,0.0,0.0,0.0,-3.6693,-3.6492,-3.6492,-3.6492,-3.6492,-3.6492,-3.6492,-3.6492,-3.6492,-3.6274,-3.6148,-3.5973,-3.6148,-3.6211,-3.6211,-3.6414,-3.6492,-3.6492,-3.6492,-3.6492,-3.6492,-3.6492,-3.6492,-3.6492,-3.6492,-3.66,-3.6662,-3.6662,-3.68,-3.6938,-3.6938,-3.6938,-3.6938,-3.6938,-3.6862,-3.6662,-3.6662,-3.66,-3.6414,-3.6274,-3.6211,-3.607,-3.5752,-3.5688,-3.5559,-3.5279,-3.5213,-3.4904,-3.3944,-3.3135,-3.2353,-3.1594,-3.1003,-3.0568,-3.0568,-3.0568,-3.0568,-3.0568,-3.0568,-3.0568,-3.0524,-3.0119,-2.9841,-2.9783,-2.8822,-2.8178,-2.8148,-2.7587,-2.7233,-2.7401,-2.7372,-2.7095,-2.6572,-2.6023,-2.5409,-2.4747,-2.423,-2.3925,-2.3782,-2.3767,-2.3462,-2.298,-2.297,-2.2293,0.0,0.0,0.0,0.0,0.0,0.0,0.0,0.0,0.0,0.0,0.0,0.0,0.0,0.0,0.0,0.0,0.0,0.0,0.0,0.0,0.0,0.0,0.0,0.0,0.0,0.0,0.0,0.0,0.0,-3.6492,-3.6492,-3.6492,-3.6492,-3.6492,-3.6492,-3.6492,-3.6492,-3.6414,-3.6352,-3.6289,-3.6352,-3.6414,-3.6414,-3.6492,-3.6492,-3.6492,-3.6492,-3.6492,-3.6492,-3.6492,-3.6554,-3.66,-3.66,-3.6739,-3.6877,-3.6877,-3.6938,-3.7015,-3.7015,-3.7015,-3.7015,-3.7015,-3.6938,-3.6877,-3.6877,-3.68,-3.66,-3.6523,-3.6399,-3.6196,-3.607,-3.5879,-3.5638,-3.5424,-3.5294,-3.5088,-3.4706,-3.403,-3.324,-3.2581,-3.1921,-3.141,-3.0969,-3.0895,-3.0895,-3.0895,-3.0895,-3.0895,-3.0895,-3.0749,-3.0514,-3.0072,-2.9714,-2.9218,-2.8388,-2.8211,-2.795,-2.7554,-2.759,-2.7405,-2.6729,-2.6617,-2.6061,-2.4955,-2.4741,-2.4407,-2.394,-2.394,-2.3861,-2.3758,-2.3325,-2.2946,-1.9404,0.0,0.0,0.0,0.0,0.0,0.0,0.0,0.0,0.0,0.0,0.0,0.0,0.0,0.0,0.0,0.0,0.0,0.0,0.0,0.0,0.0,0.0,0.0,0.0,0.0,0.0,0.0,0.0,0.0,-3.5814,-3.5814,-3.5814,-3.5814,-3.6045,-3.6153,-3.6153,-3.6384,-3.6492,-3.6492,-3.6492,-3.6492,-3.6492,-3.6492,-3.6492,-3.6492,-3.6492,-3.6492,-3.6492,-3.6554,-3.66,-3.6723,-3.6785,-3.6923,-3.7044,-3.7044,-3.7121,-3.7197,-3.7197,-3.7197,-3.7197,-3.7197,-3.7121,-3.7044,-3.7044,-3.6923,-3.68,-3.6723,-3.6523,-3.6336,-3.6196,-3.6006,-3.5767,-3.5604,-3.5474,-3.5344,-3.5294,-3.4644,-3.3844,-3.3416,-3.2606,-3.1869,-3.1456,-3.122,-3.1087,-3.1087,-3.1087,-3.1087,-3.1087,-3.1132,-3.1013,-3.0554,-3.0431,-2.9997,-2.9188,-2.8846,-2.8501,-2.8036,-2.7911,-2.7644,-2.7206,-2.7109,-2.6656,-2.5757,-2.5345,-2.4887,-2.4444,-2.4189,-2.4109,-2.4234,-2.3774,-2.3597,0.0,0.0,0.0,0.0,0.0,0.0,0.0,0.0,0.0,0.0,0.0,0.0,0.0,0.0,0.0,0.0,0.0,0.0,0.0,0.0,0.0,0.0,0.0,0.0,0.0,0.0,0.0,0.0,-3.4577,-3.4475,-3.4475,-3.4475,-3.4475,-3.4475,-3.5106,-3.546,-3.546,-3.6107,-3.643,-3.643,-3.6445,-3.6461,-3.6461,-3.6476,-3.6492,-3.6492,-3.6492,-3.6492,-3.6492,-3.6662,-3.6723,-3.6723,-3.6938,-3.7105,-3.7194,-3.7194,-3.7329,-3.748,-3.748,-3.748,-3.748,-3.748,-3.7389,-3.7194,-3.7194,-3.7089,-3.6938,-3.6785,-3.6723,-3.6646,-3.6274,-3.6085,-3.5973,-3.5752,-3.5688,-3.5703,-3.5554,-3.4723,-3.4056,-3.4041,-3.293,-3.2031,-3.2001,-3.15,-3.1161,-3.1087,-3.1087,-3.1087,-3.1087,-3.1234,-3.1278,-3.1278,-3.0869,-3.0522,-3.0507,-2.9501,-2.8852,-2.8785,-2.8319,-2.802,-2.802,-2.7527,-2.7255,-2.7224,-2.6012,-2.5349,-2.5318,-2.4572,-2.425,-2.4302,-2.4457,-2.4247,-1.9356,0.0,0.0,0.0,0.0,0.0,0.0,0.0,0.0,0.0,0.0,0.0,0.0,0.0,0.0,0.0,0.0,0.0,0.0,0.0,0.0,0.0,0.0,0.0,0.0,0.0,0.0,0.0,-3.4534,-3.4475,-3.4475,-3.4475,-3.4475,-3.4475,-3.466,-3.4752,-3.4752,-3.4937,-3.5029,-3.5045,-3.5522,-3.5768,-3.5768,-3.6261,-3.6492,-3.6492,-3.66,-3.6662,-3.6662,-3.6662,-3.6831,-3.7074,-3.7134,-3.727,-3.7405,-3.7405,-3.7464,-3.748,-3.748,-3.748,-3.748,-3.748,-3.7464,-3.7405,-3.7405,-3.727,-3.7134,-3.7074,-3.6892,-3.6646,-3.6274,-3.6148,-3.6085,-3.5958,-3.5894,-3.5894,-3.5703,-3.5439,-3.5026,-3.4498,-3.4047,-3.3496,-3.2542,-3.2244,-3.1975,-3.144,-3.1366,-3.1366,-3.1366,-3.1409,-3.1482,-3.167,-3.1562,-3.1302,-3.0915,-3.0152,-2.947,-2.8985,-2.8419,-2.8137,-2.8137,-2.8115,-2.7841,-2.7349,-2.7011,-2.6378,-2.5462,-2.4656,-2.4317,-2.4457,-2.462,-2.4382,0.0,0.0,0.0,0.0,0.0,0.0,-2.3253,-2.4204,0.0,0.0,0.0,0.0,0.0,0.0,0.0,0.0,0.0,0.0,0.0,0.0,0.0,0.0,0.0,0.0,0.0,-3.3519,-3.3475,-3.364,-3.3598,-3.3598,-3.3598,-3.3598,-3.3598,-3.3598,-3.3875,-3.4029,-3.4029,-3.4321,-3.4475,-3.4475,-3.4876,-3.5214,-3.5491,-3.5891,-3.623,-3.6492,-3.6662,-3.6723,-3.68,-3.6907,-3.7013,-3.7194,-3.727,-3.7405,-3.748,-3.748,-3.748,-3.748,-3.748,-3.748,-3.748,-3.748,-3.748,-3.748,-3.748,-3.7405,-3.7329,-3.7194,-3.6952,-3.6662,-3.6461,-3.6336,-3.6274,-3.6085,-3.6085,-3.6022,-3.5894,-3.5831,-3.5661,-3.5045,-3.4666,-3.4233,-3.3469,-3.2886,-3.2377,-3.2003,-3.1777,-3.1597,-3.1597,-3.1655,-3.1769,-3.1898,-3.1898,-3.1732,-3.145,-3.0852,-3.022,-2.955,-2.8981,-2.859,-2.8314,-2.8348,-2.8259,-2.7921,-2.7628,-2.6854,-2.559,-2.506,-2.472,-2.462,-2.4742,-2.4642,0.0,0.0,0.0,0.0,0.0,0.0,-2.3034,-2.31,-2.3243,0.0,0.0,0.0,0.0,0.0,0.0,0.0,0.0,0.0,0.0,0.0,0.0,0.0,0.0,0.0,-3.1649,-3.157,-3.1643,-3.2136,-3.2244,-3.2275,-3.2275,-3.2351,-3.2398,-3.2398,-3.2982,-3.329,-3.329,-3.3921,-3.4245,-3.4245,-3.4321,-3.4675,-3.526,-3.5414,-3.5814,-3.6446,-3.6631,-3.6862,-3.706,-3.7134,-3.7254,-3.7254,-3.7405,-3.748,-3.748,-3.748,-3.748,-3.748,-3.748,-3.748,-3.748,-3.748,-3.748,-3.748,-3.748,-3.748,-3.7464,-3.7254,-3.6952,-3.6723,-3.6723,-3.66,-3.6429,-3.6274,-3.6211,-3.6211,-3.6022,-3.6037,-3.5925,-3.5634,-3.506,-3.4625,-3.455,-3.3561,-3.2736,-3.2601,-3.2208,-3.1932,-3.1856,-3.1955,-3.1996,-3.2053,-3.2053,-3.2053,-3.2038,-3.1525,-3.0991,-3.0394,-2.9776,-2.915,-2.855,-2.8442,-2.8493,-2.8573,-2.7953,-2.705,-2.5826,-2.5559,-2.5212,-2.4782,-2.4822,-2.4926,0.0,0.0,0.0,0.0,0.0,0.0,-2.2257,-2.2655,-2.3017,0.0,0.0,0.0,0.0,0.0,0.0,0.0,0.0,0.0,0.0,0.0,0.0,0.0,0.0,0.0,-3.084,-3.0716,-3.0674,-3.0797,-3.1289,-3.1582,-3.1582,-3.2105,-3.2398,-3.2398,-3.2521,-3.2598,-3.2598,-3.2736,-3.2798,-3.2813,-3.3352,-3.3675,-3.3844,-3.4968,-3.5613,-3.5873,-3.6628,-3.7044,-3.721,-3.7345,-3.7464,-3.7464,-3.748,-3.748,-3.748,-3.748,-3.748,-3.748,-3.748,-3.748,-3.748,-3.748,-3.748,-3.748,-3.748,-3.748,-3.7464,-3.7254,-3.7089,-3.6877,-3.6723,-3.66,-3.6492,-3.6429,-3.6414,-3.6414,-3.6211,-3.6148,-3.6085,-3.5925,-3.5804,-3.5546,-3.5016,-3.4697,-3.4167,-3.3091,-3.2819,-3.2546,-3.2016,-3.1996,-3.2038,-3.215,-3.2135,-3.2191,-3.2287,-3.1728,-3.1336,-3.1144,-3.0074,-2.935,-2.9227,-2.8786,-2.8573,-2.8573,-2.8093,-2.7478,-2.6647,-2.5477,-2.4867,-2.4822,-2.4966,-2.5068,0.0,0.0,0.0,-2.2422,0.0,0.0,0.0,-2.2224,-2.2418,0.0,0.0,0.0,0.0,0.0,0.0,0.0,0.0,0.0,0.0,0.0,0.0,0.0,0.0,0.0,-2.9102,-2.9261,-2.9689,-3.0366,-3.072,-3.0905,-3.0905,-3.1536,-3.189,-3.189,-3.2213,-3.2398,-3.2398,-3.2398,-3.2398,-3.2398,-3.2736,-3.3075,-3.3444,-3.4608,-3.5332,-3.5732,-3.6672,-3.715,-3.7194,-3.7405,-3.748,-3.748,-3.748,-3.748,-3.748,-3.748,-3.748,-3.748,-3.748,-3.748,-3.748,-3.748,-3.748,-3.748,-3.748,-3.748,-3.748,-3.7405,-3.721,-3.7089,-3.6952,-3.6785,-3.66,-3.66,-3.6554,-3.6492,-3.6352,-3.6352,-3.6352,-3.6226,-3.6226,-3.6056,-3.5596,-3.5199,-3.4759,-3.4076,-3.3467,-3.2977,-3.2627,-3.2348,-3.2247,-3.2287,-3.2287,-3.2342,-3.2398,-3.2074,-3.1751,-3.1413,-3.051,-2.9852,-2.9512,-2.8993,-2.8732,-2.8748,-2.8276,-2.7832,-2.7501,-2.6141,-2.5313,-2.4966,-2.5068,-2.513,0.0,0.0,0.0,0.0,0.0,-2.2336,0.0,0.0,0.0,0.0,0.0,0.0,0.0,0.0,0.0,0.0,0.0,0.0,0.0,0.0,0.0,0.0,0.0,0.0,-2.7302,-2.7782,-2.8519,-2.975,-2.9966,-3.0089,-3.0228,-3.0843,-3.1259,-3.1382,-3.1921,-3.2259,-3.2398,-3.2398,-3.2398,-3.2398,-3.2398,-3.2675,-3.3229,-3.4249,-3.4988,-3.5605,-3.6714,-3.7194,-3.7254,-3.7405,-3.748,-3.748,-3.748,-3.748,-3.748,-3.748,-3.748,-3.748,-3.748,-3.748,-3.748,-3.748,-3.748,-3.748,-3.748,-3.748,-3.748,-3.748,-3.7329,-3.7194,-3.7194,-3.6952,-3.6723,-3.6723,-3.66,-3.6554,-3.6492,-3.6492,-3.6492,-3.6492,-3.6492,-3.6429,-3.6163,-3.5658,-3.5247,-3.5125,-3.43,-3.3548,-3.3288,-3.288,-3.2536,-3.2398,-3.2398,-3.2398,-3.2453,-3.2453,-3.2222,-3.1736,-3.1176,-3.0545,-2.9863,-2.9168,-2.8858,-2.892,-2.8523,-2.8221,-2.8139,-2.7116,-2.6172,-2.5314,-2.521,-2.5262,0.0,0.0,0.0,0.0,-2.3203,0.0,0.0,0.0,0.0,-2.1634,0.0,-2.1673,-2.147,0.0,0.0,0.0,0.0,0.0,0.0,0.0,0.0,0.0,0.0,0.0,0.0,-2.6565,-2.6934,-2.7688,-2.8288,-2.8904,-2.9504,-3.0166,-3.0797,-3.1366,-3.1459,-3.1782,-3.2382,-3.2398,-3.2398,-3.2398,-3.2398,-3.2428,-3.2552,-3.4032,-3.4783,-3.5096,-3.657,-3.7329,-3.748,-3.748,-3.748,-3.748,-3.748,-3.748,-3.748,-3.748,-3.748,-3.748,-3.748,-3.748,-3.748,-3.748,-3.748,-3.748,-3.748,-3.748,-3.748,-3.748,-3.7329,-3.7194,-3.7194,-3.7089,-3.6938,-3.6723,-3.6662,-3.6662,-3.6554,-3.6492,-3.6492,-3.6492,-3.6492,-3.6492,-3.6429,-3.6368,-3.6107,-3.5507,-3.5353,-3.4799,-3.3567,-3.3336,-3.3059,-3.2459,-3.2398,-3.2453,-3.2578,-3.2578,-3.2617,-3.2718,-3.2048,-3.1348,-3.0713,-2.9515,-2.8967,-2.9075,-2.9012,-2.8756,-2.8259,-2.8144,-2.7381,-2.6061,-2.5566,-2.5378,0.0,0.0,0.0,0.0,0.0,0.0,-2.2675,0.0,-2.1708,0.0,0.0,0.0,0.0,0.0,0.0,0.0,-2.1591,0.0,0.0,0.0,0.0,0.0,0.0,0.0,0.0,0.0,0.0,0.0,-2.6811,-2.7503,-2.8211,-2.8889,-2.955,-3.0212,-3.0982,-3.152,-3.1813,-3.2198,-3.2398,-3.2398,-3.2398,-3.2453,-3.257,-3.41,-3.4909,-3.5174,-3.6672,-3.7405,-3.748,-3.748,-3.748,-3.748,-3.748,-3.748,-3.748,-3.748,-3.748,-3.748,-3.748,-3.748,-3.748,-3.748,-3.748,-3.748,-3.748,-3.748,-3.748,-3.748,-3.7464,-3.7389,-3.7389,-3.7285,-3.7089,-3.7013,-3.6907,-3.6877,-3.6816,-3.6816,-3.6816,-3.6816,-3.6816,-3.6739,-3.6616,-3.6554,-3.6384,-3.6107,-3.5737,-3.5276,-3.4691,-3.3906,-3.3362,-3.3141,-3.2755,-3.2578,-3.2773,-3.2773,-3.2843,-3.2897,-3.2263,-3.1491,-3.0508,-2.9942,-2.9485,-2.9091,-2.9167,-2.9116,-2.8891,-2.861,-2.8158,-2.755,-2.6535,-2.5873,-2.6886,0.0,0.0,0.0,0.0,0.0,0.0,0.0,0.0,0.0,0.0,0.0,0.0,0.0,-2.1119,0.0,0.0,-2.0526,0.0,0.0,0.0,0.0,0.0,0.0,0.0,0.0,0.0,0.0,0.0,-2.6241,-2.7334,-2.7857,-2.8519,-2.9381,-3.052,-3.1197,-3.1382,-3.2044,-3.2398,-3.2398,-3.2453,-3.2523,-3.264,-3.4229,-3.5039,-3.5304,-3.6821,-3.748,-3.748,-3.748,-3.748,-3.748,-3.748,-3.748,-3.748,-3.748,-3.748,-3.748,-3.748,-3.748,-3.748,-3.748,-3.748,-3.748,-3.748,-3.748,-3.748,-3.748,-3.748,-3.748,-3.748,-3.7405,-3.7254,-3.7194,-3.715,-3.7044,-3.6999,-3.7015,-3.7015,-3.7015,-3.7015,-3.6938,-3.68,-3.6677,-3.6554,-3.6492,-3.6137,-3.5737,-3.5567,-3.4546,-3.38,-3.3743,-3.3106,-3.2773,-3.2951,-3.2951,-3.2951,-3.3005,-3.2437,-3.1675,-3.0796,-3.0385,-2.9943,-2.9422,-2.9309,-2.9305,-2.935,-2.9034,-2.8812,-2.863,-2.7211,-2.6315,0.0,0.0,0.0,-2.5848,0.0,0.0,0.0,0.0,-2.2551,0.0,0.0,0.0,0.0,-2.1183,-2.1119,-2.1119,0.0,0.0,0.0,0.0,0.0,0.0,0.0,0.0,0.0,0.0,0.0,0.0,-2.4364,-2.5256,-2.7288,-2.7411,-2.8042,-2.9381,-3.0089,-3.0751,-3.1382,-3.2044,-3.2398,-3.2398,-3.2523,-3.2594,-3.264,-3.4413,-3.5169,-3.5304,-3.6821,-3.748,-3.748,-3.748,-3.748,-3.748,-3.748,-3.748,-3.748,-3.748,-3.748,-3.748,-3.748,-3.748,-3.748,-3.748,-3.748,-3.748,-3.748,-3.748,-3.748,-3.748,-3.748,-3.748,-3.748,-3.748,-3.7464,-3.7254,-3.7194,-3.7134,-3.706,-3.7015,-3.7015,-3.7015,-3.7015,-3.7015,-3.7015,-3.68,-3.6662,-3.6492,-3.6585,-3.6445,-3.5794,-3.5198,-3.4613,-3.3958,-3.3287,-3.2951,-3.3112,-3.3096,-3.315,-3.3309,-3.2645,-3.2301,-3.2254,-3.0891,-3.0164,-3.0148,-2.9609,-2.935,-2.9473,-2.9637,-2.9339,-2.8757,-2.7348,-2.6685,0.0,0.0,-2.7671,-2.7042,0.0,0.0,0.0,0.0,0.0,0.0,0.0,0.0,0.0,0.0,-2.1119,-2.1119,-2.0353,0.0,0.0,0.0,0.0,0.0,0.0,0.0,0.0,0.0,0.0,0.0,-2.3132,0.0,-2.5287,-2.6226,-2.7149,-2.8057,-2.9181,-3.0074,-3.0735,-3.1397,-3.2006,-3.2523,-3.2578,-3.2703,-3.2966,-3.3983,-3.4769,-3.5401,-3.6374,-3.7054,-3.748,-3.748,-3.748,-3.748,-3.748,-3.748,-3.748,-3.748,-3.748,-3.748,-3.748,-3.748,-3.748,-3.748,-3.748,-3.748,-3.748,-3.748,-3.748,-3.748,-3.748,-3.748,-3.748,-3.748,-3.748,-3.7405,-3.7405,-3.7405,-3.7361,-3.7301,-3.7301,-3.7301,-3.7301,-3.7301,-3.715,-3.7074,-3.6968,-3.6877,-3.6877,-3.6799,-3.6611,-3.5568,-3.4873,-3.4736,-3.3717,-3.3112,-3.3203,-3.3256,-3.3256,-3.3309,-3.3087,-3.274,-3.2333,-3.1365,-3.0703,-3.0355,-2.9733,-2.9518,-2.9653,-2.9786,-2.9745,-2.9529,-2.863,-2.7957,-2.9843,-2.9136,0.0,-2.7763,-2.6889,0.0,-2.526,0.0,0.0,0.0,0.0,0.0,0.0,0.0,0.0,-2.1151,-2.0353,0.0,0.0,-1.8277,0.0,0.0,0.0,0.0,0.0,0.0,0.0,-2.0905,-2.2178,-2.3332,0.0,-2.5395,-2.6441,-2.7365,-2.8473,-2.9489,-3.0412,-3.1127,-3.1844,-3.2594,-3.2703,-3.2866,-3.3128,-3.4109,-3.4896,-3.5442,-3.639,-3.7054,-3.748,-3.748,-3.748,-3.748,-3.748,-3.748,-3.748,-3.748,-3.748,-3.748,-3.748,-3.748,-3.748,-3.748,-3.748,-3.748,-3.748,-3.748,-3.748,-3.748,-3.748,-3.748,-3.748,-3.748,-3.748,-3.748,-3.748,-3.748,-3.748,-3.748,-3.748,-3.748,-3.748,-3.7464,-3.7329,-3.7329,-3.7225,-3.6999,-3.706,-3.7044,-3.7044,-3.5884,-3.508,-3.5194,-3.3967,-3.3203,-3.3309,-3.3309,-3.3309,-3.3309,-3.3309,-3.3103,-3.2645,-3.2016,-3.1369,-3.0768,-3.0192,-2.9849,-2.9697,-2.983,-2.9918,-2.9902,-2.9534,-2.9146]}]]